[[{"header":{"parameterUnit":"m.s-1","parameterCategory":1,"la1":30.6,"la2":29.2853,"lo1":-89.7004,"lo2":-87.6739,"dy":0.0162,"dx":0.0183,"nx":112,"ny":82,"refTime":"2026-05-20T12:00:00:Z","depth":0,"parameterNumber":2,"parameterNumberName":"U-component_of_WINDS"},"data":[0.0,0.0,0.0,0.0,0.0,0.0,0.0,0.0,0.0,0.0,0.0,0.0,0.0,0.0,0.0,0.0,0.0,0.0,0.0,0.0,0.0,0.0,0.0,0.0,0.0,0.0,0.0,0.0,0.0,0.0,0.0,0.0,0.0,0.0,0.0,0.0,0.0,0.0,0.0,0.0,0.0,0.0,0.0,0.0,0.0,0.0,0.0,0.0,0.0,0.0,0.0,0.0,0.0,0.0,0.0,0.0,0.0,0.0,0.0,0.0,0.0,0.0,0.0,0.0,0.0,0.0,0.0,0.0,0.0,0.0,0.0,0.0,0.0,0.0,0.0,0.0,0.0,0.0,0.0,0.0,0.0,0.0,0.0,0.0,0.0,0.0,0.0,0.0,0.0,0.0,-5.4487,-5.729,-5.9942,-6.1431,-6.1276,-5.9814,-5.7336,-5.3628,0.0,0.0,0.0,0.0,0.0,0.0,0.0,0.0,0.0,0.0,0.0,0.0,0.0,0.0,0.0,0.0,0.0,0.0,0.0,0.0,0.0,0.0,0.0,0.0,0.0,0.0,0.0,0.0,0.0,0.0,0.0,0.0,0.0,0.0,0.0,0.0,0.0,0.0,0.0,0.0,0.0,0.0,0.0,0.0,0.0,0.0,0.0,0.0,0.0,0.0,0.0,0.0,0.0,0.0,0.0,0.0,0.0,0.0,0.0,0.0,0.0,0.0,0.0,0.0,0.0,0.0,0.0,0.0,0.0,0.0,0.0,0.0,0.0,0.0,0.0,0.0,0.0,0.0,0.0,0.0,0.0,0.0,0.0,0.0,0.0,0.0,0.0,0.0,0.0,0.0,0.0,0.0,0.0,0.0,0.0,0.0,0.0,0.0,0.0,0.0,0.0,0.0,0.0,0.0,-5.5605,-5.9052,-6.0657,-6.1143,-6.0292,-5.941,-5.7063,-5.2767,0.0,0.0,0.0,0.0,0.0,0.0,0.0,0.0,0.0,0.0,0.0,0.0,0.0,0.0,0.0,0.0,0.0,0.0,0.0,0.0,0.0,0.0,0.0,0.0,0.0,0.0,0.0,0.0,0.0,0.0,0.0,0.0,0.0,0.0,0.0,0.0,0.0,0.0,0.0,0.0,0.0,0.0,0.0,0.0,0.0,0.0,0.0,0.0,0.0,0.0,0.0,0.0,0.0,0.0,0.0,0.0,0.0,0.0,0.0,0.0,0.0,0.0,0.0,0.0,0.0,0.0,0.0,0.0,0.0,0.0,0.0,0.0,0.0,0.0,0.0,0.0,0.0,0.0,0.0,0.0,0.0,0.0,0.0,0.0,0.0,0.0,0.0,0.0,0.0,0.0,0.0,0.0,0.0,0.0,0.0,0.0,0.0,0.0,0.0,0.0,0.0,0.0,0.0,-5.3291,-5.5489,-5.8103,-5.9283,-5.9752,-5.9433,-5.8688,-5.6619,-5.2752,-5.1755,0.0,0.0,0.0,0.0,0.0,0.0,0.0,0.0,0.0,0.0,0.0,0.0,0.0,0.0,0.0,0.0,0.0,0.0,0.0,0.0,0.0,0.0,0.0,0.0,0.0,0.0,0.0,0.0,0.0,0.0,0.0,0.0,0.0,0.0,0.0,0.0,0.0,0.0,0.0,0.0,0.0,0.0,0.0,0.0,0.0,0.0,0.0,0.0,0.0,0.0,0.0,0.0,0.0,0.0,0.0,0.0,0.0,0.0,0.0,0.0,0.0,0.0,0.0,0.0,0.0,0.0,0.0,0.0,0.0,0.0,0.0,0.0,0.0,0.0,0.0,0.0,0.0,0.0,0.0,0.0,0.0,0.0,0.0,0.0,0.0,0.0,0.0,0.0,0.0,0.0,0.0,0.0,0.0,0.0,0.0,0.0,0.0,0.0,0.0,0.0,0.0,0.0,-5.448,-5.57,-5.729,-5.8076,-5.8503,-5.8503,-5.7639,-5.5728,-5.2554,-5.1345,0.0,0.0,0.0,0.0,0.0,0.0,0.0,0.0,0.0,0.0,0.0,0.0,0.0,0.0,0.0,0.0,0.0,0.0,0.0,0.0,0.0,0.0,0.0,0.0,0.0,0.0,0.0,0.0,0.0,0.0,0.0,0.0,0.0,0.0,0.0,0.0,0.0,0.0,0.0,0.0,0.0,0.0,0.0,0.0,0.0,0.0,0.0,0.0,0.0,0.0,0.0,0.0,0.0,0.0,0.0,0.0,0.0,0.0,0.0,0.0,0.0,0.0,0.0,0.0,0.0,0.0,0.0,0.0,0.0,0.0,0.0,0.0,0.0,0.0,0.0,0.0,0.0,0.0,0.0,0.0,0.0,0.0,0.0,0.0,0.0,0.0,0.0,0.0,0.0,0.0,0.0,0.0,0.0,0.0,0.0,0.0,0.0,0.0,0.0,0.0,0.0,0.0,-5.5155,-5.7176,-5.811,-5.8394,-5.8167,-5.7397,-5.6062,-5.4145,-5.1469,-4.9784,0.0,0.0,0.0,0.0,0.0,0.0,0.0,0.0,0.0,0.0,0.0,0.0,0.0,0.0,0.0,0.0,0.0,0.0,0.0,0.0,0.0,0.0,0.0,0.0,0.0,0.0,0.0,0.0,0.0,0.0,0.0,0.0,0.0,0.0,0.0,0.0,0.0,0.0,0.0,0.0,0.0,0.0,0.0,0.0,0.0,0.0,0.0,0.0,0.0,0.0,0.0,0.0,0.0,0.0,0.0,0.0,0.0,0.0,0.0,0.0,0.0,0.0,0.0,0.0,0.0,0.0,0.0,0.0,0.0,0.0,0.0,0.0,0.0,0.0,0.0,0.0,0.0,0.0,0.0,0.0,0.0,0.0,0.0,0.0,0.0,0.0,0.0,0.0,0.0,0.0,0.0,0.0,0.0,0.0,0.0,0.0,0.0,0.0,0.0,0.0,0.0,0.0,-5.3341,-5.5164,-5.653,-5.6713,-5.6637,-5.6411,-5.5436,-5.3783,-5.1284,0.0,0.0,0.0,0.0,0.0,0.0,0.0,0.0,0.0,0.0,0.0,0.0,0.0,0.0,0.0,0.0,0.0,0.0,0.0,0.0,0.0,0.0,0.0,0.0,0.0,0.0,0.0,0.0,0.0,0.0,0.0,0.0,0.0,0.0,0.0,0.0,0.0,0.0,0.0,0.0,0.0,0.0,0.0,0.0,0.0,0.0,0.0,0.0,0.0,0.0,0.0,0.0,0.0,0.0,0.0,0.0,0.0,0.0,0.0,0.0,0.0,0.0,0.0,0.0,0.0,0.0,0.0,0.0,0.0,0.0,0.0,0.0,0.0,0.0,0.0,0.0,0.0,0.0,0.0,0.0,0.0,0.0,0.0,0.0,0.0,0.0,0.0,0.0,0.0,0.0,0.0,0.0,0.0,0.0,0.0,0.0,0.0,0.0,0.0,0.0,0.0,0.0,-4.9969,-5.1971,-5.3738,-5.5166,-5.5423,-5.5553,-5.5644,-5.4564,-5.3051,-5.113,0.0,0.0,0.0,0.0,0.0,0.0,0.0,0.0,0.0,0.0,0.0,0.0,0.0,0.0,0.0,0.0,0.0,0.0,0.0,0.0,0.0,0.0,0.0,0.0,0.0,0.0,0.0,0.0,0.0,0.0,0.0,0.0,0.0,0.0,0.0,0.0,0.0,0.0,0.0,0.0,0.0,0.0,0.0,0.0,0.0,0.0,0.0,0.0,0.0,0.0,0.0,0.0,0.0,0.0,0.0,0.0,0.0,0.0,0.0,0.0,0.0,0.0,0.0,0.0,0.0,0.0,0.0,0.0,0.0,0.0,0.0,0.0,0.0,0.0,0.0,0.0,0.0,0.0,0.0,0.0,0.0,0.0,0.0,0.0,0.0,0.0,0.0,0.0,0.0,0.0,0.0,0.0,0.0,0.0,0.0,0.0,0.0,0.0,0.0,0.0,0.0,0.0,-4.887,-5.1437,-5.3519,-5.4371,-5.4829,-5.5069,-5.5069,-5.3234,-5.1703,0.0,0.0,0.0,0.0,0.0,0.0,0.0,0.0,0.0,0.0,0.0,0.0,0.0,0.0,0.0,0.0,0.0,0.0,0.0,0.0,0.0,0.0,0.0,0.0,0.0,0.0,0.0,0.0,0.0,0.0,0.0,0.0,0.0,0.0,0.0,0.0,0.0,0.0,0.0,0.0,0.0,0.0,0.0,0.0,0.0,0.0,0.0,0.0,0.0,0.0,0.0,0.0,0.0,0.0,0.0,0.0,0.0,0.0,0.0,0.0,0.0,0.0,0.0,0.0,0.0,0.0,0.0,0.0,0.0,0.0,0.0,0.0,0.0,0.0,0.0,0.0,0.0,0.0,0.0,0.0,0.0,0.0,0.0,0.0,0.0,0.0,0.0,0.0,0.0,0.0,0.0,0.0,0.0,0.0,0.0,0.0,0.0,0.0,0.0,0.0,0.0,0.0,0.0,-4.8047,-5.0623,-5.2455,-5.2719,-5.2843,-5.2916,-5.2916,-5.2068,-5.0662,-4.859,0.0,0.0,0.0,0.0,0.0,0.0,0.0,0.0,0.0,0.0,0.0,0.0,0.0,0.0,0.0,0.0,0.0,0.0,0.0,0.0,0.0,0.0,0.0,0.0,0.0,0.0,0.0,0.0,0.0,0.0,0.0,0.0,0.0,0.0,0.0,0.0,0.0,0.0,0.0,0.0,0.0,0.0,0.0,0.0,0.0,0.0,0.0,0.0,0.0,0.0,0.0,0.0,0.0,0.0,0.0,0.0,0.0,0.0,0.0,0.0,0.0,0.0,0.0,0.0,0.0,0.0,0.0,0.0,0.0,0.0,0.0,0.0,0.0,0.0,0.0,0.0,0.0,0.0,0.0,0.0,0.0,0.0,0.0,0.0,0.0,0.0,0.0,0.0,0.0,0.0,0.0,0.0,0.0,0.0,0.0,0.0,0.0,0.0,0.0,0.0,0.0,0.0,-4.7394,-4.9584,-5.1172,-5.1491,-5.1659,-5.1753,-5.1753,-5.1362,-5.017,-4.796,0.0,0.0,0.0,0.0,0.0,0.0,0.0,0.0,0.0,0.0,0.0,0.0,0.0,0.0,0.0,0.0,0.0,0.0,0.0,0.0,0.0,0.0,0.0,0.0,0.0,0.0,0.0,0.0,0.0,0.0,0.0,0.0,0.0,0.0,0.0,0.0,0.0,0.0,0.0,0.0,0.0,0.0,0.0,0.0,0.0,0.0,0.0,0.0,0.0,0.0,0.0,0.0,0.0,0.0,0.0,0.0,0.0,0.0,0.0,0.0,0.0,0.0,0.0,0.0,0.0,0.0,0.0,0.0,0.0,0.0,0.0,0.0,0.0,0.0,0.0,0.0,0.0,0.0,0.0,0.0,0.0,0.0,0.0,0.0,0.0,0.0,0.0,0.0,0.0,0.0,0.0,0.0,0.0,0.0,0.0,0.0,0.0,0.0,0.0,0.0,0.0,0.0,-4.6782,-4.8453,-4.9776,-5.049,-5.0898,-5.1115,-5.1115,-5.081,-4.987,-4.8117,0.0,0.0,0.0,0.0,0.0,0.0,0.0,0.0,0.0,0.0,0.0,0.0,0.0,0.0,0.0,0.0,0.0,0.0,0.0,0.0,0.0,0.0,0.0,0.0,0.0,0.0,0.0,0.0,0.0,0.0,0.0,0.0,0.0,0.0,0.0,0.0,0.0,0.0,0.0,0.0,0.0,0.0,0.0,0.0,0.0,0.0,0.0,0.0,0.0,0.0,0.0,0.0,0.0,0.0,0.0,0.0,0.0,0.0,0.0,0.0,-4.7414,-4.7062,0.0,0.0,0.0,0.0,0.0,0.0,0.0,0.0,0.0,0.0,0.0,0.0,0.0,0.0,0.0,0.0,0.0,0.0,0.0,0.0,0.0,0.0,0.0,0.0,0.0,0.0,0.0,0.0,0.0,0.0,0.0,0.0,0.0,0.0,0.0,0.0,0.0,0.0,0.0,0.0,-4.603,-4.7572,-4.8636,-4.882,-4.8898,-4.8955,-4.8955,-4.9185,-4.8319,-4.601,-4.5297,0.0,0.0,0.0,0.0,0.0,0.0,0.0,0.0,0.0,0.0,0.0,0.0,0.0,0.0,0.0,0.0,0.0,0.0,0.0,0.0,0.0,0.0,0.0,0.0,0.0,0.0,0.0,0.0,0.0,0.0,0.0,0.0,0.0,0.0,0.0,0.0,0.0,0.0,0.0,0.0,0.0,0.0,0.0,0.0,0.0,0.0,0.0,0.0,0.0,0.0,0.0,0.0,0.0,0.0,0.0,0.0,0.0,0.0,0.0,-4.722,-4.7134,0.0,0.0,0.0,0.0,0.0,0.0,0.0,0.0,0.0,0.0,0.0,0.0,0.0,0.0,0.0,0.0,0.0,0.0,0.0,0.0,0.0,0.0,0.0,0.0,0.0,0.0,0.0,0.0,0.0,0.0,0.0,0.0,0.0,0.0,0.0,0.0,0.0,0.0,0.0,0.0,-4.57,-4.6966,-4.7865,-4.8269,-4.8306,-4.8306,-4.8306,-4.8145,-4.7328,-4.5629,-4.4766,0.0,0.0,0.0,0.0,0.0,0.0,0.0,0.0,0.0,0.0,0.0,0.0,0.0,0.0,0.0,0.0,0.0,0.0,0.0,0.0,0.0,0.0,0.0,0.0,0.0,0.0,0.0,0.0,0.0,0.0,0.0,0.0,0.0,0.0,0.0,0.0,0.0,0.0,0.0,0.0,0.0,0.0,0.0,0.0,0.0,0.0,0.0,0.0,0.0,0.0,0.0,0.0,0.0,-4.4521,-4.4911,-4.5537,-4.5714,-4.6127,-4.6703,-4.7038,-4.7323,-4.7482,-4.7007,0.0,0.0,0.0,0.0,0.0,0.0,0.0,0.0,0.0,0.0,0.0,0.0,0.0,0.0,0.0,0.0,0.0,0.0,0.0,0.0,0.0,0.0,-4.6044,-4.6269,-4.6635,-4.6541,-4.5077,0.0,0.0,0.0,0.0,0.0,0.0,0.0,0.0,0.0,0.0,0.0,-4.5424,-4.6397,-4.7149,-4.781,-4.7884,-4.7884,-4.7884,-4.7259,-4.6562,-4.5736,-4.4558,-4.3565,0.0,0.0,0.0,0.0,0.0,0.0,0.0,0.0,0.0,0.0,0.0,0.0,0.0,0.0,0.0,0.0,0.0,0.0,0.0,0.0,0.0,0.0,0.0,0.0,0.0,0.0,0.0,0.0,0.0,0.0,0.0,0.0,-4.6649,-4.5659,0.0,0.0,0.0,0.0,0.0,0.0,0.0,0.0,0.0,0.0,0.0,0.0,0.0,-4.4782,-4.4766,-4.5996,-4.6351,-4.5828,-4.6486,-4.6561,-4.6111,-4.6961,-4.6911,-4.6352,-4.8005,0.0,-4.6956,-4.7393,0.0,0.0,0.0,0.0,0.0,0.0,0.0,0.0,0.0,0.0,0.0,0.0,0.0,0.0,0.0,0.0,0.0,0.0,0.0,0.0,0.0,0.0,-4.661,-4.7706,-4.7132,-4.6099,-4.5234,-4.4492,-4.3731,-4.275,-4.2082,-4.1742,0.0,0.0,0.0,0.0,0.0,0.0,-4.4837,-4.5571,-4.6104,-4.6214,-4.6214,-4.6214,-4.6214,-4.6122,-4.5718,-4.4911,-4.4045,-4.3215,-4.2406,-4.1082,0.0,0.0,0.0,0.0,0.0,0.0,0.0,0.0,0.0,0.0,0.0,0.0,0.0,0.0,0.0,0.0,0.0,0.0,0.0,0.0,0.0,0.0,0.0,0.0,0.0,0.0,0.0,0.0,0.0,-4.4902,-4.5751,-4.5272,-4.583,-4.556,0.0,0.0,0.0,0.0,0.0,0.0,0.0,0.0,0.0,-4.3556,-4.3864,-4.4349,-4.5118,-4.5741,-4.5734,-4.5087,-4.5434,-4.5508,-4.5431,-4.585,-4.6365,-4.702,-4.7868,-4.8145,-4.8034,-4.7856,-4.7591,-4.7218,0.0,0.0,0.0,0.0,-4.656,-4.6179,-4.596,-4.6092,-4.6161,-4.5026,0.0,0.0,0.0,0.0,0.0,0.0,0.0,-4.3569,-4.5204,-4.5976,-4.644,-4.7068,-4.6729,-4.5956,-4.4923,-4.3779,-4.2788,-4.2243,-4.2236,-4.1962,-4.0921,-4.1084,0.0,0.0,0.0,-4.3196,-4.4123,-4.4821,-4.5406,-4.5847,-4.5902,-4.5902,-4.5902,-4.5204,-4.4615,-4.4269,-4.3186,-4.2398,-4.2019,-4.1016,-4.0397,0.0,0.0,0.0,0.0,0.0,0.0,0.0,0.0,0.0,0.0,0.0,0.0,0.0,0.0,0.0,0.0,0.0,0.0,0.0,0.0,0.0,0.0,0.0,0.0,0.0,0.0,0.0,0.0,-4.3973,-4.5058,-4.5025,-4.5387,-4.5011,0.0,0.0,0.0,0.0,0.0,0.0,-4.1901,-4.1893,-4.2491,-4.3753,-4.3962,-4.4571,-4.5544,-4.5723,-4.5394,-4.4571,-4.4571,-4.4652,-4.4812,-4.5058,-4.5921,-4.7273,-4.777,-4.8225,-4.8589,-4.8115,-4.7826,-4.7657,-4.6894,-4.6065,-4.539,-4.5954,-4.61,-4.6007,-4.5967,-4.6377,-4.6707,-4.5451,-4.4918,-4.4638,-4.403,0.0,0.0,0.0,0.0,-4.356,-4.492,-4.565,-4.6029,-4.6111,-4.5957,-4.5441,-4.4119,-4.2839,-4.1936,-4.1885,-4.2198,-4.1964,-4.0356,-4.0551,0.0,-4.0164,-4.0897,-4.1939,-4.32,-4.3848,-4.4419,-4.5022,-4.5187,-4.5278,-4.5278,-4.4249,-4.3597,-4.3597,-4.2445,-4.181,-4.181,-4.1025,-4.0499,-4.0303,0.0,0.0,0.0,0.0,0.0,0.0,0.0,0.0,0.0,0.0,0.0,0.0,0.0,0.0,0.0,0.0,0.0,0.0,0.0,0.0,0.0,0.0,0.0,0.0,0.0,0.0,0.0,0.0,0.0,-4.4918,-4.615,0.0,0.0,0.0,0.0,-4.1475,-4.143,-4.1961,-4.3125,-4.3269,-4.3868,-4.5155,-4.5843,-4.616,-4.6277,-4.689,-4.6546,-4.5244,-4.5244,-4.5107,-4.4849,-4.5742,-4.6173,-4.6349,-4.8161,-4.8433,-4.7671,-4.7835,-4.7902,-4.7819,-4.6945,-4.6234,-4.5665,-4.5579,-4.5528,-4.5459,-4.4906,-4.5089,-4.5494,-4.4845,-4.4122,-4.3467,-4.3434,-4.2925,0.0,0.0,-4.3379,-4.3722,-4.5122,-4.5519,-4.5506,-4.5382,-4.4916,-4.4076,-4.2621,-4.1738,-4.1427,-4.1985,-4.1498,-4.115,-4.1619,0.0,-4.174,-4.1687,-4.1743,-4.1817,-4.1888,-4.2416,-4.2822,-4.2858,-4.3324,-4.3608,-4.3608,-4.3104,-4.2765,-4.2765,-4.216,-4.181,-4.181,-4.1025,-4.0601,-4.0586,-3.8337,0.0,0.0,0.0,0.0,0.0,0.0,0.0,0.0,0.0,0.0,0.0,0.0,0.0,0.0,0.0,0.0,0.0,0.0,0.0,0.0,0.0,0.0,0.0,0.0,0.0,0.0,0.0,0.0,-4.2444,-4.3702,0.0,-4.1394,-4.0912,-4.0989,-4.1481,-4.1942,-4.2872,-4.45,-4.4616,-4.5035,-4.5933,-4.6202,-4.6488,-4.695,-4.7824,-4.7578,-4.6217,-4.6897,-4.6677,-4.569,-4.6048,-4.6523,-4.7138,-4.7803,-4.8257,-4.8528,-4.8591,-4.8342,-4.7817,-4.7043,-4.6306,-4.5647,-4.5114,-4.5169,-4.5407,-4.4814,-4.4998,-4.5381,-4.4786,-4.4429,-4.4164,-4.4164,-4.3978,-4.3836,-4.4096,-4.4164,-4.4298,-4.4783,-4.487,-4.4672,-4.4191,-4.3523,-4.2701,-4.1756,-4.0993,-4.0553,-4.077,-4.058,-4.0312,-4.0029,-4.0386,-4.0541,-4.0076,-4.0695,-4.1223,-4.1223,-4.175,-4.2121,-4.2121,-4.2637,-4.2976,-4.2976,-4.2462,-4.2121,-4.2121,-4.1236,-4.0713,-4.0713,-4.0431,-4.0216,-4.0018,-3.9199,-3.8216,0.0,0.0,0.0,0.0,0.0,0.0,0.0,0.0,0.0,0.0,0.0,0.0,0.0,0.0,0.0,0.0,0.0,0.0,0.0,0.0,0.0,0.0,0.0,0.0,0.0,-4.2587,-4.3485,-4.1266,-4.2228,-4.2348,-4.0504,-4.0333,-4.0685,-4.1511,-4.1994,-4.3041,-4.4912,-4.4999,-4.5495,-4.6593,-4.6651,-4.7016,-4.7792,-4.8486,-4.8249,-4.723,-4.7951,-4.773,-4.6678,-4.6678,-4.7189,-4.808,-4.808,-4.8299,-4.8646,-4.8646,-4.8206,-4.7479,-4.6989,-4.6346,-4.5618,-4.4886,-4.4852,-4.5142,-4.4748,-4.4852,-4.5142,-4.472,-4.4615,-4.4615,-4.4615,-4.4615,-4.4615,-4.4615,-4.4615,-4.4547,-4.4265,-4.4139,-4.3829,-4.2884,-4.2245,-4.1668,-4.0968,-4.0426,-4.0096,-4.0096,-4.0096,-3.9943,-3.9469,-3.9791,-3.9943,-3.9453,-4.0109,-4.0631,-4.0631,-4.1133,-4.149,-4.149,-4.2038,-4.24,-4.24,-4.1623,-4.1231,-4.1473,-4.0377,-3.9842,-4.0096,-3.9859,-3.9659,-3.9455,-3.8706,-3.7633,-3.6222,0.0,0.0,0.0,0.0,0.0,0.0,0.0,0.0,0.0,0.0,0.0,0.0,0.0,0.0,0.0,0.0,0.0,0.0,0.0,0.0,0.0,0.0,0.0,-4.1616,-4.2051,-4.228,-4.1566,-4.2108,-4.2246,-4.1508,-4.1407,-4.1453,-4.1544,-4.1544,-4.2412,-4.4408,-4.4496,-4.5332,-4.7236,-4.7352,-4.7792,-4.8784,-4.8835,-4.8694,-4.8322,-4.8343,-4.8107,-4.7655,-4.7655,-4.8161,-4.9001,-4.8984,-4.8578,-4.7889,-4.7872,-4.7445,-4.6752,-4.6752,-4.6329,-4.5618,-4.4886,-4.4615,-4.4615,-4.4615,-4.4615,-4.4615,-4.4615,-4.4615,-4.4615,-4.4615,-4.4615,-4.4615,-4.4615,-4.4615,-4.4401,-4.3623,-4.3375,-4.2987,-4.1559,-4.1187,-4.0967,-4.0265,-4.0096,-4.0096,-4.0096,-4.0096,-4.0096,-4.0096,-4.0096,-4.0096,-4.0096,-4.0096,0.0,-4.0096,-4.0552,-4.0897,-4.0897,-4.1424,-4.1771,-4.1771,-4.0564,-4.0123,-4.0816,-3.9692,-3.9292,-4.0011,-3.9368,-3.8954,-3.8954,-3.6772,-3.5261,-3.4523,0.0,0.0,0.0,0.0,0.0,0.0,0.0,0.0,0.0,0.0,0.0,0.0,0.0,0.0,0.0,0.0,0.0,0.0,0.0,0.0,0.0,-4.3195,-4.3597,-4.2447,-4.4,-4.4167,-4.1349,-4.2317,-4.2263,-3.9858,-3.961,-4.0399,-4.2251,-4.239,-4.3585,-4.6328,-4.6504,-4.6738,-4.7294,-4.803,-4.8527,-4.8784,-4.9777,-4.9957,-4.9311,-4.9508,-4.9272,-4.8625,-4.8625,-4.8767,-4.8968,-4.8443,-4.8075,-4.7838,-4.7327,-4.6667,-4.6007,-4.6007,-4.5889,-4.5618,-4.4886,-4.4615,-4.4615,-4.4615,-4.4615,-4.4615,-4.4615,-4.4615,-4.4615,-4.4615,-4.4615,-4.4615,-4.4615,-4.4615,-4.4401,-4.3623,-4.3014,-4.2371,-4.1424,-4.0781,-4.0367,-4.0146,-4.0096,-4.0096,-4.0096,-4.0096,-4.0096,-4.0096,-4.0096,-4.0096,-4.0096,-4.0096,-4.0096,-4.0096,-4.0229,-4.0311,-4.0311,-4.0821,-4.1155,-4.1155,-4.0804,-4.0452,-4.0123,-3.9402,-3.8853,-3.8514,-3.8311,-3.821,-3.821,-3.706,-3.6079,0.0,0.0,0.0,0.0,0.0,0.0,0.0,0.0,0.0,0.0,0.0,0.0,0.0,0.0,0.0,0.0,0.0,0.0,0.0,0.0,0.0,0.0,-4.4466,-4.5022,-4.4611,-4.5124,-4.4612,-4.2195,-4.2856,-4.2794,-4.0995,-4.0821,-4.1431,-4.2932,-4.3026,-4.4075,-4.6373,-4.6914,-4.739,-4.7919,-4.8922,-4.9497,-4.9626,-5.0424,-5.0497,-4.9876,-5.0015,-4.9712,-4.9001,-4.9001,-4.8832,-4.8528,-4.8075,-4.7534,-4.6955,-4.6515,-4.5906,-4.5263,0.0,0.0,0.0,0.0,-4.4615,-4.4615,-4.4615,-4.4615,-4.4615,-4.4615,-4.4615,-4.4615,-4.4615,-4.4615,-4.4615,-4.4615,-4.4615,-4.4344,-4.3234,-4.2625,-4.2033,-4.0984,-4.0417,-4.0096,-4.0096,-4.0096,-4.0096,-4.0096,-4.0096,0.0,-4.0096,-4.0096,-4.0096,-4.0096,-4.0096,-4.0096,-4.0096,-4.0096,-4.0096,-4.0096,-4.0368,-4.0577,-4.0577,-4.0261,0.0,0.0,0.0,-3.821,-3.7466,-3.7143,0.0,0.0,0.0,0.0,0.0,-3.5052,0.0,0.0,-3.5037,-3.5436,0.0,0.0,0.0,0.0,0.0,0.0,0.0,0.0,0.0,0.0,0.0,0.0,0.0,0.0,0.0,0.0,-4.5933,-4.6636,-4.7219,-4.5815,-4.45,-4.3765,-4.3693,-4.3646,-4.3504,-4.3504,-4.3551,-4.3693,-4.3693,-4.4303,-4.569,-4.662,0.0,0.0,0.0,-5.0628,-5.0782,-5.0806,-5.0592,-5.0084,-4.9999,-4.9627,-4.9001,-4.9001,-4.8612,-4.7889,-4.7804,-4.7005,-4.5703,-4.5618,-4.5179,-4.4682,-4.5314,-4.5179,-4.4615,-4.4615,-4.4615,-4.4615,-4.4615,0.0,0.0,-4.4615,-4.4615,-4.4615,-4.4615,-4.4615,-4.4615,-4.4615,-4.4615,-4.4242,-4.2692,-4.2286,-4.1914,-4.0451,-4.0096,-4.0096,-4.0096,-4.0096,-4.0096,-4.0096,-4.0096,-4.0096,-4.0096,-4.0096,-4.0096,-4.0096,-4.0096,-4.0079,-3.9994,-3.9977,-3.9943,-3.9859,-3.9859,0.0,-3.9977,-3.9317,-3.887,-3.887,-3.8108,-3.7324,-3.6584,-3.5915,-3.5227,-3.4496,-3.4479,-3.4186,-3.3582,-3.4211,-3.4479,-3.4503,-3.5184,-3.5515,0.0,0.0,0.0,0.0,0.0,0.0,0.0,0.0,0.0,0.0,0.0,0.0,0.0,0.0,0.0,-4.5259,-4.6322,-4.716,-4.7294,-4.6958,-4.63,-4.5192,-4.5024,-4.4642,-4.3598,-4.3504,-4.3929,-4.4978,-4.5024,-4.593,-4.8008,-4.8326,-4.8942,-5.0048,-5.108,-5.1343,-5.0799,-5.1028,-5.0785,-5.0084,-4.9492,0.0,-4.9001,-4.9001,-4.8612,-4.7855,-4.7276,-4.6515,-4.5652,-4.5043,-4.4733,-4.4615,-4.4767,-4.4733,-4.4615,-4.4615,-4.4615,-4.4615,-4.4615,-4.4615,-4.4615,-4.4615,-4.4615,-4.4615,-4.4615,-4.4615,0.0,-4.4615,-4.4615,-4.4242,-4.2692,-4.2286,-4.1914,-4.0451,-4.0096,-4.0096,-4.0096,-4.0096,-4.0096,-4.0096,-4.0096,-4.0096,-4.0096,-4.0096,-4.0096,-4.0096,-4.0096,-3.9893,-3.9276,-3.9208,-3.8971,-3.8396,-3.8328,-3.8565,-3.9157,-3.8531,-3.8125,-3.8125,-3.68,-3.5732,-3.5063,-3.4903,-3.4505,-3.3811,-3.3786,-3.3735,-3.3582,-3.3735,-3.3786,-3.3811,-3.4479,-3.5075,0.0,0.0,0.0,0.0,0.0,0.0,0.0,0.0,0.0,0.0,0.0,-4.315,-4.4167,0.0,-4.5918,-4.6247,-4.686,-4.7309,-4.7309,-4.7025,-4.6705,-4.6403,-4.6344,-4.6107,-4.5448,-4.5856,-4.6402,-4.7071,-4.7583,-4.8224,-4.9017,-4.9546,-4.9882,-5.0026,-5.1026,-5.1194,-5.0476,-5.0586,-5.0287,-4.9543,-4.9187,-4.9001,-4.8984,-4.8629,-4.8054,-4.731,-4.6566,-4.5821,-4.5111,-4.4767,-4.4615,-4.4615,-4.4615,-4.4615,-4.4615,-4.4615,-4.4615,-4.4615,-4.4615,-4.4615,-4.4615,-4.4615,-4.4615,-4.4615,-4.4615,-4.4615,-4.4615,-4.4615,-4.4299,-4.3741,-4.2591,-4.2016,-4.1457,-4.0367,-4.0096,-4.0096,-4.0096,-4.0096,-4.0096,-4.0096,-4.0096,-3.9994,-3.9622,-3.9554,-3.9554,-3.9554,-3.9554,-3.9276,-3.8531,-3.8447,-3.8311,-3.7939,-3.7905,-3.8058,-3.8413,-3.777,-3.7195,-3.6809,-3.5733,-3.48,-3.4137,-3.3786,-3.3443,-3.3119,-3.3093,-3.2906,-3.2555,-3.2906,-3.3093,-3.3119,-3.3443,-3.4137,0.0,0.0,0.0,0.0,0.0,0.0,0.0,-3.8543,-3.9827,-4.147,-4.289,-4.4366,-4.598,-4.6384,-4.6696,-4.7219,-4.7309,-4.7309,-4.7309,-4.6741,-4.6516,-4.7055,-4.7115,-4.7115,-4.7115,-4.7954,-4.8548,-4.8599,-4.9536,-4.9876,-4.9405,-5.0291,-5.0558,-5.0003,-5.0792,-5.0862,-5.0101,-5.0084,-4.9729,-4.9001,-4.9001,-4.9001,-4.8984,-4.8257,-4.7513,-4.6735,-4.5872,-4.5145,-4.4615,-4.4615,-4.4615,-4.4615,-4.4615,-4.4615,-4.4615,-4.4615,-4.4615,-4.4615,-4.4615,-4.4615,-4.4615,-4.4615,-4.4615,-4.4615,-4.4615,-4.4615,-4.4581,-4.4401,-4.391,-4.3217,-4.2303,-4.1644,-4.1018,-4.0282,-4.0096,-4.0096,-4.0096,-4.0096,-4.0096,-4.0096,-3.9994,-3.9706,-3.9089,-3.887,-3.8785,-3.8785,-3.8785,-3.8514,-3.7787,-3.7686,-3.7635,-3.7483,-3.7442,-3.7442,-3.7442,-3.6932,-3.6279,-3.5531,-3.4808,-3.4112,-3.3443,-3.2895,-3.2532,-3.2382,-3.2382,-3.2092,-3.1511,-3.2092,-3.2382,-3.2382,-3.2382,-3.3103,-3.7719,-3.7878,-3.813,-3.9157,-3.8225,-3.7538,0.0,-4.0478,-4.1542,-4.2306,-4.4343,-4.601,-4.6249,-4.68,-4.7219,-4.7294,-4.7309,-4.7309,-4.7309,-4.6741,-4.6309,-4.6384,-4.6384,-4.6384,-4.6384,-4.7036,-4.7549,-4.7812,-4.855,-4.9189,-4.963,-5.0366,-5.0869,-5.1023,-5.1153,-5.0862,-5.0101,-5.0084,-4.9729,-4.9001,-4.9001,-4.9001,-4.8984,-4.8257,-4.7513,-4.6718,-4.5343,-4.4682,-4.4615,-4.4615,-4.4615,-4.4615,-4.4615,-4.4615,-4.4615,-4.4615,-4.4615,-4.4615,-4.4615,-4.4615,-4.4615,-4.4615,-4.4615,-4.4615,-4.4615,-4.4615,-4.4462,-4.3741,-4.346,-4.3071,-4.1694,-4.1271,-4.1018,-4.0282,-4.0096,-4.0096,-4.0096,-4.0096,-4.0096,-4.0096,-3.9571,-3.9089,-3.9005,-3.8464,-3.8024,-3.8024,-3.8024,-3.7753,-3.7032,-3.6931,-3.6637,-3.5921,-3.5853,-3.5853,-3.5853,-3.5835,-3.5514,-3.4765,-3.4086,-3.3417,-3.2749,-3.2641,-3.2299,-3.164,-3.1611,-3.1582,-3.1511,-3.1582,-3.1611,-3.1611,-3.1611,-3.2379,-3.7979,-3.7928,-3.7801,-3.8082,-3.7401,-3.6772,-3.7216,-3.8259,-3.9706,-4.1713,-4.3531,-4.5152,-4.6612,-4.7115,-4.7309,-4.7309,-4.7309,-4.7309,-4.7309,-4.6396,-4.5873,-4.6234,-4.5978,-4.5873,-4.6249,-4.7455,-4.8212,-4.8341,-4.936,-5.0061,-5.0336,-5.0358,-5.044,-5.0574,-5.0152,-4.9779,-4.9458,-4.9458,-4.9306,-4.9001,-4.9001,-4.8781,-4.8311,-4.7597,-4.6616,-4.5495,-4.4886,-4.4615,-4.4615,-4.4615,-4.4615,-4.4615,-4.4615,-4.4615,-4.4615,-4.4615,-4.4615,-4.4615,-4.4615,-4.4615,-4.4615,-4.4615,-4.4615,-4.4615,-4.4615,-4.4615,-4.4345,-4.3115,-4.2439,-4.1788,-4.0247,-3.9532,-3.9265,-3.9372,-3.9394,-3.9516,-3.9995,-4.0096,-3.9977,-3.9529,-3.9208,-3.8717,-3.7879,-3.7472,-3.7094,-3.6614,-3.6958,-3.6975,-3.6197,-3.6096,-3.5977,-3.5633,-3.56,-3.543,-3.5052,-3.5041,-3.4611,-3.3495,-3.3156,-3.2707,-3.1979,-3.1951,-3.1824,-3.1511,-3.1511,-3.1511,-3.1511,-3.1511,-3.1511,-3.1511,-3.1511,-3.1824,-3.8127,-3.7937,-3.752,-3.7728,-3.7025,-3.6297,-3.621,-3.7059,-3.8519,-4.0993,-4.2644,-4.4312,-4.6586,-4.704,-4.71,-4.7279,-4.7309,-4.7309,-4.7309,-4.6142,-4.5544,-4.6204,-4.5723,-4.5559,-4.6204,-4.7399,-4.8317,-4.8894,-4.9861,-5.0577,-5.0902,-5.059,-5.0304,-5.0101,-4.9373,-4.9001,-4.9001,-4.9001,-4.9001,-4.9001,-4.8798,-4.8426,-4.7855,-4.6938,-4.5788,-4.4615,-4.4615,-4.4615,-4.4615,-4.4615,-4.4615,-4.4615,-4.4615,-4.4615,-4.4615,-4.4615,-4.4615,-4.4615,-4.4615,-4.4615,-4.4615,-4.4615,-4.4615,-4.4615,-4.4615,-4.4305,-4.368,-4.2381,-4.1321,-4.0266,-3.894,-3.819,-3.7921,-3.8469,-3.8608,-3.8761,-3.9332,-3.9313,-3.908,-3.8737,-3.8353,-3.7811,-3.6928,-3.6616,-3.6276,-3.5695,-3.5942,-3.6047,-3.5645,-3.56,-3.5515,-3.5339,-3.5316,-3.5052,-3.4382,-3.4161,-3.3633,-3.2668,-3.241,-3.2064,-3.1524,-3.1511,-3.1511,-3.1511,-3.1511,-3.1511,-3.1511,-3.1511,-3.1511,-3.1511,-3.1511,-3.1511,-3.7952,-3.7636,-3.725,-3.9093,-3.791,-3.6595,-3.774,-3.8562,-3.9373,-4.0591,-4.2303,-4.4182,-4.599,-4.6309,-4.6561,-4.7204,-4.7309,-4.7309,-4.7309,-4.6142,-4.5544,-4.6204,-4.5723,-4.5559,-4.6204,-4.6337,-4.718,-4.9146,-4.9363,-4.9955,-5.1138,-5.1168,-5.0845,-5.0101,-4.9373,-4.9001,-4.9001,-4.9001,-4.9001,-4.9001,-4.8291,-4.7906,-4.7838,-4.6413,-4.5314,-4.4615,-4.4615,-4.4615,-4.4615,-4.4615,-4.4615,-4.4615,-4.4615,-4.4615,-4.4615,-4.4615,-4.4615,-4.4615,-4.4615,-4.4615,-4.4615,-4.4615,-4.4615,-4.4615,-4.4615,-4.3545,-4.2216,-4.1448,-4.0147,-3.879,-3.8014,-3.7838,-3.7822,-3.7822,-3.7835,-3.7835,-3.7863,-3.7375,-3.7098,-3.7703,-3.6726,-3.598,-3.6605,-3.6107,-3.5637,-3.561,-3.5068,-3.4887,-3.5515,-3.56,-3.5362,-3.4712,-3.4624,-3.4358,-3.3684,-3.3039,-3.2641,-3.2586,-3.1938,-3.1524,-3.1511,-3.1511,-3.1511,-3.1511,-3.1511,-3.1511,-3.1511,-3.1511,-3.1511,-3.1511,-3.1511,-3.1511,-3.6576,-3.6765,-3.6971,-3.7737,-3.7373,-3.6845,-3.6875,-3.6819,-3.7371,-3.9758,-4.1042,-4.2565,-4.5149,-4.6022,-4.6354,-4.6621,-4.7025,-4.7309,-4.7309,-4.6531,-4.6217,-4.689,-4.6381,-4.6247,-4.692,-4.6576,-4.7031,-4.884,-4.8787,-4.9321,-5.0854,-5.0639,-5.0355,-5.0101,-4.9373,-4.9001,-4.9001,-4.9001,-4.9001,-4.8984,-4.7767,-4.7175,-4.7124,-4.5635,-4.4852,-4.4615,-4.4615,-4.4615,-4.4615,-4.4615,-4.4615,-4.4542,-4.3977,-4.3756,-4.3651,-4.3092,-4.2862,-4.3031,-4.4196,-4.4615,-4.4615,-4.4615,-4.4196,-4.3756,-4.3756,-4.266,-4.1168,-3.9909,-3.884,-3.781,-3.6599,-3.6258,-3.6399,-3.6889,-3.6994,-3.716,-3.769,-3.7614,-3.739,-3.7121,-3.6322,-3.5631,-3.5362,-3.471,-3.4279,-3.4284,-3.4471,-3.4503,-3.4301,-3.4276,-3.4202,-3.3962,-3.3937,-3.3659,-3.2986,-3.2722,-3.2382,-3.1894,-3.164,-3.1511,-3.1511,-3.1511,-3.1511,-3.1511,-3.1511,-3.1511,-3.1511,-3.1511,-3.1511,-3.1511,-3.1511,-3.1511,-3.6689,-3.7083,-3.7499,-3.8125,-3.7966,-3.7641,-3.7494,-3.6887,-3.7105,-3.9659,-4.0308,-4.1326,-4.4377,-4.5125,-4.5499,-4.6217,-4.6681,-4.704,-4.7279,-4.6741,-4.6576,-4.7234,-4.6726,-4.6576,-4.7234,-4.6795,-4.714,-4.8833,-4.9111,-4.9733,-5.0872,-5.0656,-5.0371,-5.0101,-4.9373,-4.9001,-4.9001,-4.9001,-4.8748,-4.8206,-4.7242,-4.6515,-4.5974,-4.5038,-4.4615,-4.4615,-4.4615,-4.4615,-4.4587,-4.4253,-4.4138,-4.4064,-4.3169,-4.2847,-4.2785,-4.2221,-4.1997,-4.2157,-4.329,-4.3663,-4.3663,-4.3663,-4.329,-4.2798,-4.2537,-4.1383,-3.9929,-3.8699,-3.7665,-3.6699,-3.5756,-3.5504,-3.5619,-3.6086,-3.6196,-3.6352,-3.686,-3.6778,-3.6543,-3.6326,-3.5542,-3.4845,-3.4597,-3.4245,-3.3862,-3.3609,-3.3934,-3.4043,-3.364,-3.3582,-3.3521,-3.3261,-3.3235,-3.296,-3.2272,-3.2203,-3.2007,-3.1524,-3.1511,-3.1511,-3.1511,-3.1511,-3.1511,-3.1511,-3.1511,-3.1511,-3.1511,-3.1511,-3.1511,-3.1511,-3.1511,-3.1511,-3.7978,-3.8336,-3.8665,-3.9949,-3.9455,-3.8802,-3.9391,-3.8636,-3.8366,-4.0137,-4.0023,-4.0517,-4.3592,-4.3763,-4.4062,-4.5963,-4.6337,-4.6606,-4.7264,-4.6785,-4.6606,-4.7234,-4.6756,-4.6621,-4.7249,-4.7007,-4.7458,-4.9132,-5.0203,-5.0873,-5.1119,-5.115,-5.0811,-5.005,-4.9357,-4.9001,-4.9001,-4.8968,-4.824,-4.6853,-4.6769,-4.6007,-4.4666,-4.4632,-4.4615,-4.4615,-4.4542,-4.4542,-4.4485,-4.3591,-4.3229,-4.3139,-4.2252,-4.1933,-4.1933,-4.1869,-4.1869,-4.1869,-4.1869,-4.1933,-4.1997,-4.1997,-4.1933,-4.1757,-4.1118,-3.9834,-3.8442,-3.7824,-3.6619,-3.5504,-3.5504,-3.5504,-3.5504,-3.5504,-3.5504,-3.5504,-3.5504,-3.4996,-3.4726,-3.5385,-3.4442,-3.3743,-3.4352,-3.449,-3.4311,-3.3593,-3.3465,-3.3481,-3.3545,-3.3511,-3.3235,-3.2614,-3.2532,-3.2272,-3.1553,-3.1511,-3.1511,-3.1511,-3.1511,-3.1511,-3.1511,-3.1511,-3.1511,-3.1511,-3.1511,-3.1511,-3.1511,-3.1511,-3.1511,-3.1511,-3.1511,-3.1511,-3.6924,-3.7557,-3.8059,-3.8393,-3.8225,-3.8078,-3.8237,-3.7749,-3.7671,-3.8975,-3.9459,-4.0112,-4.182,-4.3195,-4.4407,-4.5394,-4.6396,-4.7279,-4.7938,-4.7474,-4.7115,-4.7279,-4.716,-4.7115,-4.7294,-4.7862,-4.8285,-4.8403,-4.8942,-4.9576,-5.0357,-5.0371,-5.0033,-4.9306,-4.9103,-4.9001,-4.9001,-4.8477,-4.8003,-4.7614,-4.6515,-4.5788,-4.5399,-4.4869,-4.4615,-4.457,-4.3902,-4.3621,-4.3562,-4.2676,-4.2316,-4.2252,-4.1379,-4.1046,-4.0946,-4.0289,-4.006,-4.006,-4.006,-4.0894,-4.1997,-4.1997,-4.1212,-4.0249,-4.0077,-3.8648,-3.7023,-3.6857,-3.6195,-3.5504,-3.5504,-3.5504,-3.5504,-3.5504,-3.5504,-3.5504,-3.5504,-3.537,-3.5295,-3.5474,-3.4816,-3.413,-3.3819,-3.3758,-3.3711,-3.3532,-3.3079,-3.276,-3.2781,-3.2353,-3.1964,-3.1796,-3.1768,-3.1682,-3.1511,-3.1511,-3.1511,-3.1511,-3.1511,-3.1511,-3.1511,-3.1511,-3.1511,-3.1511,-3.1511,-3.1511,-3.1511,-3.1511,-3.1511,-3.1511,-3.1511,-3.1511,-3.7594,-3.8216,-3.8509,-3.8509,-3.8509,-3.8509,-3.8509,-3.8307,-3.8356,-3.9326,-3.9519,-3.9906,-4.1151,-4.2521,-4.3763,-4.4706,-4.5992,-4.7115,-4.7758,-4.7534,-4.7309,-4.7309,-4.7309,-4.7309,-4.7309,-4.7649,-4.776,-4.7507,-4.8806,-4.9643,-4.963,-4.9532,-4.9154,-4.8418,-4.7982,-4.7637,-4.734,-4.7295,-4.6982,-4.636,-4.59,-4.5534,-4.5196,-4.438,-4.4035,-4.3977,-4.3108,-4.2724,-4.2645,-4.1804,-4.1445,-4.1346,-4.0466,-4.0115,-4.008,-3.9574,-3.9388,-3.9388,-3.9388,-4.0025,-4.0876,-4.0876,-4.0072,-3.9066,-3.8776,-3.7679,-3.6432,-3.6133,-3.5789,-3.5504,-3.5504,-3.5504,-3.5504,-3.5504,-3.5504,-3.5504,-3.5504,-3.5504,-3.5415,-3.5115,-3.4773,-3.4294,-3.3604,-3.3739,-3.3918,-3.3918,-3.3365,-3.2946,-3.2946,-3.2093,-3.1511,-3.1511,-3.1511,-3.1511,-3.1511,-3.1511,-3.1511,-3.1511,-3.1511,-3.1511,-3.1511,-3.1511,-3.1511,-3.1511,-3.1511,-3.1511,-3.1511,-3.1511,-3.1511,-3.1511,-3.1511,-3.166,-3.8941,-3.9481,-3.9574,-3.9574,-3.9646,-3.9702,-3.961,-3.9574,-3.9703,-4.0179,-3.9813,-3.9768,-4.0905,-4.1841,-4.283,-4.4092,-4.5454,-4.6591,-4.7339,-4.7354,-4.7309,-4.7309,-4.7309,-4.7309,-4.7309,-4.6889,-4.6652,-4.6717,-4.8844,-4.9681,-4.8677,-4.8448,-4.8079,-4.7423,-4.6627,-4.5872,-4.5202,-4.5847,-4.5567,-4.4422,-4.5068,-4.5053,-4.4412,-4.3651,-4.3246,-4.3078,-4.2221,-4.1836,-4.1772,-4.0894,-4.0535,-4.0466,-3.9702,-3.9388,-3.9388,-3.9388,-3.9388,-3.9388,-3.9388,-3.9388,-3.9388,-3.9388,-3.8901,-3.8153,-3.7584,-3.6926,-3.6237,-3.5669,-3.5504,-3.5504,-3.5504,-3.5504,-3.5504,-3.5504,-3.5504,-3.5504,-3.5504,-3.5504,-3.5325,-3.4758,-3.4638,-3.4459,-3.3858,-3.4233,-3.4638,-3.4638,-3.4053,-3.3589,-3.3499,-3.2318,-3.1511,-3.1511,-3.1511,-3.1511,-3.1511,-3.1511,-3.1511,-3.1511,-3.1511,-3.1511,-3.1511,-3.1511,-3.1511,-3.1511,-3.1511,-3.1511,-3.1511,-3.1511,-3.1511,-3.1511,-3.1511,-3.1854,-3.9075,-3.9935,-4.0466,-4.0466,-4.1028,-4.1346,-4.0622,-4.0466,-4.0305,-3.9688,-3.9499,-3.9448,-3.9709,-4.119,-4.283,-4.4092,-4.5454,-4.6741,-4.7938,-4.7653,-4.7309,-4.7309,-4.7309,-4.7309,-4.7309,-4.6761,-4.6466,-4.6669,-4.6616,-4.6618,-4.6692,-4.6652,-4.6582,-4.647,-4.6279,-4.5872,-4.5202,-4.4743,-4.448,-4.4375,-4.3935,-4.3648,-4.3532,-4.3366,-4.2909,-4.2157,-4.1297,-4.0912,-4.086,-3.999,-3.9646,-3.961,-3.9445,-3.9388,-3.9388,-3.9388,-3.9388,-3.9388,-3.9388,-3.9388,-3.9388,-3.9388,-3.8586,-3.7554,-3.7449,-3.6596,-3.5654,-3.5534,-3.5504,-3.5504,-3.5504,-3.5504,-3.5504,-3.5504,-3.5504,-3.5504,-3.5504,-3.5504,-3.5474,-3.5355,-3.5325,-3.5295,-3.5175,-3.525,-3.5325,-3.5325,-3.4741,-3.4144,-3.3559,-3.2318,-3.1511,-3.1511,-3.1511,-3.1511,-3.1511,-3.1511,-3.1511,-3.1511,-3.1511,-3.1511,-3.1511,-3.1511,-3.1511,-3.1511,-3.1511,-3.1511,-3.1511,-3.1511,-3.1511,-3.1511,-3.1511,-3.1854,-3.9104,-4.006,-4.069,-4.069,-4.1379,-4.1676,-4.046,-4.0461,-4.0358,-3.9143,-3.917,-3.9388,-3.9388,-4.0756,-4.2201,-4.315,-4.4407,-4.5738,-4.707,-4.6995,-4.692,-4.7264,-4.7309,-4.7174,-4.683,-4.6187,-4.5691,-4.5454,-4.4825,-4.4955,-4.6134,-4.5726,-4.5232,-4.4728,-4.4675,-4.4233,-4.3231,-4.3318,-4.306,-4.2477,-4.2588,-4.2614,-4.2614,-4.2157,-4.1739,-4.128,-4.0413,-4.0025,-3.999,-3.9574,-3.9388,-3.9388,-3.9388,-3.9388,-3.9388,-3.9388,-3.9388,-3.9388,-3.9388,-3.9388,-3.9388,-3.9388,-3.8512,-3.7404,-3.7404,-3.6522,-3.5504,-3.5504,-3.5504,-3.5504,-3.5504,-3.5504,-3.5504,-3.5504,-3.5504,-3.5504,-3.5504,-3.5504,-3.5504,-3.5504,-3.5504,-3.5504,-3.5504,-3.5504,-3.5504,-3.5504,-3.4622,-3.3844,-3.3529,-3.2318,-3.1511,-3.1511,-3.1511,-3.1511,-3.1511,-3.1511,-3.1511,-3.1511,-3.1511,-3.1511,-3.1511,-3.1511,-3.1511,-3.1511,-3.1511,-3.1511,-3.1511,-3.1511,-3.1511,-3.1511,-3.1511,-3.2049,-3.9177,-4.006,-4.069,-4.069,-4.1511,-4.1821,-4.0088,-4.0362,-4.0489,-3.8757,-3.8931,-3.9388,-3.9388,-4.0382,-4.1467,-4.2276,-4.3344,-4.4575,-4.607,-4.6279,-4.6576,-4.7234,-4.7309,-4.7055,-4.6396,-4.5693,-4.502,-4.4362,-4.3663,-4.3974,-4.5509,-4.4893,-4.4105,-4.3329,-4.329,-4.2701,-4.1384,-4.2071,-4.1822,-4.0724,-4.1412,-4.1739,-4.1707,-4.1013,-4.0588,-4.0363,-3.9702,-3.9388,-3.9388,-3.9388,-3.9388,-3.9388,-3.9388,-3.9388,-3.9388,-3.9388,-3.9388,-3.9388,-3.9388,-3.9388,-3.9388,-3.9388,-3.8512,-3.7404,-3.7404,-3.6522,-3.5504,-3.5504,-3.5504,-3.5504,-3.5504,-3.5504,-3.5504,-3.5504,-3.5504,-3.5504,-3.5504,-3.5504,-3.5504,-3.5504,-3.5504,-3.5504,-3.5504,-3.5504,-3.5504,-3.5504,-3.4472,-3.3649,-3.3514,-3.2437,-3.166,-3.1525,-3.1511,-3.1511,-3.1511,-3.1511,-3.1511,-3.1511,-3.1511,-3.1511,-3.1511,-3.1511,-3.1511,-3.1511,-3.1511,-3.1511,-3.1511,-3.1511,-3.1511,-3.1511,-3.1645,-3.2377,-3.9373,-4.006,-4.069,-4.069,-4.1965,-4.2559,-4.0236,-4.0842,-4.1207,-3.8881,-3.8931,-3.9388,-3.9388,-4.0008,-4.0905,-4.2186,-4.2955,-4.4067,-4.601,-4.6279,-4.6576,-4.7234,-4.7309,-4.7055,-4.6396,-4.5693,-4.502,-4.4362,-4.3663,-4.3369,-4.3551,-4.3472,-4.3409,-4.329,-4.329,-4.2701,-4.1384,-4.1483,-4.124,-4.069,-4.0792,-4.0811,-4.0826,-4.0758,-4.0274,-3.9517,-3.9409,-3.9388,-3.9388,-3.9388,-3.9388,-3.9388,-3.9388,-3.9388,-3.9388,-3.9388,-3.9388,-3.9388,-3.9388,-3.9388,-3.9388,-3.9388,-3.8512,-3.7404,-3.7404,-3.6522,-3.5504,-3.5504,-3.5504,-3.5504,-3.5504,-3.5504,-3.5504,-3.5504,-3.5504,-3.5504,-3.5504,-3.5504,-3.5504,-3.5504,-3.5504,-3.5504,-3.5504,-3.5504,-3.5504,-3.5504,-3.4861,-3.4204,-3.3574,-3.2871,-3.2168,-3.157,-3.1511,-3.1511,-3.1511,-3.1511,-3.1511,-3.1511,-3.1511,-3.1511,-3.1511,-3.1511,-3.1511,-3.1511,-3.1511,-3.1511,-3.1511,-3.1511,-3.1511,-3.1511,-3.2108,-3.2811,-3.9305,-4.006,-4.069,-4.069,-4.1324,-4.1432,-3.9529,-3.9871,-4.0068,-3.8189,-3.8661,-3.9388,-3.9388,-3.9634,-4.0247,-4.1587,-4.1983,-4.2851,-4.484,-4.5125,-4.5514,-4.6591,-4.6711,-4.6441,-4.5768,-4.5454,-4.4855,-4.3768,-4.3439,-4.329,-4.329,-4.329,-4.315,-4.2761,-4.2746,-4.2117,-4.0801,-4.0786,-4.0491,-3.992,-3.992,-3.992,-3.992,-3.992,-3.9737,-3.9388,-3.9388,-3.9388,-3.9388,-3.9388,-3.9388,-3.9388,-3.9388,-3.9388,-3.9388,-3.9388,-3.9388,-3.9388,-3.9388,-3.9155,-3.8871,-3.929,-3.8257,-3.6926,-3.73,-3.6522,-3.5504,-3.5504,-3.5504,-3.5504,-3.5504,-3.5504,-3.5504,-3.5504,-3.5504,-3.5504,-3.5504,-3.5504,-3.5504,-3.5504,-3.5504,-3.5504,-3.5504,-3.5504,-3.5504,-3.5504,-3.4921,-3.4414,-3.4159,-3.3155,-3.2392,-3.2123,-3.1735,-3.1511,-3.1511,-3.1511,-3.1511,-3.1511,-3.1511,-3.1511,-3.1511,-3.1511,-3.1511,-3.1511,-3.1511,-3.1511,-3.1511,-3.1511,-3.1511,-3.1525,-3.2183,-3.2871,-3.899,-3.9713,-4.0309,-4.0309,-4.0636,-4.045,-3.8699,-3.9177,-3.9496,-3.7775,-3.8482,-3.9388,-3.9388,-3.9388,-3.9783,-4.0905,-4.125,-4.2013,-4.3793,-4.4197,-4.4736,-4.5888,-4.6022,-4.5753,-4.5065,-4.4825,-4.4332,-4.3364,-4.329,-4.329,-4.329,-4.315,-4.2836,-4.241,-4.2216,-4.1572,-4.0412,-4.0397,-4.0068,-3.9388,-3.9388,-3.9388,-3.9388,-3.9388,-3.9388,-3.9388,-3.9388,-3.9388,-3.9388,-3.9388,-3.9388,-3.9388,-3.9388,-3.9388,-3.9388,-3.9388,-3.9388,-3.9388,-3.9388,-3.9095,-3.8781,-3.926,-3.8212,-3.6851,-3.7285,-3.6522,-3.5504,-3.5504,-3.5504,-3.5504,-3.5504,-3.5504,-3.5504,-3.5504,-3.5504,-3.5504,-3.5504,-3.5504,-3.5504,-3.5504,-3.5504,-3.5504,-3.5504,-3.5504,-3.5504,-3.5504,-3.4921,-3.4503,-3.4503,-3.332,-3.2512,-3.2512,-3.1899,-3.1511,-3.1511,-3.1511,-3.1511,-3.1511,-3.1511,-3.1511,-3.1511,-3.1511,-3.1511,-3.1511,-3.1511,-3.1511,-3.1511,-3.1511,-3.16,-3.1809,-3.2467,-3.326,-3.8407,-3.8901,-3.9409,-3.9409,-4.0045,-4.013,-3.7929,-3.9123,-4.0066,-3.7865,-3.8482,-3.9388,-3.9388,-3.9388,-3.9634,-4.0307,-4.095,-4.1848,-4.321,-4.3928,-4.4556,-4.5229,-4.5304,-4.505,-4.4392,-4.3693,-4.3305,-4.329,-4.329,-4.329,-4.329,-4.2716,-4.241,-4.2396,-4.1767,-4.107,-4.0412,-4.0397,-4.0068,-3.9388,-3.9388,-3.9388,-3.9388,-3.9388,-3.9388,-3.9388,-3.9388,-3.9388,-3.9388,-3.9388,-3.9388,-3.9388,-3.9388,-3.9388,-3.9388,-3.9388,-3.9388,-3.9388,-3.9388,-3.9388,-3.9373,-3.9388,-3.8512,-3.7404,-3.7404,-3.6522,-3.5504,-3.5504,-3.5504,-3.5504,-3.5504,-3.5504,-3.5504,-3.5504,-3.5504,-3.5504,-3.5504,-3.5504,-3.5504,-3.5504,-3.5504,-3.5504,-3.5504,-3.5504,-3.5504,-3.5504,-3.4921,-3.4503,-3.4503,-3.332,-3.2512,-3.2512,-3.1899,-3.1511,-3.1511,-3.1511,-3.1511,-3.1511,-3.1511,-3.1511,-3.1511,-3.1511,-3.1511,-3.1511,-3.1511,-3.1511,-3.1511,-3.1511,-3.1839,-3.2527,-3.3185,-3.4203,-3.8433,-3.8633,-3.8847,-3.9409,-3.9325,-3.8942,-3.8237,-3.8622,-3.8942,-3.8237,-3.8796,-3.9388,-3.9388,-3.9388,-3.9783,-4.0891,-4.125,-4.1848,-4.3165,-4.3484,-4.3883,-4.4541,-4.4631,-4.4541,-4.4332,-4.3678,-4.329,-4.329,-4.329,-4.3135,-4.2701,-4.2081,-4.1737,-4.1737,-4.1055,-4.0397,-3.9738,-3.9723,-3.9634,-3.9388,-3.9388,-3.9388,-3.9388,-3.9388,-3.9388,-3.9388,-3.9388,-3.9388,-3.9388,-3.9388,-3.9388,-3.9388,-3.9388,-3.9388,-3.9388,-3.9388,-3.9388,-3.9388,-3.9388,-3.911,-3.8721,-3.8721,-3.7838,-3.6776,-3.6776,-3.6178,-3.5504,-3.5504,-3.5504,-3.5504,-3.5504,-3.5504,-3.5504,-3.5504,-3.5504,-3.5504,-3.5504,-3.5504,-3.5504,-3.5504,-3.5504,-3.5504,-3.5504,-3.5504,-3.5504,-3.5504,-3.5325,-3.5175,-3.5175,-3.4397,-3.3679,-3.323,-3.2572,-3.1989,-3.154,-3.1511,-3.1511,-3.1511,-3.1511,-3.1511,-3.1511,-3.1511,-3.1511,-3.1511,-3.1511,-3.1511,-3.1511,-3.1959,-3.2766,-3.3858,-3.4068,-3.4651,-3.8023,-3.8556,-3.898,-3.9179,-3.9027,-3.872,-3.8147,-3.8407,-3.8706,-3.8437,-3.8931,-3.9388,-3.9388,-3.9388,-3.9694,-4.0502,-4.0846,-4.1384,-4.2447,-4.2806,-4.321,-4.3868,-4.3902,-4.3902,-4.3902,-4.3544,-4.329,-4.329,-4.3105,-4.2895,-4.2746,-4.1639,-4.113,-4.1407,-4.0502,-3.9828,-3.9388,-3.9388,-3.9388,-3.9388,-3.9388,-3.9388,-3.9388,-3.9388,-3.9388,-3.9388,-3.9388,-3.9388,0.0,-3.9388,-3.9388,-3.9388,-3.9388,-3.9388,-3.9388,-3.9388,-3.9388,-3.9388,-3.9388,-3.896,-3.8392,-3.8392,-3.7524,-3.6432,-3.6193,-3.5833,-3.5504,-3.5504,-3.5504,-3.5504,-3.5504,-3.5504,-3.5504,-3.5504,-3.5504,-3.5504,-3.5504,-3.5504,-3.5504,-3.5504,-3.5504,-3.5504,-3.5504,-3.5504,-3.5504,-3.5504,-3.5504,-3.5504,-3.5504,-3.4906,-3.4354,-3.3903,-3.3051,-3.2318,-3.1914,-3.1645,-3.1511,-3.1511,-3.1511,-3.1511,-3.1511,-3.1511,-3.163,-3.1869,-3.1869,-3.1989,-3.2243,-3.2931,-3.3679,-3.4518,-3.4773,-3.51,0.0,-3.8529,-3.9423,-3.8757,-3.9071,-3.9158,-3.7846,-3.8527,0.0,-3.8601,-3.8975,-3.9388,-3.9388,-3.9388,-3.9439,-3.9448,-3.9993,-4.0651,-4.1354,-4.2051,-4.2656,-4.3215,-4.329,-4.329,-4.329,-4.329,-4.329,-4.329,-4.2776,-4.2656,-4.3125,-4.1459,-4.0711,-4.122,-4.0053,-3.9388,-3.9388,-3.9388,-3.9388,-3.9388,-3.9388,-3.9388,-3.9388,-3.9388,-3.9388,-3.9388,-3.9388,-3.9388,-3.9388,-3.9388,-3.9388,-3.9388,-3.9388,-3.9388,-3.9388,-3.9388,-3.9388,-3.9388,-3.9388,-3.896,-3.8377,-3.8287,-3.7419,-3.6297,-3.5684,-3.5504,-3.5504,-3.5504,-3.5504,-3.5504,-3.5504,-3.5504,-3.5504,-3.5504,-3.5504,-3.5504,-3.5504,-3.5504,-3.5504,-3.5504,-3.5504,-3.5504,-3.5504,-3.5504,-3.5504,-3.5504,-3.5504,-3.5504,-3.5504,-3.4951,-3.4563,-3.4518,-3.338,-3.2632,-3.2587,-3.1914,-3.1511,-3.1511,-3.1511,-3.1525,-3.157,-3.157,-3.1884,-3.2572,-3.2557,-3.2901,-3.3559,-3.4219,-3.4533,-3.4593,-3.5205,-3.5504,-3.6954,0.0,-3.7506,-3.8373,-3.8653,-3.8727,0.0,-3.9149,-3.9379,-3.9215,-3.9305,-3.9388,-3.9388,-3.9388,-3.9589,-4.0083,-4.0307,-4.0801,-4.2006,-4.2701,-4.3125,-4.3275,-4.329,-4.329,-4.329,-4.329,-4.329,-4.329,-4.3155,-4.2731,-4.1878,-4.1399,-4.0756,-3.9903,-3.9574,-3.9388,-3.9388,-3.9388,-3.9388,-3.9388,-3.9388,-3.9388,-3.9388,-3.9388,-3.9388,-3.9388,-3.9388,-3.9388,-3.9388,-3.9388,-3.9388,-3.9388,-3.9388,-3.9388,-3.9388,-3.9388,-3.9388,-3.9388,-3.9388,-3.896,-3.8227,-3.7255,-3.6387,-3.5714,-3.5549,-3.5504,-3.5504,-3.5504,-3.5504,-3.5504,-3.5504,-3.5504,-3.5504,-3.5504,-3.5504,-3.5504,-3.5504,-3.5504,-3.5504,-3.5504,-3.5504,-3.5504,-3.5504,-3.5504,-3.5504,-3.5504,-3.5504,-3.5504,-3.5504,-3.537,-3.5055,-3.4563,-3.4234,-3.3814,-3.3305,-3.2168,-3.1511,-3.1511,-3.1511,-3.1735,-3.2228,-3.2243,-3.2587,-3.3245,-3.326,-3.3589,-3.4279,-3.4429,-3.4741,-3.5265,-3.5429,-3.5504,-3.6196,-3.6828,-3.7635,-3.8054,-3.8542,-3.8864,-3.8537,-3.8736,-3.8856,-3.8556,-3.8497,-3.8586,-3.8886,-3.8945,-3.917,-3.9843,-3.9948,-4.0412,-4.1767,-4.2476,-4.3,-4.326,-4.329,-4.329,-4.329,-4.329,-4.329,-4.329,-4.3045,-4.2581,-4.1916,-4.1265,-4.0606,-3.9888,-3.9574,-3.9388,-3.9388,-3.9388,-3.9388,-3.9388,-3.9388,-3.9388,-3.9388,-3.9388,-3.9388,-3.9388,-3.9388,-3.9388,-3.9388,-3.9388,-3.9388,-3.9388,-3.9388,-3.9388,-3.9388,-3.9388,-3.9388,-3.9379,-3.905,-3.8317,-3.7345,-3.6357,-3.5804,-3.5504,-3.5504,-3.5504,-3.5504,-3.5504,-3.5504,-3.5504,-3.5504,-3.5504,-3.5504,-3.5504,-3.5504,-3.5504,-3.5504,-3.5504,-3.5504,-3.5504,-3.5504,-3.5504,-3.5504,-3.5504,-3.5504,-3.5504,-3.5504,-3.5504,-3.5504,-3.5504,-3.5355,-3.4996,-3.4666,-3.4354,-3.3978,-3.3021,-3.2437,-3.2437,-3.2437,-3.2587,-3.2946,-3.2961,-3.3275,-3.3933,-3.4262,-3.4592,-3.4951,-3.4951,-3.5145,-3.5504,-3.5504,-3.5504,-3.5624,-3.7076,-3.8401,-3.7746,-3.8492,-3.9122,-3.7981,-3.8063,-3.8227,-3.7674,-3.7554,-3.7734,-3.8287,-3.8482,-3.8766,-3.9454,-3.9738,-4.0247,-4.1407,-4.2126,-4.2716,-4.323,-4.329,-4.329,-4.329,-4.329,-4.329,-4.329,-4.2731,-4.2351,-4.2246,-4.1055,-4.0352,-4.0247,-3.9709,-3.9388,-3.9388,-3.9388,-3.9388,-3.9388,-3.9388,-3.9388,-3.9388,-3.9388,-3.9388,-3.9388,-3.9388,-3.9388,-3.9388,-3.9388,-3.9388,-3.9388,-3.9388,-3.9388,-3.9388,-3.9388,-3.9388,-3.9305,-3.8512,-3.7464,-3.6372,-3.5714,-3.5504,-3.5504,-3.5504,-3.5504,-3.5504,-3.5504,-3.5504,-3.5504,-3.5504,-3.5504,-3.5504,-3.5504,-3.5504,-3.5504,-3.5504,-3.5504,-3.5504,-3.5504,-3.5504,-3.5504,-3.5504,-3.5504,-3.5504,-3.5504,-3.5504,-3.5504,-3.5504,-3.5504,-3.5504,-3.5504,-3.4981,-3.4668,-3.4668,-3.4128,-3.3799,-3.3799,-3.3604,-3.3544,-3.3649,-3.3739,-3.4068,-3.4653,-3.5205,-3.5504,-3.5504,-3.5504,-3.5504,-3.5504,-3.5504,-3.5504,-3.6178,-3.6977,-3.7597,-3.7477,-3.8015,-3.8672,-3.9041,-3.8736,-3.8362,-3.8257,-3.8242,-3.8272,-3.8362,-3.8871,-3.9484,-4.0142,-4.119,-4.2021,-4.2216,-4.2776,-4.3185,-4.329,-4.329,-4.329,-4.329,-4.329,-4.329,-4.329,-4.2731,-4.2156,-4.1602,-4.0816,-4.0142,-3.9553,-3.9433,-3.9388,-3.9388,-3.9388,-3.9388,-3.9388,-3.9388,-3.9388,-3.9388,-3.9388,-3.9388,-3.9388,-3.9388,-3.9388,-3.9388,-3.9388,-3.9388,-3.9388,-3.9388,-3.9388,-3.9388,-3.9388,-3.9388,-3.9209,-3.7988,-3.709,-3.6372,-3.5714,-3.5504,-3.5504,-3.5504,-3.5504,-3.5504,-3.5504,-3.5504,-3.5504,-3.5504,-3.5504,-3.5504,-3.5504,-3.5504,-3.5504,-3.5504,-3.5504,-3.5504,-3.5504,-3.5504,-3.5504,-3.5504,-3.5504,-3.5504,-3.5504,-3.5504,-3.5504,-3.5504,-3.5504,-3.5504,-3.5504,-3.5415,-3.5355,-3.5355,-3.525,-3.519,-3.519,-3.4128,-3.3739,-3.4339,-3.4891,-3.525,-3.534,-3.5444,-3.5504,-3.5504,-3.5504,-3.5504,-3.5504,-3.5504,-3.5504,-3.5878,-3.627,-3.6611,-3.6611,-3.778,-3.8931,-3.8871,-3.8616,-3.8287,-3.7928,-3.7853,-3.7973,-3.8317,-3.896,-3.9753,-4.0771,-4.1482,-4.1991,-4.2351,-4.2626,-4.294,-4.3245,-4.329,-4.329,-4.329,-4.329,-4.314,-4.2836,-4.2575,-4.1961,-4.0905,-4.0561,-4.0098,-3.9403,-3.9388,-3.9388,-3.9388,-3.9388,-3.9388,-3.9388,-3.9388,-3.9388,-3.9388,-3.9388,-3.9388,-3.9388,-3.9388,-3.9388,-3.9388,-3.9388,-3.9388,-3.9388,-3.9388,-3.9388,-3.9388,-3.9388,-3.896,-3.8242,-3.7614,-3.6776,-3.5908,-3.5609,-3.5504,-3.5504,-3.5504,-3.5504,-3.5504,-3.5504,-3.5504,-3.5504,-3.5504,-3.5504,-3.5504,-3.5504,-3.5504,-3.5504,-3.5504,-3.5504,-3.5504,-3.5504,-3.5504,-3.5504,-3.5504,-3.5504,-3.5504,-3.5504,-3.5504,-3.5504,-3.5504,-3.5504,-3.5504,-3.5504,-3.5504,-3.5504,-3.5504,-3.5504,-3.5504,-3.5504,-3.4921,-3.4711,-3.5026,-3.534,-3.5504,-3.5504,-3.5504,-3.5504,-3.5504,-3.5504,-3.5504,-3.5504,-3.5504,-3.5504,-3.5459,-3.5575,-3.5719,-3.5863,-3.7208,-3.8377,-3.8157,-3.776,-3.7449,-3.7464,-3.7371,-3.7416,-3.794,-3.869,-3.9661,-4.0819,-4.1375,-4.1871,-4.253,-4.262,-4.2776,-4.3245,-4.329,-4.323,-4.312,-4.3105,-4.2836,-4.2216,-4.2036,-4.1459,-4.0442,-4.0247,-3.9933,-3.9439,-3.9388,-3.9388,-3.9388,-3.9388,-3.9388,-3.9388,-3.9388,-3.9388,-3.9388,-3.9388,-3.9388,-3.9388,-3.9388,-3.9388,-3.9388,-3.9388,-3.9388,-3.9388,-3.9388,-3.9388,-3.9388,-3.9388,-3.8571,-3.7404,-3.7404,-3.6582,-3.5504,-3.5504,-3.5504,-3.5504,-3.5504,-3.5504,-3.5504,-3.5504,-3.5504,-3.5504,-3.5504,-3.5504,-3.5504,-3.5504,-3.5504,-3.5504,-3.5504,-3.5504,-3.5504,-3.5504,-3.5504,-3.5504,-3.5504,-3.5504,-3.5504,-3.5504,-3.5504,-3.5504,-3.5504,-3.5504,-3.5504,-3.5504,-3.5504,-3.5504,-3.5504,-3.5504,-3.5504,-3.5504,-3.5504,-3.5504,-3.5504,-3.5504,-3.5504,-3.5504,-3.5504,-3.5504,-3.5504,-3.5504,-3.5504,-3.5504,-3.5504,-3.5594,-3.5325,-3.5305,-3.5214,-3.5841,-3.5829,-3.5972,-3.6964,-3.5881,-3.5279,-3.7266,-3.7247,-3.6865,-3.6909,-3.7971,-3.9093,-3.9812,-4.1253,-4.256,-4.3125,-4.323,-4.3245,-4.329,-4.329,-4.309,-4.253,-4.247,-4.2201,-4.1542,-4.0891,-4.0502,-4.0412,-3.9828,-3.9433,-3.9388,-3.9388,-3.9388,-3.9388,-3.9388,-3.9388,-3.9388,-3.9388,-3.9388,-3.9388,-3.9388,-3.9388,-3.9388,-3.9388,-3.9388,-3.9388,-3.9388,-3.9388,-3.9388,-3.9388,-3.9388,-3.9388,-3.9388,-3.8571,-3.7404,-3.7404,-3.6582,-3.5504,-3.5504,-3.5504,-3.5504,-3.5504,-3.5504,-3.5504,-3.5504,-3.5504,-3.5504,-3.5504,-3.5504,-3.5504,-3.5504,-3.5504,-3.5504,-3.5504,-3.5504,-3.5504,-3.5504,-3.5504,-3.5504,-3.5504,-3.5504,-3.5504,-3.5504,-3.5504,-3.5504,-3.5504,-3.5504,-3.5504,-3.5504,-3.5504,-3.5504,-3.5504,-3.5504,-3.5504,-3.5504,-3.5504,-3.5504,-3.5504,-3.5504,-3.5504,-3.5504,-3.5504,-3.5504,-3.5504,-3.5504,-3.5504,-3.5504,-3.5504,-3.5833,-3.4681,-3.4901,-3.4859,-3.4488,-3.4393,-3.467,-3.5804,-3.577,-3.5776,-3.6598,-3.6578,-3.6575,-3.6968,-3.747,-3.8044,-3.8704,-3.9365,-3.9851,-4.0094,-4.0122,-4.038,-4.105,-4.1105,-4.1308,-4.1735,-4.1796,-4.1512,-4.0816,-4.0531,-4.0217,-3.9813,-3.9559,-3.9388,-3.9388,-3.9388,-3.9388,-3.9388,-3.9388,-3.9388,-3.9388,-3.9388,-3.9388,-3.9388,-3.9388,-3.9388,-3.9388,-3.9388,-3.9388,-3.9388,-3.9388,-3.9388,-3.9388,-3.9388,-3.9388,-3.9364,-3.8931,-3.8197,-3.736,-3.6971,-3.6252,-3.5504,-3.5504,-3.5504,-3.5504,-3.5504,-3.5504,-3.5504,-3.5504,-3.5504,-3.5504,-3.5504,-3.5504,-3.5504,-3.5504,-3.5504,-3.5504,-3.5504,-3.5504,-3.5504,-3.5504,-3.5504,-3.5504,-3.5504,-3.5504,-3.5504,-3.5504,-3.5504,-3.5504,-3.5504,-3.5504,-3.5504,-3.5504,-3.5504,-3.5504,-3.5504,-3.5504,-3.5504,-3.5504,-3.5504,-3.5504,-3.5504,-3.5504,-3.5504,-3.5504,-3.5504,-3.5504,-3.5504,-3.5504,-3.5714,-3.6118,-3.6118,-3.6447,-3.4038,-3.4402,-3.4418,-3.3595,-3.3446,-3.3648,-3.4245,-3.466,-3.513,-3.5818,-3.5831,-3.5871,-3.6347,-3.6429,-3.662,-3.7249,-3.7635,-3.7965,-3.8145,-3.8214,-3.8461,-3.9207,-3.9581,-4.0012,-4.0509,-4.0904,-4.0801,-4.0142,-4.0083,-3.9888,-3.9403,-3.9388,-3.9388,-3.9388,-3.9388,-3.9388,-3.9388,-3.9388,-3.9388,-3.9388,-3.9388,-3.9388,-3.9388,-3.9388,-3.9388,-3.9388,-3.9388,-3.9388,-3.9388,-3.9388,-3.9388,-3.9388,-3.9388,-3.9388,-3.9328,-3.8886,-3.8153,-3.7345,-3.6926,-3.6222,-3.5534,-3.5744,-3.5669,-3.5549,-3.5744,-3.5669,-3.5504,-3.5504,-3.5504,-3.5504,-3.5504,-3.5504,-3.5504,-3.5504,-3.5504,-3.5504,-3.5504,-3.5504,-3.5504,-3.5504,-3.5504,-3.5504,-3.5504,-3.5504,-3.5504,-3.5504,-3.5504,-3.5504,-3.5504,-3.5504,-3.5504,-3.5504,-3.5504,-3.5504,-3.5504,-3.5504,-3.5504,-3.5504,-3.5504,-3.5504,-3.5504,-3.5504,-3.5504,-3.5504,-3.5504,-3.5609,-3.5818,-3.5818,-3.6148,-3.6776,-3.6776,-3.712,-3.3484,-3.3745,-3.3917,-3.3484,-3.3098,-3.2711,-3.2285,-3.2215,-3.2853,-3.5044,-3.5059,-3.4664,-3.4664,-3.4664,-3.489,-3.5471,-3.6455,-3.7385,-3.8076,-3.8159,-3.8159,-3.8159,-3.9112,-3.9495,-3.8861,-3.974,-4.0113,-3.9433,-3.9388,-3.9388,-3.9388,-3.9388,-3.9388,-3.9388,-3.9388,-3.9388,-3.9388,-3.9388,-3.9388,-3.9373,-3.9373,-3.9373,-3.9388,-3.9373,-3.9373,-3.9373,-3.9373,-3.9394,-3.9394,-3.9394,-3.9394,-3.9394,-3.9373,-3.9373,-3.9394,-3.9373,-3.8556,-3.7404,-3.7404,-3.6567,-3.5609,-3.6267,-3.6028,-3.5624,-3.6282,-3.6028,-3.5504,-3.5504,-3.5504,-3.5504,-3.5504,-3.5504,-3.5504,-3.5504,-3.5504,-3.5504,-3.5504,-3.5504,-3.5504,-3.5504,-3.5504,-3.5504,-3.5504,-3.5504,-3.5504,-3.5504,-3.5504,-3.5504,-3.5504,-3.5504,-3.5504,-3.5504,-3.5504,-3.5504,-3.5504,-3.5504,-3.5504,-3.5504,-3.5504,-3.5504,-3.5504,-3.5504,-3.5504,-3.5504,-3.5519,-3.5833,-3.6492,-3.6492,-3.6806,-3.7419,-3.7404,-3.7764,-3.2811,-3.3568,-3.4083,-3.303,-3.3666,-3.415,-3.2568,-3.2528,-3.3033,-3.3692,-3.3671,-3.3556,-3.3556,-3.3556,-3.3649,-3.3815,-3.4126,-3.4377,-3.4588,-3.4614,-3.4897,-3.5664,-3.6021,-3.6709,-3.7964,-3.8382,-3.8788,-3.9352,-3.9388,-3.9388,-3.9388,-3.9388,-3.9388,-3.9388,-3.9388,-3.9388,-3.9388,-3.9388,-3.917,-3.8691,-3.8691,-3.8945,-3.9373,-3.8916,-3.8691,-3.8676,-3.8212,-3.8003,-3.8003,-3.8003,-3.8003,-3.8048,-3.8512,-3.8422,-3.8063,-3.8527,-3.7883,-3.6761,-3.6761,-3.6207,-3.5534,-3.5729,-3.5669,-3.5549,-3.5744,-3.5669,-3.5504,-3.5504,-3.5504,-3.5504,-3.5504,-3.5504,-3.5504,-3.5504,-3.5504,-3.5504,-3.5504,-3.5504,-3.5504,-3.5504,-3.5504,-3.5504,-3.5504,-3.5504,-3.5504,-3.5504,-3.5504,-3.5504,-3.5504,-3.5504,-3.5504,-3.5504,-3.5504,-3.5504,-3.5504,-3.5504,-3.5504,-3.5504,-3.5504,-3.5504,-3.5504,-3.5504,-3.5504,-3.5504,-3.5953,-3.6297,-3.6492,-3.6492,-3.7045,-3.8078,-3.7629,-3.8018,-3.3559,-3.4472,-3.5133,-3.4406,-3.4766,-3.4826,-3.2982,-3.283,-3.3124,-3.3124,-3.3124,-3.3124,-3.3124,-3.3124,-3.3124,-3.3124,-3.3124,-3.3124,-3.3124,-3.3124,-3.3356,-3.3995,-3.4428,-3.5183,-3.645,-3.7319,-3.8069,-3.8708,-3.9141,-3.9388,-3.9388,-3.9388,-3.9388,-3.9388,-3.9388,-3.9388,-3.9388,-3.9388,-3.9065,-3.8392,-3.8392,-3.8467,-3.8601,-3.8197,-3.8003,-3.7973,-3.7584,-3.7404,-3.7404,-3.7404,-3.7404,-3.7449,-3.7838,-3.7764,-3.7464,-3.7853,-3.736,-3.6492,-3.6492,-3.6058,-3.5549,-3.5804,-3.5714,-3.5549,-3.5818,-3.5714,-3.5504,-3.5504,-3.5504,-3.5504,-3.5504,-3.5504,-3.5504,-3.5504,-3.5504,-3.5504,-3.5504,-3.5504,-3.5504,-3.5504,-3.5504,-3.5504,-3.5504,-3.5504,-3.5504,-3.5504,-3.5504,-3.5504,-3.5504,-3.5504,-3.5504,-3.5504,-3.5504,-3.5504,-3.5504,-3.5504,-3.5504,-3.5504,-3.5504,-3.5504,-3.5504,-3.5504,-3.5504,-3.5504,-3.5751,-3.6196,-3.6851,-3.6699,-3.7366,-3.8796,-3.8392,-3.8646,-3.4996,-3.5848,-3.645,-3.6678,-3.5991,-3.4871,-3.3555,-3.3154,-3.3124,-3.3124,-3.3124,-3.3124,-3.3124,-3.3124,-3.3124,-3.3124,-3.3124,-3.3124,-3.3124,-3.3124,-3.3124,-3.3124,-3.3953,-3.4594,-3.4705,-3.6411,-3.7601,-3.7791,-3.8708,-3.9301,-3.9388,-3.9328,-3.9334,-3.9334,-3.9275,-3.9209,-3.9209,-3.9209,-3.8886,-3.8212,-3.8212,-3.7868,-3.724,-3.73,-3.7285,-3.724,-3.724,-3.724,-3.724,-3.724,-3.724,-3.724,-3.73,-3.7285,-3.7255,-3.736,-3.6985,-3.6402,-3.6462,-3.6058,-3.5609,-3.6207,-3.5998,-3.5609,-3.6207,-3.5983,-3.5504,-3.5504,-3.5504,-3.5504,-3.5504,-3.5504,-3.5504,-3.5504,-3.5504,-3.5504,-3.5504,-3.5504,-3.5504,-3.5504,-3.5504,-3.5504,-3.5504,-3.5504,-3.5504,-3.5504,-3.5504,-3.5534,-3.5594,-3.5549,-3.5534,-3.5594,-3.5549,-3.5504,-3.5504,-3.5504,-3.5504,-3.5504,-3.5504,-3.5504,-3.5504,-3.5504,-3.5504,-3.5504,-3.5156,-3.5732,-3.7267,-3.6852,-3.7491,-3.9104,-3.9045,-3.9133,-3.3844,-3.4801,-3.5781,-3.602,-3.5471,-3.4751,-3.4444,-3.3713,-3.3124,-3.3124,-3.3124,-3.3124,-3.3124,-3.3124,-3.3124,-3.3124,-3.3124,-3.3124,-3.3124,-3.3124,-3.3124,-3.3124,-3.3313,-3.3755,-3.4622,-3.5102,-3.6055,-3.7677,-3.7994,-3.8509,-3.9337,-3.8901,-3.8616,-3.8616,-3.8108,-3.7838,-3.7838,-3.7838,-3.7524,-3.6896,-3.6896,-3.6552,-3.5938,-3.6447,-3.6402,-3.5908,-3.5908,-3.5908,-3.5908,-3.5908,-3.5908,-3.5968,-3.6492,-3.6372,-3.6043,-3.7045,-3.6686,-3.5789,-3.6312,-3.6058,-3.5534,-3.5669,-3.5624,-3.5534,-3.5669,-3.5609,-3.5504,-3.5504,-3.5504,-3.5504,-3.5504,-3.5504,-3.5504,-3.5504,-3.5504,-3.5504,-3.5504,-3.5504,-3.5504,-3.5504,-3.5504,-3.5504,-3.5504,-3.5504,-3.5504,-3.5504,-3.5504,-3.5684,-3.6207,-3.5833,-3.5699,-3.6222,-3.5804,-3.5504,-3.5504,-3.5504,-3.5504,-3.5504,-3.5504,-3.5504,-3.5504,-3.5504,-3.5504,-3.5504,-3.5613,-3.5848,-3.6207,-3.5808,-3.607,-3.6877,-3.6413,-3.6888,-3.4356,-3.5415,-3.648,-3.6729,-3.6493,-3.5935,-3.4951,-3.4275,-3.3713,-3.3197,-3.3124,-3.3124,-3.3124,-3.3124,-3.3124,-3.3124,-3.3124,-3.3124,-3.3124,-3.3124,-3.3124,-3.3124,-3.3124,-3.3313,-3.3869,-3.4387,-3.5142,-3.6213,-3.6944,-3.7699,-3.8568,-3.8189,-3.8063,-3.8377,-3.7749,-3.7404,-3.7404,-3.7404,-3.7105,-3.6492,-3.6492,-3.6148,-3.5519,-3.5863,-3.5833,-3.5504,-3.5504,-3.5504,-3.5504,-3.5504,-3.5504,-3.5534,-3.5878,-3.5804,-3.5594,-3.6252,-3.6073,-3.5549,-3.5893,-3.5789,-3.5504,-3.5504,-3.5504,-3.5504,-3.5504,-3.5504,-3.5504,-3.5504,-3.5504,-3.5504,-3.5504,-3.5504,-3.5504,-3.5504,-3.5504,-3.5504,-3.5504,-3.5504,-3.5504,-3.5504,-3.5504,-3.5504,-3.5504,-3.5504,-3.5504,-3.5504,-3.5774,-3.6103,-3.6447,-3.6447,-3.6552,-3.6881,-3.6626,-3.6297,-3.5998,-3.5968,-3.5833,-3.5534,-3.5504,-3.5504,-3.5504,-3.5804,-3.5606,-3.4806,-3.5011,-3.515,-3.5173,-3.5071,-3.5422,-3.6184,-3.5894,-3.648,-3.5165,-3.6352,-3.7481,-3.7842,-3.787,-3.7357,-3.5615,-3.5102,-3.4664,-3.3586,-3.324,-3.3124,-3.3124,-3.3124,-3.3124,-3.3124,-3.3124,-3.3124,-3.3124,-3.2993,-3.2968,-3.3111,-3.2993,-3.3011,-3.3111,-3.3911,-3.4472,-3.4559,-3.5629,-3.665,-3.7445,-3.7187,-3.7307,-3.8048,-3.7419,-3.7075,-3.7075,-3.7075,-3.6821,-3.6312,-3.6312,-3.6028,-3.5504,-3.5504,-3.5504,-3.5504,-3.5504,-3.5504,-3.5504,-3.5504,-3.5504,-3.5504,-3.5504,-3.5504,-3.5504,-3.5504,-3.5504,-3.5504,-3.5504,-3.5504,-3.5504,-3.5504,-3.5504,-3.5504,-3.5504,-3.5504,-3.5504,-3.5504,-3.5504,-3.5504,-3.5504,-3.5504,-3.5504,-3.5504,-3.5504,-3.5504,-3.5504,-3.5504,-3.5504,-3.5504,-3.5504,-3.5504,-3.5504,-3.5504,-3.5504,-3.5504,-3.6073,-3.6522,-3.6626,-3.709,-3.7449,-3.7569,-3.7479,-3.721,-3.6686,-3.6656,-3.6417,-3.5863,-3.5833,-3.5833,-3.5833,-3.6357,-3.594,-3.4358,-3.4435,-3.4406,-3.4265,-3.4379,-3.4856,-3.5654,-3.5654,-3.6225,-3.4457,-3.6004,-3.755,-3.8176,-3.8069,-3.7715,-3.7434,-3.6671,-3.5708,-3.4705,-3.3755,-3.3124,-3.3124,-3.3124,-3.3124,-3.3124,-3.3124,-3.3124,-3.3124,-3.2641,-3.2516,-3.3061,-3.2641,-3.2528,-3.3074,-3.324,-3.3466,-3.3884,-3.4073,-3.4799,-3.6187,-3.5658,-3.5771,-3.6731,-3.6103,-3.5759,-3.5759,-3.5759,-3.5714,-3.5639,-3.5639,-3.5594,-3.5504,-3.5504,-3.5504,-3.5504,-3.5504,-3.5504,-3.5504,-3.5504,-3.5504,-3.5504,-3.5504,-3.5504,-3.5504,-3.5504,-3.5504,-3.5504,-3.5504,-3.5504,-3.5504,-3.5504,-3.5504,-3.5504,-3.5504,-3.5504,-3.5504,-3.5504,-3.5504,-3.5504,-3.5504,-3.5504,-3.5504,-3.5504,-3.5504,-3.5504,-3.5504,-3.5504,-3.5504,-3.5504,-3.5504,-3.5504,-3.5504,-3.5504,-3.5504,-3.5504,-3.6073,-3.6686,-3.721,-3.736,-3.7629,-3.8197,-3.7749,-3.7375,-3.73,-3.7285,-3.724,-3.7165,-3.7165,-3.7165,-3.7165,-3.724,-3.6783,-3.5761,-3.5363,-3.4728,-3.3807,-3.3489,-3.3398,-3.3501,-3.3501,-3.4108,-3.5447,-3.5976,-3.6671,-3.8048,-3.8267,-3.8077,-3.787,-3.742,-3.6813,-3.5748,-3.4733,-3.3797,-3.3197,-3.3124,-3.3124,-3.3124,-3.3124,-3.3124,-3.3124,-3.2579,-3.2303,-3.2554,-3.2365,-3.219,-3.2139,-3.2416,-3.2676,-3.2883,-3.3116,-3.392,-3.5531,-3.5189,-3.5403,-3.6477,-3.5848,-3.5504,-3.5504,-3.5504,-3.5504,-3.5504,-3.5504,-3.5504,-3.5504,-3.5504,-3.5504,-3.5504,-3.5504,-3.5504,-3.5504,-3.5504,-3.5504,-3.5504,-3.5504,-3.5504,-3.5504,-3.5504,-3.5504,-3.5504,-3.5504,-3.5504,-3.5504,-3.5504,-3.5504,-3.5504,-3.5504,-3.5504,-3.5504,-3.5504,-3.5504,-3.5504,-3.5504,-3.5504,-3.5504,-3.5504,-3.5504,-3.5504,-3.5504,-3.5504,-3.5609,-3.5983,-3.5759,-3.5624,-3.5998,-3.5744,-3.5504,-3.5504,-3.6073,-3.6716,-3.733,-3.7734,-3.8212,-3.8901,-3.8706,-3.8377,-3.7988,-3.7958,-3.7808,-3.7434,-3.7404,-3.7404,-3.7404,-3.7764,-3.721,-3.562,-3.5409,-3.4798,-3.3739,-3.3317,-3.3124,-3.3124,-3.3124,-3.367,-3.5669,-3.563,-3.5836,-3.7308,-3.8018,-3.8335,-3.8018,-3.8065,-3.7904,-3.6813,-3.6001,-3.5061,-3.3755,-3.3156,-3.2905,-3.3099,-3.2955,-3.2905,-3.3056,-3.2453,-3.2051,-3.219,-3.1976,-3.17,-3.1411,-3.1763,-3.2001,-3.2001,-3.2267,-3.3093,-3.4592,-3.4556,-3.5006,-3.6043,-3.5702,-3.5504,-3.5504,-3.5504,-3.5504,-3.5504,-3.5504,-3.5504,-3.5504,-3.5504,-3.5504,-3.5504,-3.5504,-3.5504,-3.5504,-3.5504,-3.5504,-3.5504,-3.5504,-3.5504,-3.5504,-3.5504,-3.5504,-3.5504,-3.5504,-3.5504,-3.5504,-3.5504,-3.5504,-3.5504,-3.5504,-3.5504,-3.5504,-3.5504,-3.5504,-3.5504,-3.5504,-3.5504,-3.5504,-3.5504,-3.5504,-3.5504,-3.5504,-3.5504,-3.5654,-3.6148,-3.5833,-3.5669,-3.6148,-3.5833,-3.5504,-3.5504,-3.6193,-3.6881,-3.7345,-3.8138,-3.8856,-3.9364,-3.9388,-3.9215,-3.8691,-3.8646,-3.8437,-3.7958,-3.7913,-3.7913,-3.7913,-3.8392,-3.7813,-3.5962,-3.5692,-3.4897,-3.3638,-3.3267,-3.3124,-3.3124,-3.3124,-3.3513,-3.3846,-3.4562,-3.5508,-3.5621,-3.703,-3.8392,-3.8351,-3.8874,-3.9017,-3.7956,-3.7677,-3.6996,-3.4979,-3.3335,-3.2441,-3.2993,-3.2616,-3.2453,-3.3006,-3.2127,-3.1625,-3.2152,-3.1311,-3.0884,-3.1348,-3.1411,-3.1436,-3.1436,-3.1439,-3.1901,-3.287,-3.3292,-3.3954,-3.4936,-3.5307,-3.5504,-3.5504,-3.5504,-3.5504,-3.5504,-3.5504,-3.5504,-3.5504,-3.5504,-3.5504,-3.5504,-3.5504,-3.5504,-3.5504,-3.5504,-3.5504,-3.5504,-3.5504,-3.5504,-3.5504,-3.5504,-3.5504,-3.5504,-3.5504,-3.5504,-3.5504,-3.5504,-3.5504,-3.5504,-3.5504,-3.5504,-3.5504,-3.5504,-3.5504,-3.5504,-3.5504,-3.5504,-3.5504,-3.5504,-3.5504,-3.5504,-3.5504,-3.5504,-3.5519,-3.5549,-3.5534,-3.5519,-3.5549,-3.5534,-3.5504,-3.5504,-3.6567,-3.7375,-3.7404,-3.8556,-3.9343,-3.9388,-3.9388,-3.9373,-3.9328,-3.9364,-3.9313,-3.932,-3.932,-3.932,-3.932,-3.9313,-3.8811,-3.7695,-3.6679,-3.5143,-3.3159,-3.3099,-3.3124,-3.3124,-3.3124,-3.3111,-3.481,-3.4545,-3.4424,-3.5278,-3.6025,-3.6641,-3.7075,-3.7988,-3.8525,-3.7709,-3.7339,-3.6618,-3.4826,-3.3807,-3.3057,-3.2605,-3.2353,-3.229,-3.2491,-3.2164,-3.1989,-3.219,-3.1876,-3.1574,-3.1399,-3.1712,-3.1763,-3.1411,-3.1386,-3.1642,-3.2252,-3.2986,-3.3687,-3.4318,-3.5071,-3.5504,-3.5504,-3.5504,-3.5504,-3.5504,-3.5504,-3.5504,-3.5504,-3.5504,-3.5504,-3.5504,-3.5504,-3.5504,-3.5504,-3.5504,-3.5504,-3.5504,-3.5504,-3.5504,-3.5504,-3.5504,-3.5504,-3.5504,-3.5504,-3.5504,-3.5504,-3.5504,-3.5504,-3.5504,-3.5504,-3.5504,-3.5504,-3.5504,-3.5504,-3.5504,-3.5504,-3.5311,-3.5033,-3.4775,-3.4732,-3.4732,-3.4732,-3.5477,-3.6252,-3.6641,-3.6402,-3.6133,-3.6133,-3.6133,-3.6133,-3.6133,-3.6866,-3.7569,-3.7988,-3.8452,-3.8931,-3.9328,-3.9388,-3.9388,-3.9388,-3.9388,-3.9388,-3.9388,-3.8745,-3.8383,-3.8383,-3.7701,-3.6852,-3.5815,-3.544,-3.4856,-3.4108,-3.3441,-3.3124,-3.3124,-3.3124,-3.3124,-3.5185,-3.4733,-3.4368,-3.5002,-3.534,-3.5691,-3.6349,-3.7135,-3.7689,-3.7464,-3.7181,-3.6563,-3.5156,-3.4391,-3.3608,-3.2415,-3.2215,-3.2277,-3.2466,-3.234,-3.2215,-3.2215,-3.2051,-3.1788,-3.1424,-3.1725,-3.1863,-3.1675,-3.1499,-3.161,-3.2031,-3.2617,-3.3265,-3.3973,-3.4986,-3.5504,-3.5504,-3.5504,-3.5504,-3.5504,-3.5504,-3.5504,-3.5504,-3.5504,-3.5504,-3.5504,-3.5504,-3.5504,-3.5504,-3.5504,-3.5504,-3.5504,-3.5504,-3.5504,-3.5504,-3.5504,-3.5504,-3.5504,-3.5504,-3.5504,-3.5504,-3.5504,-3.5504,-3.5504,-3.5504,-3.5504,-3.5504,-3.5504,-3.5669,-3.5753,-3.5392,-3.5001,-3.4621,-3.4361,-3.4293,-3.4348,-3.4592,-3.5504,-3.6419,-3.6817,-3.6856,-3.6791,-3.6791,-3.6791,-3.6791,-3.6791,-3.733,-3.7898,-3.8332,-3.8601,-3.8916,-3.9328,-3.9388,-3.9388,-3.9388,-3.9388,-3.9265,-3.8907,-3.8196,-3.7791,-3.7791,-3.6774,-3.5894,-3.521,-3.4856,-3.4511,-3.415,-3.3441,-3.3124,-3.3124,-3.3124,-3.3471,0.0,0.0,0.0,-3.4692,-3.4976,-3.563,-3.6288,-3.642,-3.663,-3.7195,-3.7345,-3.702,-3.6042,-3.5034,-3.391,-3.245,-3.2202,-3.2361,-3.2925,-3.2494,-3.2143,-3.2156,-3.1721,-3.1395,-3.1436,-3.1436,-3.165,-3.2177,-3.17,-3.1625,-3.2139,-3.2031,-3.2593,-3.3973,-3.4953,-3.5472,-3.5504,-3.5504,-3.5504,-3.5504,-3.5504,-3.5504,-3.5504,-3.5504,-3.5504,-3.5504,-3.5504,-3.5504,-3.5504,-3.5504,-3.5504,-3.5504,-3.5504,-3.5504,-3.5504,-3.5504,-3.5504,-3.5504,-3.5504,-3.5504,-3.5504,-3.5504,-3.5504,-3.5504,-3.5504,-3.5504,-3.5504,-3.5534,-3.5998,-3.6208,-3.5134,-3.4559,-3.4297,-3.4272,-3.4272,-3.4437,-3.5091,-3.5569,-3.5892,-3.5913,-3.6696,-3.74,-3.7419,-3.7419,-3.7434,-3.7404,-3.7988,-3.8407,-3.8357,-3.8955,-3.9337,-3.9337,-3.9337,-3.9337,-3.9388,-3.9337,-3.8855,-3.7866,-3.7753,-3.7715,-3.7753,-3.6735,-3.6172,-3.6172,-3.521,-3.415,-3.3124,-3.3124,-3.3124,-3.3124,-3.3111,-3.4249,-3.5362,0.0,0.0,0.0,0.0,0.0,-3.4412,-3.5079,-3.569,-3.5379,-3.5684,-3.5733,-3.4712,-3.4436,-3.3955,-3.2816,-3.1668,-3.0941,-3.1129,-3.059,-3.051,-3.136,-3.1371,-3.1601,-3.2519,-3.2616,-3.2503,-3.2227,-3.17,-3.1298,-3.1072,-3.128,-3.2196,-3.3959,-3.4279,-3.4758,-3.5504,-3.5504,-3.5504,-3.5504,-3.5504,-3.5504,-3.5504,-3.5504,-3.5504,-3.5504,-3.5504,-3.5504,-3.5504,-3.5504,-3.5504,-3.5504,-3.5504,-3.5504,-3.5504,-3.5504,-3.5504,-3.5504,-3.5504,-3.5504,-3.5504,-3.5504,-3.5504,-3.5504,-3.5504,-3.5504,-3.5609,-3.6088,-3.5794,-3.5152,-3.4244,-3.395,-3.3794,-3.3509,-3.3447,-3.3485,-3.3682,-3.4416,-3.5345,-3.6345,-3.6787,-3.7053,-3.7342,-3.7808,-3.7958,-3.7479,-3.8392,-3.868,-3.7397,-3.7812,-3.8234,-3.8234,-3.7534,-3.7724,-3.9265,-3.7965,-3.7291,-3.7753,-3.6411,-3.5882,-3.6604,-3.5682,-3.5129,-3.5129,-3.4815,-3.415,-3.3124,-3.3124,-3.3124,-3.3124,-3.3911,-3.5373,-3.56,-3.5299,-3.5024,-3.502,0.0,0.0,-3.4802,-3.5234,-3.555,-3.54,-3.5701,-3.5672,-3.4776,-3.4582,-3.445,-3.4149,-3.2342,-3.0948,-3.0767,-3.04,-3.0226,-3.0451,-3.0899,-3.15,-3.2239,-3.2797,-3.293,-3.2604,-3.2051,-3.1399,-3.0658,-3.0969,-3.1888,-3.338,-3.3808,-3.4461,-3.5504,-3.5504,-3.5504,-3.5504,-3.5504,-3.5504,-3.5504,-3.5504,-3.5504,-3.5504,-3.5504,-3.5504,-3.5504,-3.5504,-3.5504,-3.5504,-3.5504,-3.5504,-3.5504,-3.5504,-3.5504,-3.5504,-3.5504,-3.5504,-3.5504,-3.5504,-3.5504,-3.5504,-3.5504,-3.5699,-3.5998,-3.6372,-3.5811,-3.4938,-3.4273,-3.3779,-3.3386,-3.3164,-3.3124,-3.3124,-3.3124,-3.3598,-3.4517,-3.6221,-3.6887,-3.7411,-3.8126,-3.8571,-3.8691,-3.8302,-3.8527,-3.8362,-3.7347,-3.7192,-3.7137,-3.7137,-3.6565,-3.6721,-3.7965,-3.6916,-3.629,-3.6476,-3.5762,-3.5588,-3.6172,-3.5628,-3.5534,-3.5961,-3.5561,-3.5007,-3.4374,-3.3501,-3.3313,-3.3797,-3.5305,-3.6646,-3.5616,-3.56,-3.5599,-3.5604,-3.5159,0.0,-3.6211,-3.6027,-3.5728,-3.6265,-3.6395,-3.6199,-3.5524,-3.5066,-3.4963,-3.5468,-3.3589,-3.1858,-3.1268,-3.0977,-3.0406,-2.9315,-3.0135,-3.0899,-3.1178,-3.2239,-3.2939,-3.3081,-3.2541,-3.1738,-3.067,-3.0919,-3.1529,-3.2429,-3.3345,-3.4312,-3.5311,-3.5424,-3.5504,-3.5504,-3.5504,-3.5504,-3.5504,-3.5504,-3.5504,-3.5504,-3.5504,-3.5504,-3.5504,-3.5504,-3.5504,-3.5504,-3.5504,-3.5504,-3.5504,-3.5504,-3.5439,-3.5359,-3.5472,-3.5359,-3.5213,-3.5439,-3.5359,-3.5213,-3.5424,-3.5887,-3.6324,-3.6357,-3.5818,-3.5108,-3.4655,-3.3797,-3.3124,-3.3124,-3.3124,-3.3124,-3.3124,-3.3124,-3.367,-3.5654,-3.6891,-3.7979,-3.9177,-3.9388,-3.9322,-3.916,-3.8376,-3.7686,-3.7372,-3.6576,-3.6053,-3.6053,-3.5934,-3.5974,-3.6158,-3.6013,-3.5547,-3.4746,-3.544,-3.5974,-3.6198,-3.6198,-3.6682,-3.7791,-3.6735,-3.6198,-3.6198,-3.4332,-3.3995,-3.5102,-3.6919,-3.7866,-3.5769,-3.56,-3.5611,-3.5593,-3.5502,0.0,-3.507,-3.4906,-3.4837,-3.4962,-3.5002,-3.4928,-3.4733,-3.4373,-3.397,-3.3542,-3.3656,-3.3172,-3.1296,-2.9477,-2.8226,-2.8002,-2.8179,-2.9085,-3.0989,-3.14,-3.2008,-3.3025,-3.2541,-3.1738,-3.067,-3.0653,-3.0958,-3.1439,-3.2393,-3.331,-3.4279,-3.51,-3.5504,-3.5504,-3.5504,-3.5504,-3.5504,-3.5504,-3.5504,-3.5504,-3.5504,-3.5504,-3.5504,-3.5504,-3.5504,-3.5504,-3.5504,-3.5504,-3.5504,-3.5504,-3.4986,-3.4394,-3.5213,-3.4491,-3.3429,-3.5001,-3.4442,-3.3463,-3.5034,-3.5396,-3.5334,-3.5483,-3.5171,-3.46,-3.3645,-3.3283,-3.3124,-3.3124,-3.3124,-3.3124,-3.3124,-3.3124,-3.3471,-3.4746,-3.5828,-3.7123,-3.9053,-3.9388,-3.8911,-3.7506,-3.761,-3.702,-3.4765,-3.4807,-3.4979,-3.4979,-3.422,-3.4374,-3.6053,-3.4678,-3.3982,-3.4664,-3.4066,-3.4444,-3.6119,-3.6198,-3.6682,-3.7791,-3.6735,-3.6198,-3.6198,-3.5774,-3.6146,-3.7204,-3.7601,-3.8271,-3.5802,-3.56,-3.56,-3.56,-3.56,0.0,0.0,-3.5889,-3.6047,-3.6051,-3.6057,-3.5911,-3.5497,-3.5026,-3.4848,-3.5231,-3.4919,-3.4265,-3.3238,-3.1412,-2.9784,-2.8623,-2.8495,-2.8947,-3.0169,-3.0855,-3.1733,-3.2982,-3.2541,-3.1863,-3.1047,-3.0758,-3.0789,-3.1193,-3.1669,-3.2357,-3.3276,-3.3788,-3.4056,-3.4056,-3.4509,-3.4758,-3.4758,-3.5279,-3.5504,-3.5504,-3.5504,-3.5504,-3.5504,-3.5504,-3.5504,-3.5504,-3.5504,-3.5504,-3.5504,-3.5504,-3.4872,-3.4061,-3.4576,-3.3822,-3.2749,-3.3719,-3.3394,-3.2784,-3.3754,-3.4376,-3.4837,-3.554,-3.5264,-3.447,-3.3398,-3.3124,-3.3124,-3.3124,-3.3124,-3.3124,-3.3124,-3.3124,-3.3441,-3.4511,-3.5088,-3.6107,-3.8234,-3.8583,-3.8318,-3.742,-3.6708,-3.5746,-3.439,-3.4022,-3.3911,-3.3911,-3.3441,-3.3501,-3.4568,-3.37,-3.3313,-3.3869,-3.3911,-3.4568,-3.6132,-3.6721,-3.7496,-3.8583,-3.8055,-3.78,-3.78,-3.78,-3.7814,-3.7791,-3.8345,-3.8907,-3.5853,-3.56,-3.56,-3.56,-3.56,-3.5769,0.0,0.0,0.0,-3.7279,-3.7358,-3.7168,-3.629,-3.5824,-3.5862,-3.677,-3.5981,-3.523,-3.5195,-3.4423,-3.2713,-2.9735,-2.9444,-2.9557,-2.958,-3.0657,-3.1887,-3.3013,-3.2541,-3.1976,-3.1424,-3.0997,-3.0826,-3.0921,-3.1106,-3.1573,-3.2321,-3.25,-3.2593,-3.2593,-3.338,-3.3739,-3.3774,-3.4773,-3.5213,-3.5213,-3.5439,-3.5504,-3.5504,-3.5504,-3.5504,-3.5504,-3.5504,-3.5504,-3.5472,-3.5279,-3.4576,-3.3739,-3.3739,-3.2996,-3.2105,-3.25,-3.2593,-3.2621,-3.2731,-3.334,-3.4156,-3.529,-3.4902,-3.4022,-3.3148,-3.2993,-3.3124,-3.3124,-3.3124,-3.3124,-3.3124,-3.3124,-3.3441,-3.4511,-3.4705,-3.5292,-3.719,-3.751,-3.7434,-3.7242,-3.5775,-3.4622,-3.4428,-3.3641,-3.3124,-3.3124,-3.3124,-3.3124,-3.3124,-3.3124,-3.3124,-3.3124,-3.4108,-3.517,-3.6158,-3.742,-3.8509,-3.9388,-3.9388,-3.9388,-3.9388,-3.9388,-3.8943,-3.8144,-3.898,-3.9388,-3.5988,-3.56,-3.56,-3.56,-3.56,-3.5616,-3.5718,0.0,-3.653,-3.6537,0.0,-3.6878,-3.5711,0.0,0.0,-3.4195,-3.5422,-3.6185,-3.5232,-3.6535,-3.5497,-2.9887,-2.964,-3.0012,-3.0248,-3.1376,-3.2389,-3.3031,-3.2541,-3.1976,-3.1424,-3.1336,-3.0914,-2.9997,-3.0758,-3.1254,-3.1352,-3.2177,-3.2593,-3.2593,-3.2713,-3.2749,-3.2784,-3.3739,-3.4177,-3.4211,-3.51,-3.5504,-3.5504,-3.5504,-3.5504,-3.5504,-3.5504,-3.5504,-3.5392,-3.4509,-3.3567,-3.2749,-3.2749,-3.1586,-3.0394,-3.2083,-3.2593,-3.2704,-3.3301,-3.2915,-3.2429,-3.3169,-3.2953,-3.247,-3.2344,-3.2692,-3.3124,-3.3124,-3.3124,-3.3124,-3.3124,-3.3124,-3.3441,-3.4511,-3.4705,-3.5047,-3.6172,-3.6369,-3.6093,-3.5183,-3.4869,-3.4345,-3.3398,-3.3197,-3.3124,-3.3124,-3.3124,-3.3124,-3.3124,-3.3124,-3.3124,-3.3124,-3.4108,-3.517,-3.6158,-3.813,-3.9265,-3.9388,-3.9388,-3.9388,-3.9388,-3.9388,-3.9337,-3.9228,-3.9337,-3.9388,-3.5887,-3.56,-3.56,-3.56,-3.56,-3.56,-3.56,-3.6011,-3.6498,-3.6803,0.0,0.0,0.0,0.0,0.0,0.0,-3.5968,-3.6049,-3.6016,-3.6397,-3.5726,-3.3093,-3.2398,-3.1843,-3.1289,-3.1199,-3.1694,-3.2988,-3.2541,-3.2114,-3.1888,-3.1562,-3.1047,-3.0294,-3.0343,-3.0381,-3.0381,-3.0771,-3.0996,-3.0996,-3.1549,-3.1779,-3.1815,-3.2749,-3.3206,-3.3241,-3.4211,-3.461,-3.4691,-3.5246,-3.5504,-3.5504,-3.5504,-3.5504,-3.5392,-3.4361,-3.3415,-3.2522,-3.1997,-3.0921,-2.9934,-3.0709,-3.0996,-3.1266,-3.2809,-3.2514,-3.1911,-3.3133,-3.3098,-3.2641,-3.2303,-3.239,-3.2579,-3.2579,-3.2328,-3.219,-3.2503,-3.3088,-3.3734,-3.4556,-3.517,-3.5708,-3.6132,-3.5708,-3.521,-3.4746,-3.415,-3.3598,-3.3154,-3.3124,-3.3124,-3.3124,-3.3124,-3.3124,-3.3124,-3.3124,-3.3124,-3.3124,-3.465,-3.6027,-3.7098,-3.8583,-3.9388,-3.9388,-3.9388,-3.9388,-3.9388,-3.9388,-3.9388,-3.9388,-3.9388,-3.9388,-3.5802,-3.56,-3.56,-3.56,-3.56,-3.56,-3.56,-3.6011,-3.6571,-3.7165,-3.7529,0.0,0.0,0.0,-3.7293,-3.7494,0.0,-3.6431,-3.6945,-3.6577,-3.602,-3.5421,-3.4477,-3.3393,-3.2164,-3.134,-3.1403,-3.2737,-3.2303,-3.2051,-3.2202,-3.1687,-3.1148,-3.0633,-3.008,-2.9792,-2.9792,-2.9792,-2.9792,-2.9792,-3.0482,-3.0833,-3.0833,-3.1792,-3.2213,-3.2285,-3.3206,-3.3774,-3.4061,-3.4791,-3.5246,-3.5504,-3.5504,-3.5504,-3.5359,-3.4075,-3.3206,-3.2429,-3.1217,-3.0381,-2.9818,-3.0113,-2.9998,-3.0188,-3.2136,-3.2016,-3.141,-3.2574,-3.2803,-3.2478,-3.1926,-3.1876,-3.2026,-3.2177,-3.1901,-3.1807,-3.2488,-3.3226,-3.4046,-3.5076,-3.5622,-3.6097,-3.6576,-3.5561,-3.4705,-3.4705,-3.3797,-3.3124,-3.3124,-3.3124,-3.3124,-3.3124,-3.3124,-3.3124,-3.3124,-3.3124,-3.3356,-3.3898,-3.5628,-3.7137,-3.8182,-3.898,-3.9388,-3.9388,-3.9388,-3.9388,-3.9388,-3.9388,-3.9388,-3.9388,-3.9388,-3.9388,-3.5802,-3.56,-3.56,-3.56,-3.56,-3.56,-3.56,-3.6011,-3.6603,-3.7351,-3.8328,-3.9121,-3.9398,-3.9421,-3.8992,-3.7794,-3.7746,0.0,0.0,-3.7858,-3.7167,-3.5431,-3.4842,-3.4082,-3.2882,-3.2266,-3.2032,-3.2194,-3.1725,-3.165,-3.219,-3.1687,-3.1148,-3.0633,-3.008,-2.9792,-2.9792,-2.9792,-2.9792,-2.9792,-2.983,-2.9818,-2.9869,-3.0833,-3.1254,-3.1278,-3.2249,-3.3171,-3.3993,-3.4027,-3.461,-3.5504,-3.5504,-3.5504,-3.5279,-3.3359,-3.2629,-3.2357,-3.0508,-2.983,-2.9934,-3.0871,-3.052,-3.0073,-3.1562,-3.1384,-3.0645,-3.0698,-3.1087,-3.1323,-3.0809,-3.1035,-3.1549,-3.2089,-3.2202,-3.2469,-3.3455,-3.3685,-3.4299,-3.6344,-3.5967,-3.5833,-3.7448,-3.6055,-3.4705,-3.4705,-3.3797,-3.3124,-3.3124,-3.3124,-3.3124,-3.3124,-3.3124,-3.3124,-3.3124,-3.3124,-3.3982,-3.596,-3.7137,-3.8234,-3.9301,-3.9388,-3.9388,-3.9388,-3.9388,-3.9388,-3.9388,-3.9388,-3.9388,-3.9388,-3.9388,-3.9388,-3.5667,-3.56,-3.56,-3.56,-3.56,-3.56,-3.56,-3.5739,-3.619,-3.7262,-3.7801,-3.8335,-3.927,-3.9147,-3.8742,-3.8326,-3.8065,-3.7736,0.0,-3.7161,-3.7125,-3.6934,-3.5676,-3.4845,-3.4895,-3.3155,-3.2345,-3.312,-3.2097,-3.18,-3.2729,-3.1901,-3.1311,-3.1135,-3.0256,-2.9792,-2.9792,-2.9792,-2.9792,-2.9792,-2.9792,-2.9792,-2.9792,-3.0139,-3.0279,-3.0317,-3.1254,-3.2213,-3.3136,-3.3739,-3.4576,-3.5504,-3.5504,-3.5504,-3.5359,-3.3993,-3.3518,-3.3241,-3.1365,-3.0317,-2.9856,-3.0177,-3.0277,-3.0471,-3.1322,-3.1645,-3.1675,-3.1675,-3.18,-3.1888,-3.1725,-3.1537,-3.1537,-3.2077,-3.1938,-3.2038,-3.3459,-3.4325,-3.5349,-3.711,-3.775,-3.8171,-3.8752,-3.7677,-3.6292,-3.491,-3.4387,-3.3911,-3.3197,-3.3124,-3.3124,-3.3124,-3.3124,-3.3124,-3.3124,-3.3755,-3.5061,-3.7137,-3.7587,-3.8271,-3.9337,-3.9388,-3.9388,-3.9388,-3.8708,-3.8708,-3.9388,-3.7965,-3.7648,-3.8308,-3.761,-3.804,-3.56,-3.56,-3.56,-3.56,-3.56,-3.5667,-3.596,-3.6028,-3.6412,-3.7763,-3.818,-3.8651,-3.9729,-3.9647,-3.9339,-3.9079,-3.8612,-3.7939,0.0,-3.7252,-3.766,-3.7827,-3.6479,-3.5593,-3.5711,-3.3592,-3.2553,-3.3317,-3.2133,-3.1888,-3.3061,-3.219,-3.1599,-3.1399,-3.0545,-2.9993,-2.9792,-2.9792,-2.9792,-2.9792,-2.9792,-2.9792,-2.9792,-2.9792,-2.9792,-2.983,-3.0457,-3.1217,-3.2177,-3.3136,-3.4075,-3.4986,-3.5359,-3.5504,-3.5392,-3.4361,-3.3602,-3.282,-3.1609,-3.0595,-2.9792,-2.9792,-3.0168,-3.0708,-3.1235,-3.1775,-3.2215,-3.2215,-3.2215,-3.2177,-3.1976,-3.165,-3.1647,-3.2536,-3.2519,-3.2679,-3.4197,-3.5252,-3.6236,-3.7418,-3.8426,-3.9125,-3.9379,-3.8819,-3.7791,-3.6055,-3.5494,-3.4966,-3.429,-3.4207,-3.4207,-3.4207,-3.4207,-3.4207,-3.4207,-3.5183,-3.6371,-3.7715,-3.8144,-3.8671,-3.9373,-3.9388,-3.9228,-3.8819,-3.8144,-3.7942,-3.8256,-3.6877,-3.6565,-3.7214,-3.6526,-3.6916]},{"header":{"parameterUnit":"m.s-1","parameterCategory":1,"la1":30.6,"la2":29.2853,"lo1":-89.7004,"lo2":-87.6739,"dy":0.0162,"dx":0.0183,"nx":112,"ny":82,"refTime":"2026-05-20T12:00:00:Z","depth":0,"parameterNumber":3,"parameterNumberName":"V-component_of_WINDS"},"data":[0.0,0.0,0.0,0.0,0.0,0.0,0.0,0.0,0.0,0.0,0.0,0.0,0.0,0.0,0.0,0.0,0.0,0.0,0.0,0.0,0.0,0.0,0.0,0.0,0.0,0.0,0.0,0.0,0.0,0.0,0.0,0.0,0.0,0.0,0.0,0.0,0.0,0.0,0.0,0.0,0.0,0.0,0.0,0.0,0.0,0.0,0.0,0.0,0.0,0.0,0.0,0.0,0.0,0.0,0.0,0.0,0.0,0.0,0.0,0.0,0.0,0.0,0.0,0.0,0.0,0.0,0.0,0.0,0.0,0.0,0.0,0.0,0.0,0.0,0.0,0.0,0.0,0.0,0.0,0.0,0.0,0.0,0.0,0.0,0.0,0.0,0.0,0.0,0.0,0.0,0.8935,0.7606,0.4586,0.134,-0.2006,-0.2415,-0.313,-0.4633,0.0,0.0,0.0,0.0,0.0,0.0,0.0,0.0,0.0,0.0,0.0,0.0,0.0,0.0,0.0,0.0,0.0,0.0,0.0,0.0,0.0,0.0,0.0,0.0,0.0,0.0,0.0,0.0,0.0,0.0,0.0,0.0,0.0,0.0,0.0,0.0,0.0,0.0,0.0,0.0,0.0,0.0,0.0,0.0,0.0,0.0,0.0,0.0,0.0,0.0,0.0,0.0,0.0,0.0,0.0,0.0,0.0,0.0,0.0,0.0,0.0,0.0,0.0,0.0,0.0,0.0,0.0,0.0,0.0,0.0,0.0,0.0,0.0,0.0,0.0,0.0,0.0,0.0,0.0,0.0,0.0,0.0,0.0,0.0,0.0,0.0,0.0,0.0,0.0,0.0,0.0,0.0,0.0,0.0,0.0,0.0,0.0,0.0,0.0,0.0,0.0,0.0,0.0,0.0,0.9118,0.784,0.4707,0.1868,-0.0263,-0.1685,-0.3115,-0.4617,0.0,0.0,0.0,0.0,0.0,0.0,0.0,0.0,0.0,0.0,0.0,0.0,0.0,0.0,0.0,0.0,0.0,0.0,0.0,0.0,0.0,0.0,0.0,0.0,0.0,0.0,0.0,0.0,0.0,0.0,0.0,0.0,0.0,0.0,0.0,0.0,0.0,0.0,0.0,0.0,0.0,0.0,0.0,0.0,0.0,0.0,0.0,0.0,0.0,0.0,0.0,0.0,0.0,0.0,0.0,0.0,0.0,0.0,0.0,0.0,0.0,0.0,0.0,0.0,0.0,0.0,0.0,0.0,0.0,0.0,0.0,0.0,0.0,0.0,0.0,0.0,0.0,0.0,0.0,0.0,0.0,0.0,0.0,0.0,0.0,0.0,0.0,0.0,0.0,0.0,0.0,0.0,0.0,0.0,0.0,0.0,0.0,0.0,0.0,0.0,0.0,0.0,0.0,1.0298,0.9099,0.7714,0.6231,0.4244,0.1556,0.064,-0.0494,-0.2073,-0.1525,0.0,0.0,0.0,0.0,0.0,0.0,0.0,0.0,0.0,0.0,0.0,0.0,0.0,0.0,0.0,0.0,0.0,0.0,0.0,0.0,0.0,0.0,0.0,0.0,0.0,0.0,0.0,0.0,0.0,0.0,0.0,0.0,0.0,0.0,0.0,0.0,0.0,0.0,0.0,0.0,0.0,0.0,0.0,0.0,0.0,0.0,0.0,0.0,0.0,0.0,0.0,0.0,0.0,0.0,0.0,0.0,0.0,0.0,0.0,0.0,0.0,0.0,0.0,0.0,0.0,0.0,0.0,0.0,0.0,0.0,0.0,0.0,0.0,0.0,0.0,0.0,0.0,0.0,0.0,0.0,0.0,0.0,0.0,0.0,0.0,0.0,0.0,0.0,0.0,0.0,0.0,0.0,0.0,0.0,0.0,0.0,0.0,0.0,0.0,0.0,0.0,0.0,1.0528,0.9259,0.8179,0.7775,0.6536,0.3899,0.2958,0.1946,0.0688,0.0504,0.0,0.0,0.0,0.0,0.0,0.0,0.0,0.0,0.0,0.0,0.0,0.0,0.0,0.0,0.0,0.0,0.0,0.0,0.0,0.0,0.0,0.0,0.0,0.0,0.0,0.0,0.0,0.0,0.0,0.0,0.0,0.0,0.0,0.0,0.0,0.0,0.0,0.0,0.0,0.0,0.0,0.0,0.0,0.0,0.0,0.0,0.0,0.0,0.0,0.0,0.0,0.0,0.0,0.0,0.0,0.0,0.0,0.0,0.0,0.0,0.0,0.0,0.0,0.0,0.0,0.0,0.0,0.0,0.0,0.0,0.0,0.0,0.0,0.0,0.0,0.0,0.0,0.0,0.0,0.0,0.0,0.0,0.0,0.0,0.0,0.0,0.0,0.0,0.0,0.0,0.0,0.0,0.0,0.0,0.0,0.0,0.0,0.0,0.0,0.0,0.0,0.0,1.0534,1.0017,1.0116,0.8597,0.7529,0.7238,0.4351,0.2423,0.236,0.201,0.0,0.0,0.0,0.0,0.0,0.0,0.0,0.0,0.0,0.0,0.0,0.0,0.0,0.0,0.0,0.0,0.0,0.0,0.0,0.0,0.0,0.0,0.0,0.0,0.0,0.0,0.0,0.0,0.0,0.0,0.0,0.0,0.0,0.0,0.0,0.0,0.0,0.0,0.0,0.0,0.0,0.0,0.0,0.0,0.0,0.0,0.0,0.0,0.0,0.0,0.0,0.0,0.0,0.0,0.0,0.0,0.0,0.0,0.0,0.0,0.0,0.0,0.0,0.0,0.0,0.0,0.0,0.0,0.0,0.0,0.0,0.0,0.0,0.0,0.0,0.0,0.0,0.0,0.0,0.0,0.0,0.0,0.0,0.0,0.0,0.0,0.0,0.0,0.0,0.0,0.0,0.0,0.0,0.0,0.0,0.0,0.0,0.0,0.0,0.0,0.0,0.0,1.0852,0.9727,0.9968,0.9363,0.8591,0.7552,0.6194,0.4883,0.3811,0.0,0.0,0.0,0.0,0.0,0.0,0.0,0.0,0.0,0.0,0.0,0.0,0.0,0.0,0.0,0.0,0.0,0.0,0.0,0.0,0.0,0.0,0.0,0.0,0.0,0.0,0.0,0.0,0.0,0.0,0.0,0.0,0.0,0.0,0.0,0.0,0.0,0.0,0.0,0.0,0.0,0.0,0.0,0.0,0.0,0.0,0.0,0.0,0.0,0.0,0.0,0.0,0.0,0.0,0.0,0.0,0.0,0.0,0.0,0.0,0.0,0.0,0.0,0.0,0.0,0.0,0.0,0.0,0.0,0.0,0.0,0.0,0.0,0.0,0.0,0.0,0.0,0.0,0.0,0.0,0.0,0.0,0.0,0.0,0.0,0.0,0.0,0.0,0.0,0.0,0.0,0.0,0.0,0.0,0.0,0.0,0.0,0.0,0.0,0.0,0.0,0.0,1.3858,1.2178,1.1055,1.1286,1.0899,1.0108,0.9,0.779,0.6573,0.5318,0.0,0.0,0.0,0.0,0.0,0.0,0.0,0.0,0.0,0.0,0.0,0.0,0.0,0.0,0.0,0.0,0.0,0.0,0.0,0.0,0.0,0.0,0.0,0.0,0.0,0.0,0.0,0.0,0.0,0.0,0.0,0.0,0.0,0.0,0.0,0.0,0.0,0.0,0.0,0.0,0.0,0.0,0.0,0.0,0.0,0.0,0.0,0.0,0.0,0.0,0.0,0.0,0.0,0.0,0.0,0.0,0.0,0.0,0.0,0.0,0.0,0.0,0.0,0.0,0.0,0.0,0.0,0.0,0.0,0.0,0.0,0.0,0.0,0.0,0.0,0.0,0.0,0.0,0.0,0.0,0.0,0.0,0.0,0.0,0.0,0.0,0.0,0.0,0.0,0.0,0.0,0.0,0.0,0.0,0.0,0.0,0.0,0.0,0.0,0.0,0.0,0.0,1.5175,1.4628,1.4278,1.4569,1.3163,1.2209,1.2209,0.9087,0.7094,0.0,0.0,0.0,0.0,0.0,0.0,0.0,0.0,0.0,0.0,0.0,0.0,0.0,0.0,0.0,0.0,0.0,0.0,0.0,0.0,0.0,0.0,0.0,0.0,0.0,0.0,0.0,0.0,0.0,0.0,0.0,0.0,0.0,0.0,0.0,0.0,0.0,0.0,0.0,0.0,0.0,0.0,0.0,0.0,0.0,0.0,0.0,0.0,0.0,0.0,0.0,0.0,0.0,0.0,0.0,0.0,0.0,0.0,0.0,0.0,0.0,0.0,0.0,0.0,0.0,0.0,0.0,0.0,0.0,0.0,0.0,0.0,0.0,0.0,0.0,0.0,0.0,0.0,0.0,0.0,0.0,0.0,0.0,0.0,0.0,0.0,0.0,0.0,0.0,0.0,0.0,0.0,0.0,0.0,0.0,0.0,0.0,0.0,0.0,0.0,0.0,0.0,0.0,1.4862,1.4277,1.3871,1.3941,1.3543,1.3255,1.3255,1.1305,0.9905,0.961,0.0,0.0,0.0,0.0,0.0,0.0,0.0,0.0,0.0,0.0,0.0,0.0,0.0,0.0,0.0,0.0,0.0,0.0,0.0,0.0,0.0,0.0,0.0,0.0,0.0,0.0,0.0,0.0,0.0,0.0,0.0,0.0,0.0,0.0,0.0,0.0,0.0,0.0,0.0,0.0,0.0,0.0,0.0,0.0,0.0,0.0,0.0,0.0,0.0,0.0,0.0,0.0,0.0,0.0,0.0,0.0,0.0,0.0,0.0,0.0,0.0,0.0,0.0,0.0,0.0,0.0,0.0,0.0,0.0,0.0,0.0,0.0,0.0,0.0,0.0,0.0,0.0,0.0,0.0,0.0,0.0,0.0,0.0,0.0,0.0,0.0,0.0,0.0,0.0,0.0,0.0,0.0,0.0,0.0,0.0,0.0,0.0,0.0,0.0,0.0,0.0,0.0,1.5685,1.5574,1.5462,1.562,1.5057,1.4657,1.4657,1.3104,1.1987,1.157,0.0,0.0,0.0,0.0,0.0,0.0,0.0,0.0,0.0,0.0,0.0,0.0,0.0,0.0,0.0,0.0,0.0,0.0,0.0,0.0,0.0,0.0,0.0,0.0,0.0,0.0,0.0,0.0,0.0,0.0,0.0,0.0,0.0,0.0,0.0,0.0,0.0,0.0,0.0,0.0,0.0,0.0,0.0,0.0,0.0,0.0,0.0,0.0,0.0,0.0,0.0,0.0,0.0,0.0,0.0,0.0,0.0,0.0,0.0,0.0,0.0,0.0,0.0,0.0,0.0,0.0,0.0,0.0,0.0,0.0,0.0,0.0,0.0,0.0,0.0,0.0,0.0,0.0,0.0,0.0,0.0,0.0,0.0,0.0,0.0,0.0,0.0,0.0,0.0,0.0,0.0,0.0,0.0,0.0,0.0,0.0,0.0,0.0,0.0,0.0,0.0,0.0,1.7085,1.7635,1.8055,1.8377,1.7092,1.6239,1.6239,1.4689,1.3479,1.3005,0.0,0.0,0.0,0.0,0.0,0.0,0.0,0.0,0.0,0.0,0.0,0.0,0.0,0.0,0.0,0.0,0.0,0.0,0.0,0.0,0.0,0.0,0.0,0.0,0.0,0.0,0.0,0.0,0.0,0.0,0.0,0.0,0.0,0.0,0.0,0.0,0.0,0.0,0.0,0.0,0.0,0.0,0.0,0.0,0.0,0.0,0.0,0.0,0.0,0.0,0.0,0.0,0.0,0.0,0.0,0.0,0.0,0.0,0.0,0.0,2.2679,2.1821,0.0,0.0,0.0,0.0,0.0,0.0,0.0,0.0,0.0,0.0,0.0,0.0,0.0,0.0,0.0,0.0,0.0,0.0,0.0,0.0,0.0,0.0,0.0,0.0,0.0,0.0,0.0,0.0,0.0,0.0,0.0,0.0,0.0,0.0,0.0,0.0,0.0,0.0,0.0,0.0,1.6754,1.7315,1.7702,1.7769,1.7496,1.7276,1.7276,1.5863,1.4773,1.4176,1.2509,0.0,0.0,0.0,0.0,0.0,0.0,0.0,0.0,0.0,0.0,0.0,0.0,0.0,0.0,0.0,0.0,0.0,0.0,0.0,0.0,0.0,0.0,0.0,0.0,0.0,0.0,0.0,0.0,0.0,0.0,0.0,0.0,0.0,0.0,0.0,0.0,0.0,0.0,0.0,0.0,0.0,0.0,0.0,0.0,0.0,0.0,0.0,0.0,0.0,0.0,0.0,0.0,0.0,0.0,0.0,0.0,0.0,0.0,0.0,2.4975,2.4081,0.0,0.0,0.0,0.0,0.0,0.0,0.0,0.0,0.0,0.0,0.0,0.0,0.0,0.0,0.0,0.0,0.0,0.0,0.0,0.0,0.0,0.0,0.0,0.0,0.0,0.0,0.0,0.0,0.0,0.0,0.0,0.0,0.0,0.0,0.0,0.0,0.0,0.0,0.0,0.0,1.6633,1.7094,1.7481,1.7569,1.7582,1.7582,1.7582,1.6754,1.6066,1.56,1.39,0.0,0.0,0.0,0.0,0.0,0.0,0.0,0.0,0.0,0.0,0.0,0.0,0.0,0.0,0.0,0.0,0.0,0.0,0.0,0.0,0.0,0.0,0.0,0.0,0.0,0.0,0.0,0.0,0.0,0.0,0.0,0.0,0.0,0.0,0.0,0.0,0.0,0.0,0.0,0.0,0.0,0.0,0.0,0.0,0.0,0.0,0.0,0.0,0.0,0.0,0.0,0.0,0.0,3.1319,3.0722,2.9572,2.9334,2.8754,2.7923,2.7432,2.6502,2.5313,2.4666,0.0,0.0,0.0,0.0,0.0,0.0,0.0,0.0,0.0,0.0,0.0,0.0,0.0,0.0,0.0,0.0,0.0,0.0,0.0,0.0,0.0,0.0,1.7445,1.6955,1.7204,1.7401,1.6798,0.0,0.0,0.0,0.0,0.0,0.0,0.0,0.0,0.0,0.0,0.0,1.6533,1.6887,1.7219,1.7402,1.7428,1.7428,1.7428,1.7259,1.6947,1.6647,1.5234,1.426,0.0,0.0,0.0,0.0,0.0,0.0,0.0,0.0,0.0,0.0,0.0,0.0,0.0,0.0,0.0,0.0,0.0,0.0,0.0,0.0,0.0,0.0,0.0,0.0,0.0,0.0,0.0,0.0,0.0,0.0,0.0,0.0,2.7822,2.8323,0.0,0.0,0.0,0.0,0.0,0.0,0.0,0.0,0.0,0.0,0.0,0.0,0.0,3.1796,3.1784,3.2582,3.2757,3.2313,3.2701,3.2527,3.1839,3.0643,3.0683,3.1486,2.913,0.0,2.6634,2.5398,0.0,0.0,0.0,0.0,0.0,0.0,0.0,0.0,0.0,0.0,0.0,0.0,0.0,0.0,0.0,0.0,0.0,0.0,0.0,0.0,0.0,0.0,2.0448,1.8074,1.821,1.8801,1.8333,1.8033,1.7779,1.7598,1.727,1.6653,0.0,0.0,0.0,0.0,0.0,0.0,1.6319,1.6587,1.678,1.682,1.682,1.682,1.682,1.6787,1.664,1.6346,1.5868,1.5463,1.5173,1.3497,0.0,0.0,0.0,0.0,0.0,0.0,0.0,0.0,0.0,0.0,0.0,0.0,0.0,0.0,0.0,0.0,0.0,0.0,0.0,0.0,0.0,0.0,0.0,0.0,0.0,0.0,0.0,0.0,0.0,3.1149,3.1224,3.0608,2.9479,2.8885,0.0,0.0,0.0,0.0,0.0,0.0,0.0,0.0,0.0,3.403,3.427,3.4727,3.5329,3.5737,3.5651,3.5147,3.5337,3.4762,3.3464,3.2855,3.209,3.1122,2.9911,2.8785,2.7662,2.6869,2.5772,2.4515,0.0,0.0,0.0,0.0,2.0124,1.9424,2.0945,2.0461,1.9416,2.0639,0.0,0.0,0.0,0.0,0.0,0.0,0.0,2.2259,2.072,2.029,2.0253,1.9979,1.9475,1.9448,2.0769,2.0589,1.9896,1.8974,1.875,1.8355,1.7265,1.7281,0.0,0.0,0.0,1.6907,1.727,1.6814,1.6526,1.6687,1.6707,1.6707,1.6707,1.7183,1.7462,1.7327,1.7668,1.7833,1.7728,1.6832,1.5913,0.0,0.0,0.0,0.0,0.0,0.0,0.0,0.0,0.0,0.0,0.0,0.0,0.0,0.0,0.0,0.0,0.0,0.0,0.0,0.0,0.0,0.0,0.0,0.0,0.0,0.0,0.0,0.0,3.3971,3.403,3.2563,3.2225,3.1811,0.0,0.0,0.0,0.0,0.0,0.0,3.5082,3.5152,3.5655,3.6795,3.6971,3.74,3.8216,3.8366,3.809,3.74,3.74,3.632,3.4385,3.403,3.2755,3.0773,3.0068,2.9408,2.8764,2.799,2.6921,2.5607,2.4672,2.3598,2.2507,2.2289,2.1436,2.0604,2.2172,2.1811,2.0856,2.1984,2.2273,2.2134,2.1953,0.0,0.0,0.0,0.0,2.3039,2.2091,2.1105,2.0554,2.1319,2.0763,2.0529,2.2298,2.2479,2.1889,2.0429,2.0184,1.9904,1.8872,1.8963,0.0,1.8729,1.8155,1.7964,1.8393,1.7383,1.6718,1.6945,1.667,1.648,1.648,1.743,1.8003,1.8003,1.8953,1.9497,1.9497,1.9239,1.8563,1.742,0.0,0.0,0.0,0.0,0.0,0.0,0.0,0.0,0.0,0.0,0.0,0.0,0.0,0.0,0.0,0.0,0.0,0.0,0.0,0.0,0.0,0.0,0.0,0.0,0.0,0.0,0.0,0.0,0.0,3.4311,3.3607,0.0,0.0,0.0,0.0,3.4495,3.461,3.5132,3.6267,3.6307,3.681,3.7889,3.8467,3.8818,3.8831,3.9346,3.9057,3.7965,3.7965,3.669,3.4337,3.3005,3.2331,3.2079,2.9513,2.9102,3.0078,2.8388,2.7656,2.7331,2.5159,2.5038,2.5902,2.4235,2.3574,2.3665,2.502,2.4609,2.3683,2.505,2.5218,2.4907,2.4887,2.4596,0.0,0.0,2.4982,2.4737,2.3803,2.3507,2.3061,2.1403,2.1968,2.264,2.201,2.2839,2.3319,2.2089,2.1545,2.0854,1.9629,0.0,1.9464,1.9439,1.941,1.9389,1.9422,1.8388,1.7628,1.7643,1.6576,1.5872,1.5872,1.6979,1.7714,1.7714,1.8826,1.9497,1.9497,1.9239,1.904,1.898,1.7979,0.0,0.0,0.0,0.0,0.0,0.0,0.0,0.0,0.0,0.0,0.0,0.0,0.0,0.0,0.0,0.0,0.0,0.0,0.0,0.0,0.0,0.0,0.0,0.0,0.0,0.0,0.0,0.0,3.8385,3.7906,0.0,3.7682,3.7571,3.7314,3.6942,3.7189,3.7433,3.7423,3.7437,3.7789,3.8542,3.8768,3.9095,3.9396,3.8641,3.7761,3.668,3.5742,3.4539,3.3044,3.2543,3.1825,3.0979,3.0016,2.9355,2.8943,2.8337,2.791,2.7607,2.6481,2.6198,2.6288,2.533,2.4461,2.389,2.5226,2.4815,2.3939,2.5274,2.5586,2.5498,2.5498,2.5391,2.5245,2.5459,2.5498,2.5382,2.508,2.411,2.3316,2.3558,2.2899,2.2407,2.2968,2.3252,2.3237,2.2774,2.2552,2.223,2.1565,2.1644,2.1727,2.1477,2.1015,2.0666,2.0666,1.9579,1.8864,1.8864,1.777,1.7037,1.7037,1.8133,1.8864,1.8864,2.0728,2.1819,2.1819,2.1725,2.1215,2.028,1.9865,1.895,0.0,0.0,0.0,0.0,0.0,0.0,0.0,0.0,0.0,0.0,0.0,0.0,0.0,0.0,0.0,0.0,0.0,0.0,0.0,0.0,0.0,0.0,0.0,0.0,0.0,3.7844,3.9068,4.0907,4.0958,4.0806,4.0592,4.0597,4.0244,3.9392,3.9677,3.9613,3.8956,3.8945,3.9028,3.9183,3.9145,3.9103,3.8961,3.7967,3.6772,3.5268,3.4282,3.3034,3.1633,3.1633,3.0865,2.9608,2.9608,2.9021,2.8086,2.8086,2.7832,2.7412,2.7129,2.6758,2.6338,2.5849,2.5118,2.451,2.5382,2.5118,2.451,2.543,2.5693,2.5693,2.5693,2.5693,2.5693,2.5693,2.5693,2.5654,2.5557,2.4592,2.3859,2.451,2.3537,2.2682,2.3415,2.334,2.3091,2.3091,2.3091,2.3003,2.273,2.2916,2.3003,2.2721,2.2233,2.1889,2.1889,2.0845,2.0124,2.0124,1.9047,1.8326,1.8326,1.9298,1.9943,2.0116,2.1866,2.2945,2.3091,2.2955,2.2438,2.1478,2.1015,1.9957,1.8307,0.0,0.0,0.0,0.0,0.0,0.0,0.0,0.0,0.0,0.0,0.0,0.0,0.0,0.0,0.0,0.0,0.0,0.0,0.0,0.0,0.0,0.0,0.0,3.8134,3.8786,3.9773,4.1657,4.2385,4.2523,4.1963,4.1952,4.1907,4.1817,4.1817,4.1497,4.0782,4.0773,4.046,3.9724,3.9645,3.8961,3.7518,3.7388,3.6114,3.3757,3.3693,3.2448,3.0214,3.0214,2.9513,2.8291,2.8281,2.8047,2.7718,2.7708,2.7393,2.6992,2.6992,2.6748,2.6338,2.5849,2.5693,2.5693,2.5693,2.5693,2.5693,2.5693,2.5693,2.5693,2.5693,2.5693,2.5693,2.5693,2.5693,2.5635,2.5185,2.5106,2.4881,2.3994,2.3779,2.3652,2.3188,2.3091,2.3091,2.3091,2.3091,2.3091,2.3091,2.3091,2.3091,2.3091,2.3091,0.0,2.3091,2.2076,2.1346,2.1346,2.026,1.9534,1.9534,2.028,2.0887,2.1248,2.2059,2.2685,2.3042,2.2672,2.249,2.249,2.123,2.041,1.9932,0.0,0.0,0.0,0.0,0.0,0.0,0.0,0.0,0.0,0.0,0.0,0.0,0.0,0.0,0.0,0.0,0.0,0.0,0.0,0.0,0.0,3.6245,3.74,3.8556,3.8842,4.0119,4.3288,4.344,4.3764,4.4952,4.5067,4.4282,4.2436,4.2297,4.1632,4.0095,3.9982,3.9918,3.9685,3.8635,3.7914,3.7518,3.5016,3.3301,3.233,3.0936,2.9752,2.8857,2.8857,2.8654,2.8271,2.7969,2.7826,2.7689,2.7324,2.6943,2.6562,2.6562,2.6494,2.6338,2.5849,2.5693,2.5693,2.5693,2.5693,2.5693,2.5693,2.5693,2.5693,2.5693,2.5693,2.5693,2.5693,2.5693,2.5635,2.5185,2.4834,2.4463,2.3916,2.3545,2.3247,2.312,2.3091,2.3091,2.3091,2.3091,2.3091,2.3091,2.3091,2.3091,2.3091,2.3091,2.3091,2.3091,2.2818,2.2633,2.2633,2.1534,2.08,2.08,2.1016,2.1058,2.0887,2.1897,2.2432,2.2236,2.2119,2.206,2.206,2.1396,2.083,0.0,0.0,0.0,0.0,0.0,0.0,0.0,0.0,0.0,0.0,0.0,0.0,0.0,0.0,0.0,0.0,0.0,0.0,0.0,0.0,0.0,0.0,3.7312,3.8198,3.9123,3.9486,4.079,4.3694,4.3705,4.3929,4.5033,4.5138,4.4526,4.3026,4.2932,4.2193,4.0579,3.9892,3.9326,3.8804,3.737,3.621,3.5398,3.3375,3.1785,3.0564,2.9461,2.8701,2.8291,2.8291,2.8193,2.8018,2.7826,2.7513,2.7109,2.6855,2.6504,2.6133,0.0,0.0,0.0,0.0,2.5693,2.5693,2.5693,2.5693,2.5693,2.5693,2.5693,2.5693,2.5693,2.5693,2.5693,2.5693,2.5693,2.5538,2.4961,2.4609,2.4268,2.3662,2.3276,2.3091,2.3091,2.3091,2.3091,2.3091,2.3091,0.0,2.3091,2.3091,2.3091,2.3091,2.3091,2.3091,2.3091,2.3091,2.3091,2.3091,2.2492,2.2031,2.2031,2.1917,0.0,0.0,0.0,2.206,2.1631,2.1988,0.0,0.0,0.0,0.0,0.0,2.1375,0.0,0.0,2.0484,2.0459,0.0,0.0,0.0,0.0,0.0,0.0,0.0,0.0,0.0,0.0,0.0,0.0,0.0,0.0,0.0,0.0,3.8542,3.9132,3.9622,4.0267,4.1316,4.3102,4.3313,4.3361,4.3504,4.3504,4.3456,4.3313,4.3313,4.2689,4.123,3.9906,0.0,0.0,0.0,3.4229,3.243,3.2211,3.1003,2.8916,2.8867,2.8652,2.8291,2.8291,2.8066,2.7718,2.7669,2.7139,2.6387,2.6338,2.6084,2.5732,2.6162,2.6084,2.5693,2.5693,2.5693,2.5693,2.5693,0.0,0.0,2.5693,2.5693,2.5693,2.5693,2.5693,2.5693,2.5693,2.5693,2.5479,2.4648,2.4414,2.4199,2.3296,2.3091,2.3091,2.3091,2.3091,2.3091,2.3091,2.3091,2.3091,2.3091,2.3091,2.3091,2.3091,2.3091,2.3081,2.3033,2.3023,2.3003,2.2955,2.2955,0.0,2.3023,2.2643,2.2441,2.2441,2.2002,2.1603,2.1282,2.2171,2.2496,2.2188,2.2178,2.2627,2.3514,2.259,2.2178,2.214,2.1193,2.0712,0.0,0.0,0.0,0.0,0.0,0.0,0.0,0.0,0.0,0.0,0.0,0.0,0.0,0.0,0.0,3.7977,3.8868,3.9572,3.9685,3.9841,4.0426,4.1775,4.1985,4.2363,4.3409,4.3504,4.3074,4.2035,4.1985,4.0904,3.8444,3.8012,3.7216,3.5781,3.4292,3.3183,3.244,3.0888,2.9691,2.8916,2.8574,0.0,2.8291,2.8291,2.8066,2.7699,2.7295,2.6855,2.6357,2.6006,2.5762,2.5693,2.5781,2.5762,2.5693,2.5693,2.5693,2.5693,2.5693,2.5693,2.5693,2.5693,2.5693,2.5693,2.5693,2.5693,0.0,2.5693,2.5693,2.5479,2.4648,2.4414,2.4199,2.3296,2.3091,2.3091,2.3091,2.3091,2.3091,2.3091,2.3091,2.3091,2.3091,2.3091,2.3091,2.3091,2.3091,2.2974,2.2676,2.2637,2.25,2.2168,2.2129,2.2266,2.2607,2.2246,2.2012,2.2012,2.13,2.1153,2.1803,2.2022,2.2461,2.3184,2.322,2.3294,2.3514,2.3294,2.322,2.3184,2.2178,2.1336,0.0,0.0,0.0,0.0,0.0,0.0,0.0,0.0,0.0,0.0,0.0,3.6207,3.7061,0.0,3.853,3.8806,3.932,3.9697,3.9697,3.9459,3.9626,4.0516,4.0642,4.0882,4.1555,4.0928,4.0248,3.9585,3.8877,3.7762,3.6105,3.5341,3.4524,3.3584,3.2117,3.1142,3.063,2.9723,2.9033,2.8603,2.8398,2.8291,2.8281,2.8076,2.7744,2.7314,2.6885,2.6455,2.6045,2.5781,2.5693,2.5693,2.5693,2.5693,2.5693,2.5693,2.5693,2.5693,2.5693,2.5693,2.5693,2.5693,2.5693,2.5693,2.5693,2.5693,2.5693,2.5693,2.5576,2.5254,2.459,2.4258,2.3935,2.3247,2.3091,2.3091,2.3091,2.3091,2.3091,2.3091,2.3091,2.3033,2.2818,2.2779,2.2779,2.2779,2.2779,2.2676,2.2246,2.2197,2.2119,2.1904,2.1885,2.1973,2.2178,2.1807,2.1746,2.2281,2.1683,2.1745,2.2702,2.322,2.3745,2.4228,2.4264,2.4516,2.4981,2.4516,2.4264,2.4228,2.3745,2.2702,0.0,0.0,0.0,0.0,0.0,0.0,0.0,3.6816,3.6415,3.7917,3.7531,3.731,3.8668,3.9007,3.9182,3.9622,3.9697,3.9697,3.9697,3.922,3.9032,3.9484,3.9534,3.9534,3.9534,3.8573,3.776,3.7375,3.6322,3.5249,3.4114,3.2972,3.2054,3.1397,3.0218,2.9365,2.8926,2.8916,2.8711,2.8291,2.8291,2.8291,2.8281,2.7861,2.7432,2.6982,2.6484,2.6064,2.5693,2.5693,2.5693,2.5693,2.5693,2.5693,2.5693,2.5693,2.5693,2.5693,2.5693,2.5693,2.5693,2.5693,2.5693,2.5693,2.5693,2.5693,2.5674,2.5635,2.5352,2.4951,2.4424,2.4043,2.3682,2.3198,2.3091,2.3091,2.3091,2.3091,2.3091,2.3091,2.3033,2.2867,2.2568,2.2441,2.2393,2.2393,2.2393,2.2236,2.1816,2.1758,2.1728,2.1641,2.1672,2.1672,2.1672,2.1538,2.1799,2.2527,2.2389,2.2739,2.3745,2.4564,2.5075,2.53,2.53,2.5699,2.6499,2.5699,2.53,2.53,2.53,2.4217,3.4262,3.4406,3.471,3.596,3.6752,3.762,0.0,3.8664,3.7983,3.8681,3.8717,3.8693,3.8894,3.927,3.9622,3.9685,3.9697,3.9697,3.9697,3.922,3.8944,3.9007,3.9007,3.9007,3.9007,3.9293,3.8763,3.702,3.7086,3.5738,3.2307,3.2319,3.1632,2.9905,2.9682,2.9365,2.8926,2.8916,2.8711,2.8291,2.8291,2.8291,2.8281,2.7861,2.7432,2.6973,2.6113,2.5732,2.5693,2.5693,2.5693,2.5693,2.5693,2.5693,2.5693,2.5693,2.5693,2.5693,2.5693,2.5693,2.5693,2.5693,2.5693,2.5693,2.5693,2.5693,2.5606,2.5254,2.5155,2.493,2.4072,2.3828,2.3682,2.3198,2.3091,2.3091,2.3091,2.3091,2.3091,2.3091,2.2789,2.2568,2.2519,2.2207,2.1953,2.1953,2.1953,2.1797,2.1327,2.1268,2.1152,2.0791,2.0752,2.0752,2.0752,2.1852,2.2408,2.2094,2.2883,2.3781,2.4791,2.4933,2.5406,2.6314,2.6349,2.6383,2.6499,2.6383,2.6349,2.6349,2.6349,2.524,3.3088,3.4001,3.5096,3.6535,3.7811,3.9176,4.0972,4.0405,3.9706,4.0282,3.9889,3.9424,3.9373,3.9534,3.9697,3.9697,3.9697,3.9697,3.9697,3.8931,3.8492,3.8881,3.858,3.8492,3.8894,3.86,3.8093,3.7261,3.5534,3.3846,3.2222,3.1011,3.0008,2.9199,2.8955,2.874,2.8555,2.8555,2.8467,2.8291,2.8291,2.8164,2.7963,2.748,2.6914,2.62,2.5849,2.5693,2.5693,2.5693,2.5693,2.5693,2.5693,2.5693,2.5693,2.5693,2.5693,2.5693,2.5693,2.5693,2.5693,2.5693,2.5693,2.5693,2.5693,2.5693,2.5732,2.597,2.5879,2.567,2.5702,2.555,2.5135,2.4305,2.4082,2.392,2.3266,2.3091,2.3023,2.2822,2.2637,2.2353,2.1814,2.158,2.1416,2.1192,2.1338,2.1348,2.0898,2.084,2.0771,2.0625,2.0605,2.0818,2.1375,2.1949,2.2692,2.3672,2.4145,2.4814,2.5838,2.5873,2.606,2.6499,2.6499,2.6499,2.6499,2.6499,2.6499,2.6499,2.6499,2.606,3.2135,3.3343,3.4911,3.6593,3.8424,4.0224,4.1839,4.1613,4.1126,4.1262,4.0468,3.9724,3.9525,3.9471,3.9521,3.9672,3.9697,3.9697,3.9697,3.8718,3.8216,3.8856,3.8366,3.8228,3.8856,3.8297,3.758,3.6761,3.4348,3.2532,3.1653,3.0023,2.9043,2.8926,2.8506,2.8291,2.8291,2.8291,2.8291,2.8291,2.8174,2.7959,2.7699,2.71,2.6435,2.5693,2.5693,2.5693,2.5693,2.5693,2.5693,2.5693,2.5693,2.5693,2.5693,2.5693,2.5693,2.5693,2.5693,2.5693,2.5693,2.5693,2.5693,2.5693,2.5693,2.5838,2.6052,2.6419,2.6451,2.6463,2.6825,2.6741,2.6307,2.5462,2.5252,2.5052,2.4221,2.3915,2.3772,2.3622,2.3388,2.2888,2.197,2.173,2.1422,2.0713,2.1066,2.1233,2.0683,2.0605,2.0712,2.0972,2.1011,2.1375,2.2328,2.2664,2.3441,2.4898,2.5264,2.5734,2.6452,2.6499,2.6499,2.6499,2.6499,2.6499,2.6499,2.6499,2.6499,2.6499,2.6499,2.6499,3.2342,3.3006,3.4283,3.6058,3.8159,4.0112,4.1367,4.1991,4.2038,4.0947,4.0231,3.9607,3.9019,3.8944,3.9069,3.9609,3.9697,3.9697,3.9697,3.8718,3.8216,3.8856,3.8366,3.8228,3.8856,3.8881,3.7697,3.4894,3.4484,3.2986,2.9823,2.9616,2.9355,2.8926,2.8506,2.8291,2.8291,2.8291,2.8291,2.8291,2.7881,2.7728,2.7689,2.6797,2.6162,2.5693,2.5693,2.5693,2.5693,2.5693,2.5693,2.5693,2.5693,2.5693,2.5693,2.5693,2.5693,2.5693,2.5693,2.5693,2.5693,2.5693,2.5693,2.5693,2.5693,2.6164,2.6572,2.6215,2.6573,2.6972,2.6617,2.6494,2.6483,2.6483,2.6431,2.6431,2.6389,2.5928,2.5676,2.6278,2.5596,2.4613,2.3602,2.3113,2.2322,2.0819,2.1385,2.1642,2.0712,2.0605,2.0934,2.1849,2.1952,2.2366,2.3368,2.4337,2.4933,2.5004,2.5921,2.6452,2.6499,2.6499,2.6499,2.6499,2.6499,2.6499,2.6499,2.6499,2.6499,2.6499,2.6499,2.6499,3.2789,3.3249,3.4326,3.6442,3.7536,3.8488,4.0067,4.1434,4.1963,4.0369,4.0244,3.9954,3.8561,3.8617,3.8982,3.912,3.9459,3.9697,3.9697,3.9044,3.8781,3.9346,3.8919,3.8806,3.9371,3.9082,3.8255,3.6637,3.496,3.3268,3.1546,2.9978,2.9072,2.8926,2.8506,2.8291,2.8291,2.8291,2.8291,2.8281,2.7578,2.7236,2.7207,2.6348,2.583,2.5693,2.5693,2.5693,2.5693,2.5693,2.5693,2.5781,2.662,2.6945,2.7078,2.7851,2.8168,2.7945,2.6294,2.5693,2.5693,2.5693,2.6294,2.6945,2.6945,2.744,2.803,2.8336,2.8349,2.8298,2.8595,2.8712,2.8502,2.7735,2.7562,2.7371,2.6637,2.6337,2.6181,2.6053,2.5492,2.4776,2.4134,2.3633,2.3121,2.2585,2.2226,2.214,2.2489,2.2526,2.2638,2.2962,2.2999,2.3404,2.4409,2.4826,2.53,2.5943,2.6314,2.6499,2.6499,2.6499,2.6499,2.6499,2.6499,2.6499,2.6499,2.6499,2.6499,2.6499,2.6499,2.6499,3.2603,3.2953,3.369,3.5552,3.6345,3.6989,3.8321,3.9817,4.0493,3.9143,3.901,3.8876,3.7901,3.7864,3.8178,3.8781,3.917,3.9471,3.9672,3.922,3.9082,3.9634,3.9207,3.9082,3.9634,3.8575,3.7497,3.6549,3.4468,3.2684,3.148,2.9988,2.9082,2.8926,2.8506,2.8291,2.8291,2.8291,2.8144,2.7832,2.7275,2.6855,2.6543,2.5937,2.5693,2.5693,2.5693,2.5693,2.5742,2.6197,2.639,2.6476,2.7767,2.8226,2.8319,2.9085,2.9407,2.9177,2.7579,2.702,2.702,2.702,2.7579,2.8193,2.8021,2.8442,2.901,2.9228,2.9229,2.9257,2.9672,2.9792,2.9624,2.8897,2.8727,2.853,2.7839,2.7526,2.735,2.7249,2.6601,2.5902,2.5252,2.437,2.3931,2.4251,2.3761,2.3397,2.35,2.3514,2.3635,2.4,2.4036,2.4445,2.5441,2.5558,2.5804,2.6452,2.6499,2.6499,2.6499,2.6499,2.6499,2.6499,2.6499,2.6499,2.6499,2.6499,2.6499,2.6499,2.6499,2.6499,3.2009,3.2311,3.2588,3.367,3.4753,3.5711,3.6254,3.7311,3.795,3.7346,3.6836,3.6642,3.6985,3.6722,3.6973,3.8567,3.8881,3.9107,3.9659,3.9258,3.9107,3.9634,3.9233,3.912,3.9647,3.7475,3.5681,3.4643,3.3071,3.1404,2.9662,2.9531,2.9336,2.8896,2.8496,2.8291,2.8291,2.8271,2.7851,2.7051,2.7002,2.6562,2.5723,2.5703,2.5693,2.5693,2.5781,2.5781,2.5878,2.7173,2.7673,2.7814,2.9039,2.9498,2.9498,2.959,2.959,2.959,2.959,2.9498,2.9407,2.9407,2.943,2.9375,2.8858,2.9141,2.9564,2.9023,2.9325,2.9792,2.9792,2.9792,2.9792,2.9792,2.9792,2.9792,2.9792,2.9365,2.9139,2.9691,2.89,2.7816,2.6839,2.5463,2.4814,2.5777,2.5912,2.5345,2.3872,2.3683,2.4036,2.4969,2.5075,2.5441,2.6418,2.6499,2.6499,2.6499,2.6499,2.6499,2.6499,2.6499,2.6499,2.6499,2.6499,2.6499,2.6499,2.6499,2.6499,2.6499,2.6499,2.6499,3.3539,3.3742,3.4118,3.4418,3.4721,3.4969,3.5114,3.6374,3.7181,3.6186,3.6237,3.6275,3.5481,3.6245,3.7262,3.809,3.8931,3.9672,4.0224,3.9835,3.9534,3.9672,3.9572,3.9534,3.9685,3.8157,3.6303,3.4287,3.2394,3.0679,2.9147,2.9082,2.8887,2.8467,2.835,2.8291,2.8291,2.7988,2.7715,2.749,2.6855,2.6435,2.6211,2.584,2.5693,2.5732,2.6706,2.7125,2.722,2.8448,2.8947,2.9039,3.0271,3.0721,3.0855,3.1833,3.2152,3.2152,3.2152,3.0956,2.9407,2.9407,2.9737,3.0124,2.9995,3.0128,3.0316,3.018,2.997,2.9792,2.9792,2.9792,2.9792,2.9792,2.9792,2.9792,2.9792,2.9679,2.9616,2.9767,2.9214,2.8512,2.7816,2.7397,2.7238,2.7458,2.7148,2.6766,2.6369,2.5966,2.5826,2.6094,2.6129,2.6233,2.6499,2.6499,2.6499,2.6499,2.6499,2.6499,2.6499,2.6499,2.6499,2.6499,2.6499,2.6499,2.6499,2.6499,2.6499,2.6499,2.6499,2.6499,3.3701,3.3736,3.3995,3.3995,3.3995,3.3995,3.3995,3.4719,3.5301,3.4869,3.4887,3.492,3.476,3.568,3.6722,3.7513,3.8592,3.9534,4.0074,3.9885,3.9697,3.9697,3.9697,3.9697,3.9697,3.7986,3.6318,3.4993,3.2843,3.072,2.8726,2.9395,2.9608,2.9164,2.9765,2.9912,2.9725,2.8982,2.8369,2.7925,2.6902,2.6289,2.6094,2.6403,2.6524,2.662,2.7861,2.8412,2.8495,2.9681,3.0181,3.0316,3.1545,3.2052,3.2096,3.284,3.3124,3.3124,3.3124,3.2196,3.1012,3.1012,3.1097,3.1144,3.0913,3.0717,3.057,3.0319,3.003,2.9792,2.9792,2.9792,2.9792,2.9792,2.9792,2.9792,2.9792,2.9792,2.9716,2.9465,2.9113,2.8712,2.8197,2.831,2.8461,2.8461,2.7996,2.7645,2.7645,2.6989,2.6499,2.6499,2.6499,2.6499,2.6499,2.6499,2.6499,2.6499,2.6499,2.6499,2.6499,2.6499,2.6499,2.6499,2.6499,2.6499,2.6499,2.6499,2.6499,2.6499,2.6499,2.6625,3.3259,3.2982,3.284,3.284,3.2754,3.2655,3.2797,3.284,3.3021,3.364,3.3407,3.337,3.4324,3.5031,3.5859,3.6998,3.814,3.9094,3.9722,3.9735,3.9697,3.9697,3.9697,3.9697,3.9697,3.7717,3.6285,3.6009,3.3964,3.165,2.896,3.0347,3.1,3.0577,3.1673,3.2046,3.1504,3.0417,2.931,2.8164,2.708,2.634,2.5965,2.7078,2.7683,2.7908,2.9085,2.9636,2.9727,3.0956,3.1456,3.1545,3.2655,3.3124,3.3124,3.3124,3.3124,3.3124,3.3124,3.3124,3.3124,3.3124,3.2641,3.2014,3.1537,3.0984,3.0407,2.993,2.9792,2.9792,2.9792,2.9792,2.9792,2.9792,2.9792,2.9792,2.9792,2.9792,2.9641,2.9101,2.9001,2.885,2.8411,2.8725,2.9001,2.9001,2.8574,2.8185,2.8109,2.7178,2.6499,2.6499,2.6499,2.6499,2.6499,2.6499,2.6499,2.6499,2.6499,2.6499,2.6499,2.6499,2.6499,2.6499,2.6499,2.6499,2.6499,2.6499,2.6499,2.6499,2.6499,2.6788,3.3373,3.2339,3.1545,3.1545,3.0777,3.0316,3.1311,3.1545,3.1845,3.3008,3.3144,3.3174,3.3319,3.4562,3.5859,3.6998,3.814,3.922,4.0224,3.9986,3.9697,3.9697,3.9697,3.9697,3.9697,3.8891,3.7712,3.6135,3.5208,3.3793,3.1717,3.1913,3.2015,3.1938,3.218,3.2046,3.1504,3.0967,2.9861,2.8202,2.7654,2.734,2.7268,2.7494,2.8132,2.9177,3.035,3.0899,3.1,3.2239,3.2754,3.2797,3.3025,3.3124,3.3124,3.3124,3.3124,3.3124,3.3124,3.3124,3.3124,3.3124,3.2378,3.1512,3.1424,3.0708,2.9917,2.9817,2.9792,2.9792,2.9792,2.9792,2.9792,2.9792,2.9792,2.9792,2.9792,2.9792,2.9767,2.9666,2.9641,2.9616,2.9515,2.9578,2.9641,2.9641,2.9151,2.8587,2.816,2.7178,2.6499,2.6499,2.6499,2.6499,2.6499,2.6499,2.6499,2.6499,2.6499,2.6499,2.6499,2.6499,2.6499,2.6499,2.6499,2.6499,2.6499,2.6499,2.6499,2.6499,2.6499,2.6788,3.3398,3.2152,3.1223,3.1223,3.0271,2.9659,3.0558,3.0976,3.146,3.2411,3.2867,3.3124,3.3124,3.4198,3.5332,3.6207,3.7262,3.8379,3.9496,3.9433,3.9371,3.9659,3.9697,3.9584,3.9295,3.8755,3.7917,3.6726,3.6137,3.4808,3.2454,3.2994,3.37,3.4399,3.4435,3.4018,3.3173,3.2347,3.1214,2.9743,2.8929,2.8541,2.8541,2.9177,2.9772,3.0406,3.1645,3.2196,3.2239,3.284,3.3124,3.3124,3.3124,3.3124,3.3124,3.3124,3.3124,3.3124,3.3124,3.3124,3.3124,3.3124,3.2315,3.1386,3.1386,3.0645,2.9792,2.9792,2.9792,2.9792,2.9792,2.9792,2.9792,2.9792,2.9792,2.9792,2.9792,2.9792,2.9792,2.9792,2.9792,2.9792,2.9792,2.9792,2.9792,2.9792,2.9051,2.8398,2.8134,2.7178,2.6499,2.6499,2.6499,2.6499,2.6499,2.6499,2.6499,2.6499,2.6499,2.6499,2.6499,2.6499,2.6499,2.6499,2.6499,2.6499,2.6499,2.6499,2.6499,2.6499,2.6499,2.6952,3.3313,3.2152,3.1223,3.1223,3.009,2.9284,3.0208,3.0623,3.1068,3.202,3.2667,3.3124,3.3124,3.3884,3.4718,3.5395,3.637,3.7486,3.8743,3.8919,3.9082,3.9634,3.9697,3.9484,3.8931,3.8341,3.7776,3.7224,3.6719,3.5451,3.3292,3.4215,3.5319,3.6358,3.6405,3.583,3.4726,3.3766,3.2601,3.1178,3.0226,2.9772,2.9818,3.0765,3.1356,3.1677,3.2655,3.3124,3.3124,3.3124,3.3124,3.3124,3.3124,3.3124,3.3124,3.3124,3.3124,3.3124,3.3124,3.3124,3.3124,3.3124,3.2315,3.1386,3.1386,3.0645,2.9792,2.9792,2.9792,2.9792,2.9792,2.9792,2.9792,2.9792,2.9792,2.9792,2.9792,2.9792,2.9792,2.9792,2.9792,2.9792,2.9792,2.9792,2.9792,2.9792,2.8925,2.8235,2.8122,2.7278,2.6625,2.6512,2.6499,2.6499,2.6499,2.6499,2.6499,2.6499,2.6499,2.6499,2.6499,2.6499,2.6499,2.6499,2.6499,2.6499,2.6499,2.6499,2.6499,2.6499,2.6612,2.7168,3.3111,3.2152,3.1223,3.1223,2.9453,2.8236,2.9977,2.9947,3.0076,3.1838,3.2667,3.3124,3.3124,3.3571,3.4324,3.532,3.6044,3.7059,3.8693,3.8919,3.9082,3.9634,3.9697,3.9484,3.8931,3.8341,3.7776,3.7224,3.6719,3.631,3.6061,3.6156,3.6263,3.6405,3.6405,3.583,3.4726,3.4577,3.3396,3.1223,3.1089,3.1033,3.1045,3.1134,3.1821,3.2939,3.3068,3.3124,3.3124,3.3124,3.3124,3.3124,3.3124,3.3124,3.3124,3.3124,3.3124,3.3124,3.3124,3.3124,3.3124,3.3124,3.2315,3.1386,3.1386,3.0645,2.9792,2.9792,2.9792,2.9792,2.9792,2.9792,2.9792,2.9792,2.9792,2.9792,2.9792,2.9792,2.9792,2.9792,2.9792,2.9792,2.9792,2.9792,2.9792,2.9792,2.9252,2.8637,2.8172,2.7582,2.7052,2.6549,2.6499,2.6499,2.6499,2.6499,2.6499,2.6499,2.6499,2.6499,2.6499,2.6499,2.6499,2.6499,2.6499,2.6499,2.6499,2.6499,2.6499,2.6499,2.7002,2.7532,3.298,3.2152,3.1223,3.1223,2.9681,2.8475,2.9652,2.9977,3.0331,3.1481,3.2441,3.3124,3.3124,3.3257,3.3771,3.4818,3.5228,3.5956,3.7626,3.7864,3.8191,3.9094,3.9195,3.8969,3.8404,3.814,3.7638,3.6807,3.6531,3.6405,3.6405,3.6405,3.6207,3.5881,3.5868,3.5341,3.4236,3.4223,3.3601,3.2326,3.2326,3.2326,3.2326,3.2326,3.2612,3.3124,3.3124,3.3124,3.3124,3.3124,3.3124,3.3124,3.3124,3.3124,3.3124,3.3124,3.3124,3.3124,3.3124,3.2855,3.2616,3.2968,3.2102,3.0984,3.1298,3.0645,2.9792,2.9792,2.9792,2.9792,2.9792,2.9792,2.9792,2.9792,2.9792,2.9792,2.9792,2.9792,2.9792,2.9792,2.9792,2.9792,2.9792,2.9792,2.9792,2.9792,2.9302,2.8813,2.8599,2.7821,2.7241,2.7014,2.6688,2.6499,2.6499,2.6499,2.6499,2.6499,2.6499,2.6499,2.6499,2.6499,2.6499,2.6499,2.6499,2.6499,2.6499,2.6499,2.6499,2.6512,2.7065,2.7582,3.2717,3.2302,3.1777,3.1777,3.0552,2.9523,3.0031,3.0402,3.0788,3.1278,3.229,3.3124,3.3124,3.3124,3.3382,3.4324,3.4613,3.5253,3.6747,3.7086,3.7538,3.8504,3.8617,3.8391,3.7814,3.7613,3.7199,3.6468,3.6405,3.6405,3.6405,3.6207,3.5943,3.5508,3.5345,3.4806,3.3909,3.3897,3.3621,3.3124,3.3124,3.3124,3.3124,3.3124,3.3124,3.3124,3.3124,3.3124,3.3124,3.3124,3.3124,3.3124,3.3124,3.3124,3.3124,3.3124,3.3124,3.3124,3.3124,3.2805,3.2541,3.2943,3.2064,3.0922,3.1286,3.0645,2.9792,2.9792,2.9792,2.9792,2.9792,2.9792,2.9792,2.9792,2.9792,2.9792,2.9792,2.9792,2.9792,2.9792,2.9792,2.9792,2.9792,2.9792,2.9792,2.9792,2.9302,2.8888,2.8888,2.7959,2.7281,2.7281,2.6826,2.6499,2.6499,2.6499,2.6499,2.6499,2.6499,2.6499,2.6499,2.6499,2.6499,2.6499,2.6499,2.6499,2.6499,2.6499,2.6575,2.6751,2.7304,2.7908,3.2227,3.2641,3.3068,3.3068,3.214,3.1213,3.1336,3.126,3.1232,3.1352,3.229,3.3124,3.3124,3.3124,3.3257,3.3822,3.4361,3.5115,3.6257,3.686,3.7387,3.7952,3.8015,3.7801,3.7249,3.6744,3.6417,3.6405,3.6405,3.6405,3.6405,3.5843,3.5508,3.5495,3.4969,3.4462,3.3909,3.3897,3.3621,3.3124,3.3124,3.3124,3.3124,3.3124,3.3124,3.3124,3.3124,3.3124,3.3124,3.3124,3.3124,3.3124,3.3124,3.3124,3.3124,3.3124,3.3124,3.3124,3.3124,3.3124,3.3111,3.3124,3.2315,3.1386,3.1386,3.0645,2.9792,2.9792,2.9792,2.9792,2.9792,2.9792,2.9792,2.9792,2.9792,2.9792,2.9792,2.9792,2.9792,2.9792,2.9792,2.9792,2.9792,2.9792,2.9792,2.9792,2.9302,2.8888,2.8888,2.7959,2.7281,2.7281,2.6826,2.6499,2.6499,2.6499,2.6499,2.6499,2.6499,2.6499,2.6499,2.6499,2.6499,2.6499,2.6499,2.6499,2.6499,2.6499,2.6776,2.7293,2.7846,2.8699,3.0434,3.1494,3.2309,3.1559,3.1632,3.1888,3.1943,3.1908,3.1888,3.1943,3.2554,3.3124,3.3124,3.3124,3.3382,3.4311,3.4613,3.5115,3.6219,3.6568,3.6822,3.7374,3.745,3.7374,3.7199,3.6732,3.6405,3.6405,3.6405,3.6194,3.583,3.5232,3.4944,3.4944,3.4449,3.3897,3.3345,3.3332,3.3257,3.3124,3.3124,3.3124,3.3124,3.3124,3.3124,3.3124,3.3124,3.3124,3.3124,3.3124,3.3124,3.3124,3.3124,3.3124,3.3124,3.3124,3.3124,3.3124,3.3124,3.2817,3.2491,3.2491,3.175,3.0859,3.0859,3.0357,2.9792,2.9792,2.9792,2.9792,2.9792,2.9792,2.9792,2.9792,2.9792,2.9792,2.9792,2.9792,2.9792,2.9792,2.9792,2.9792,2.9792,2.9792,2.9792,2.9792,2.9641,2.9515,2.9515,2.8863,2.826,2.7883,2.7392,2.6901,2.6524,2.6499,2.6499,2.6499,2.6499,2.6499,2.6499,2.6499,2.6499,2.6499,2.6499,2.6499,2.6499,2.6876,2.7494,2.8411,2.8586,2.9076,2.9308,3.0056,3.0592,3.0336,3.0974,3.1635,3.1868,3.2227,3.2478,3.2252,3.2667,3.3124,3.3124,3.3124,3.3307,3.3985,3.4274,3.4726,3.5617,3.5918,3.6257,3.681,3.692,3.692,3.692,3.6619,3.6405,3.6405,3.6169,3.5994,3.5868,3.4939,3.4512,3.4668,3.3985,3.342,3.3124,3.3124,3.3124,3.3124,3.3124,3.3124,3.3124,3.3124,3.3124,3.3124,3.3124,3.3124,0.0,3.3124,3.3124,3.3124,3.3124,3.3124,3.3124,3.3124,3.3124,3.3124,3.3124,3.2692,3.2215,3.2215,3.1486,3.057,3.0369,3.0068,2.9792,2.9792,2.9792,2.9792,2.9792,2.9792,2.9792,2.9792,2.9792,2.9792,2.9792,2.9792,2.9792,2.9792,2.9792,2.9792,2.9792,2.9792,2.9792,2.9792,2.9792,2.9792,2.9792,2.9289,2.8762,2.8448,2.7733,2.7178,2.6839,2.6612,2.6499,2.6499,2.6499,2.6499,2.6499,2.6499,2.66,2.6801,2.6801,2.6901,2.7115,2.7632,2.826,2.89,2.9113,2.9453,0.0,2.8575,2.8511,2.9538,3.0252,3.087,3.1406,3.2328,0.0,3.239,3.2704,3.3124,3.3124,3.3124,3.3093,3.3174,3.3558,3.411,3.47,3.5207,3.5793,3.6342,3.6405,3.6405,3.6405,3.6405,3.6405,3.6405,3.5893,3.5793,3.6267,3.4788,3.4161,3.4587,3.3608,3.3124,3.3124,3.3124,3.3124,3.3124,3.3124,3.3124,3.3124,3.3124,3.3124,3.3124,3.3124,3.3124,3.3124,3.3124,3.3124,3.3124,3.3124,3.3124,3.3124,3.3124,3.3124,3.3124,3.3124,3.2692,3.2202,3.2127,3.1399,3.0457,2.9942,2.9792,2.9792,2.9792,2.9792,2.9792,2.9792,2.9792,2.9792,2.9792,2.9792,2.9792,2.9792,2.9792,2.9792,2.9792,2.9792,2.9792,2.9792,2.9792,2.9792,2.9792,2.9792,2.9792,2.9792,2.9327,2.8938,2.89,2.8009,2.7381,2.7344,2.6839,2.6499,2.6499,2.6499,2.6512,2.6549,2.6549,2.6813,2.7331,2.7379,2.7607,2.816,2.865,2.8913,2.8963,2.9541,2.9792,2.8037,0.0,2.9967,2.9846,3.0815,3.1995,0.0,3.2923,3.3043,3.2905,3.298,3.3124,3.3124,3.3124,3.3219,3.3633,3.3822,3.4236,3.5169,3.583,3.6267,3.6392,3.6405,3.6405,3.6405,3.6405,3.6405,3.6405,3.6292,3.5855,3.514,3.4738,3.4198,3.3483,3.3206,3.3124,3.3124,3.3124,3.3124,3.3124,3.3124,3.3124,3.3124,3.3124,3.3124,3.3124,3.3124,3.3124,3.3124,3.3124,3.3124,3.3124,3.3124,3.3124,3.3124,3.3124,3.3124,3.3124,3.3124,3.2692,3.2077,3.126,3.0532,2.9967,2.9829,2.9792,2.9792,2.9792,2.9792,2.9792,2.9792,2.9792,2.9792,2.9792,2.9792,2.9792,2.9792,2.9792,2.9792,2.9792,2.9792,2.9792,2.9792,2.9792,2.9792,2.9792,2.9792,2.9792,2.9792,2.9679,2.9415,2.8938,2.8662,2.8373,2.7946,2.7052,2.6499,2.6499,2.6499,2.6688,2.7102,2.7115,2.7344,2.7896,2.7908,2.8185,2.87,2.8825,2.9151,2.9591,2.9729,2.9792,2.8727,2.8968,2.914,2.9332,3.0453,3.1612,3.2193,3.2503,3.2604,3.2353,3.2303,3.2378,3.2629,3.2679,3.2867,3.3432,3.352,3.3909,3.4969,3.5642,3.6081,3.638,3.6405,3.6405,3.6405,3.6405,3.6405,3.6405,3.6119,3.573,3.5094,3.4625,3.4073,3.347,3.3206,3.3124,3.3124,3.3124,3.3124,3.3124,3.3124,3.3124,3.3124,3.3124,3.3124,3.3124,3.3124,3.3124,3.3124,3.3124,3.3124,3.3124,3.3124,3.3124,3.3124,3.3124,3.3124,3.3043,3.2767,3.2152,3.1336,3.0507,3.0043,2.9792,2.9792,2.9792,2.9792,2.9792,2.9792,2.9792,2.9792,2.9792,2.9792,2.9792,2.9792,2.9792,2.9792,2.9792,2.9792,2.9792,2.9792,2.9792,2.9792,2.9792,2.9792,2.9792,2.9792,2.9792,2.9792,2.9792,2.9666,2.9365,2.9089,2.8762,2.8511,2.7708,2.7218,2.7218,2.7218,2.7344,2.7645,2.7657,2.7921,2.8473,2.875,2.9026,2.9327,2.9327,2.949,2.9792,2.9792,2.9792,2.9892,2.8967,2.8156,2.9029,3.0074,3.098,3.1518,3.1938,3.2077,3.1612,3.1512,3.1662,3.2127,3.229,3.2528,3.3106,3.3345,3.3771,3.4668,3.527,3.5843,3.6355,3.6405,3.6405,3.6405,3.6405,3.6405,3.6405,3.5855,3.5458,3.537,3.4449,3.3859,3.3771,3.3319,3.3124,3.3124,3.3124,3.3124,3.3124,3.3124,3.3124,3.3124,3.3124,3.3124,3.3124,3.3124,3.3124,3.3124,3.3124,3.3124,3.3124,3.3124,3.3124,3.3124,3.3124,3.3124,3.298,3.2315,3.1436,3.052,2.9967,2.9792,2.9792,2.9792,2.9792,2.9792,2.9792,2.9792,2.9792,2.9792,2.9792,2.9792,2.9792,2.9792,2.9792,2.9792,2.9792,2.9792,2.9792,2.9792,2.9792,2.9792,2.9792,2.9792,2.9792,2.9792,2.9792,2.9792,2.9792,2.9792,2.9792,2.9352,2.9026,2.9026,2.8637,2.836,2.836,2.8197,2.8147,2.8235,2.831,2.8586,2.9013,2.9541,2.9792,2.9792,2.9792,2.9792,2.9792,2.9792,2.9792,3.0357,3.0617,3.0786,3.0963,3.1477,3.2092,3.2687,3.2503,3.219,3.2102,3.2089,3.2114,3.219,3.2616,3.3131,3.3684,3.4562,3.5182,3.5345,3.5893,3.6317,3.6405,3.6405,3.6405,3.6405,3.6405,3.6405,3.6405,3.5855,3.5295,3.4831,3.4248,3.3684,3.3262,3.3162,3.3124,3.3124,3.3124,3.3124,3.3124,3.3124,3.3124,3.3124,3.3124,3.3124,3.3124,3.3124,3.3124,3.3124,3.3124,3.3124,3.3124,3.3124,3.3124,3.3124,3.3124,3.3124,3.2973,3.1876,3.1122,3.052,2.9967,2.9792,2.9792,2.9792,2.9792,2.9792,2.9792,2.9792,2.9792,2.9792,2.9792,2.9792,2.9792,2.9792,2.9792,2.9792,2.9792,2.9792,2.9792,2.9792,2.9792,2.9792,2.9792,2.9792,2.9792,2.9792,2.9792,2.9792,2.9792,2.9792,2.9792,2.9716,2.9666,2.9666,2.9578,2.9528,2.9528,2.8637,2.831,2.875,2.9277,2.9578,2.9654,2.9741,2.9792,2.9792,2.9792,2.9792,2.9792,2.9792,2.9792,3.0105,3.1183,3.2249,3.2249,3.2482,3.2667,3.2616,3.2403,3.2127,3.1825,3.1763,3.1863,3.2152,3.2692,3.3357,3.4211,3.4731,3.5157,3.5458,3.5768,3.6031,3.6367,3.6405,3.6405,3.6405,3.6405,3.6279,3.5943,3.5646,3.5132,3.4324,3.4035,3.3646,3.3136,3.3124,3.3124,3.3124,3.3124,3.3124,3.3124,3.3124,3.3124,3.3124,3.3124,3.3124,3.3124,3.3124,3.3124,3.3124,3.3124,3.3124,3.3124,3.3124,3.3124,3.3124,3.3124,3.2692,3.2089,3.1562,3.0859,3.0131,2.988,2.9792,2.9792,2.9792,2.9792,2.9792,2.9792,2.9792,2.9792,2.9792,2.9792,2.9792,2.9792,2.9792,2.9792,2.9792,2.9792,2.9792,2.9792,2.9792,2.9792,2.9792,2.9792,2.9792,2.9792,2.9792,2.9792,2.9792,2.9792,2.9792,2.9792,2.9792,2.9792,2.9792,2.9792,2.9792,2.9792,2.9302,2.9126,2.939,2.9654,2.9792,2.9792,2.9792,2.9792,2.9792,2.9792,2.9792,2.9792,2.9792,2.9792,2.9754,3.1268,3.2802,3.2935,3.3283,3.3582,3.3389,3.3042,3.2626,3.2281,3.2059,3.2097,3.2476,3.3191,3.3949,3.494,3.4949,3.5056,3.5608,3.5683,3.5893,3.6367,3.6405,3.6355,3.6182,3.6169,3.5943,3.5345,3.5194,3.4788,3.3935,3.3771,3.3508,3.3093,3.3124,3.3124,3.3124,3.3124,3.3124,3.3124,3.3124,3.3124,3.3124,3.3124,3.3124,3.3124,3.3124,3.3124,3.3124,3.3124,3.3124,3.3124,3.3124,3.3124,3.3124,3.3124,3.2365,3.1386,3.1386,3.0696,2.9792,2.9792,2.9792,2.9792,2.9792,2.9792,2.9792,2.9792,2.9792,2.9792,2.9792,2.9792,2.9792,2.9792,2.9792,2.9792,2.9792,2.9792,2.9792,2.9792,2.9792,2.9792,2.9792,2.9792,2.9792,2.9792,2.9792,2.9792,2.9792,2.9792,2.9792,2.9792,2.9792,2.9792,2.9792,2.9792,2.9792,2.9792,2.9792,2.9792,2.9792,2.9792,2.9792,2.9792,2.9792,2.9792,2.9792,2.9792,2.9792,2.9792,2.9792,2.9867,2.9641,3.0894,3.2197,3.2698,3.4001,3.5427,3.6563,3.5492,3.4292,3.4524,3.4056,3.3633,3.3673,3.4566,3.5509,3.6083,3.5782,3.5633,3.6267,3.6355,3.6367,3.6405,3.6405,3.6157,3.5608,3.5558,3.5332,3.4781,3.4311,3.3985,3.3909,3.342,3.3162,3.3124,3.3124,3.3124,3.3124,3.3124,3.3124,3.3124,3.3124,3.3124,3.3124,3.3124,3.3124,3.3124,3.3124,3.3124,3.3124,3.3124,3.3124,3.3124,3.3124,3.3124,3.3124,3.3124,3.2365,3.1386,3.1386,3.0696,2.9792,2.9792,2.9792,2.9792,2.9792,2.9792,2.9792,2.9792,2.9792,2.9792,2.9792,2.9792,2.9792,2.9792,2.9792,2.9792,2.9792,2.9792,2.9792,2.9792,2.9792,2.9792,2.9792,2.9792,2.9792,2.9792,2.9792,2.9792,2.9792,2.9792,2.9792,2.9792,2.9792,2.9792,2.9792,2.9792,2.9792,2.9792,2.9792,2.9792,2.9792,2.9792,2.9792,2.9792,2.9792,2.9792,2.9792,2.9792,2.9792,2.9792,2.9792,3.0068,2.9101,3.0674,3.2294,3.3087,3.477,3.6217,3.6039,3.577,3.5542,3.5653,3.5478,3.5397,3.5777,3.6185,3.6659,3.7213,3.7112,3.708,3.7306,3.7333,3.7083,3.6398,3.6366,3.5987,3.5097,3.4994,3.4756,3.4248,3.401,3.3746,3.3407,3.3194,3.3124,3.3124,3.3124,3.3124,3.3124,3.3124,3.3124,3.3124,3.3124,3.3124,3.3124,3.3124,3.3124,3.3124,3.3124,3.3124,3.3124,3.3124,3.3124,3.3124,3.3124,3.3124,3.3031,3.2667,3.2051,3.1348,3.1022,3.0419,2.9792,2.9792,2.9792,2.9792,2.9792,2.9792,2.9792,2.9792,2.9792,2.9792,2.9792,2.9792,2.9792,2.9792,2.9792,2.9792,2.9792,2.9792,2.9792,2.9792,2.9792,2.9792,2.9792,2.9792,2.9792,2.9792,2.9792,2.9792,2.9792,2.9792,2.9792,2.9792,2.9792,2.9792,2.9792,2.9792,2.9792,2.9792,2.9792,2.9792,2.9792,2.9792,2.9792,2.9792,2.9792,2.9792,2.9792,2.9792,2.9967,3.0306,3.0306,3.0583,2.8561,3.0236,3.2166,3.3303,3.5091,3.648,3.6324,3.6604,3.6939,3.701,3.6861,3.6822,3.723,3.7314,3.751,3.807,3.7882,3.7717,3.7896,3.7882,3.7631,3.6882,3.6509,3.5948,3.5059,3.4628,3.4236,3.3684,3.3633,3.347,3.3136,3.3124,3.3124,3.3124,3.3124,3.3124,3.3124,3.3124,3.3124,3.3124,3.3124,3.3124,3.3124,3.3124,3.3124,3.3124,3.3124,3.3124,3.3124,3.3124,3.3124,3.3124,3.3124,3.3124,3.3074,3.2629,3.2014,3.1336,3.0984,3.0394,2.9817,2.9993,2.993,2.9829,2.9993,2.993,2.9792,2.9792,2.9792,2.9792,2.9792,2.9792,2.9792,2.9792,2.9792,2.9792,2.9792,2.9792,2.9792,2.9792,2.9792,2.9792,2.9792,2.9792,2.9792,2.9792,2.9792,2.9792,2.9792,2.9792,2.9792,2.9792,2.9792,2.9792,2.9792,2.9792,2.9792,2.9792,2.9792,2.9792,2.9792,2.9792,2.9792,2.9792,2.9792,2.988,3.0055,3.0055,3.0331,3.0859,3.0859,3.1148,2.8097,2.9593,3.1559,3.3193,3.4802,3.6409,3.8052,3.8392,3.8466,3.875,3.8261,3.7829,3.7829,3.7829,3.7992,3.8625,3.7833,3.7303,3.7827,3.791,3.791,3.791,3.6954,3.6111,3.5532,3.4546,3.3658,3.3162,3.3124,3.3124,3.3124,3.3124,3.3124,3.3124,3.3124,3.3124,3.3124,3.3124,3.3124,3.3111,3.3111,3.3111,3.3124,3.3111,3.3111,3.3111,3.3111,3.3056,3.3056,3.3056,3.3056,3.3056,3.3111,3.3111,3.3056,3.3111,3.2353,3.1386,3.1386,3.0683,2.988,3.0432,3.0231,2.9892,3.0444,3.0231,2.9792,2.9792,2.9792,2.9792,2.9792,2.9792,2.9792,2.9792,2.9792,2.9792,2.9792,2.9792,2.9792,2.9792,2.9792,2.9792,2.9792,2.9792,2.9792,2.9792,2.9792,2.9792,2.9792,2.9792,2.9792,2.9792,2.9792,2.9792,2.9792,2.9792,2.9792,2.9792,2.9792,2.9792,2.9792,2.9792,2.9792,2.9792,2.9804,3.0068,3.062,3.062,3.0884,3.1399,3.1386,3.1687,2.7532,2.8543,3.0154,3.2458,3.4334,3.6065,3.7964,3.8766,3.9107,3.9187,3.9077,3.8943,3.8943,3.8943,3.8966,3.9158,3.8913,3.8771,3.8923,3.8952,3.8672,3.7912,3.7546,3.6709,3.5093,3.4635,3.4091,3.3167,3.3124,3.3124,3.3124,3.3124,3.3124,3.3124,3.3124,3.3124,3.3124,3.3124,3.2867,3.2466,3.2466,3.2679,3.3111,3.2654,3.2466,3.2453,3.2064,3.1888,3.1888,3.1888,3.1888,3.1926,3.2315,3.224,3.1938,3.2328,3.1788,3.0846,3.0846,3.0382,2.9817,2.998,2.993,2.9829,2.9993,2.993,2.9792,2.9792,2.9792,2.9792,2.9792,2.9792,2.9792,2.9792,2.9792,2.9792,2.9792,2.9792,2.9792,2.9792,2.9792,2.9792,2.9792,2.9792,2.9792,2.9792,2.9792,2.9792,2.9792,2.9792,2.9792,2.9792,2.9792,2.9792,2.9792,2.9792,2.9792,2.9792,2.9792,2.9792,2.9792,2.9792,2.9792,2.9792,3.0168,3.0457,3.062,3.062,3.1085,3.1951,3.1574,3.1901,2.816,2.8925,3.0139,3.2579,3.4314,3.5985,3.8278,3.9125,3.9388,3.9388,3.9388,3.9388,3.9388,3.9388,3.9388,3.9388,3.9388,3.9388,3.9388,3.9388,3.9141,3.8509,3.8069,3.7319,3.6055,3.5183,3.4428,3.3797,3.3356,3.3124,3.3124,3.3124,3.3124,3.3124,3.3124,3.3124,3.3124,3.3124,3.278,3.2215,3.2215,3.2277,3.239,3.2051,3.1888,3.1863,3.1537,3.1386,3.1386,3.1386,3.1386,3.1424,3.175,3.1687,3.1436,3.1763,3.1348,3.062,3.062,3.0256,2.9829,3.0043,2.9967,2.9829,3.0055,2.9967,2.9792,2.9792,2.9792,2.9792,2.9792,2.9792,2.9792,2.9792,2.9792,2.9792,2.9792,2.9792,2.9792,2.9792,2.9792,2.9792,2.9792,2.9792,2.9792,2.9792,2.9792,2.9792,2.9792,2.9792,2.9792,2.9792,2.9792,2.9792,2.9792,2.9792,2.9792,2.9792,2.9792,2.9792,2.9792,2.9792,2.9792,2.9792,3.0738,3.112,3.0922,3.1552,3.2125,3.2554,3.2215,3.2428,2.9365,3.008,3.1063,3.3171,3.468,3.6268,3.8686,3.9337,3.9388,3.9388,3.9388,3.9388,3.9388,3.9388,3.9388,3.9388,3.9388,3.9388,3.9388,3.9388,3.9388,3.9388,3.8546,3.7919,3.7791,3.6094,3.491,3.4705,3.3797,3.3197,3.3124,3.3074,3.3006,3.3006,3.2955,3.2973,3.2973,3.2973,3.2629,3.2064,3.2064,3.1775,3.1248,3.1298,3.1286,3.1248,3.1248,3.1248,3.1248,3.1248,3.1248,3.1248,3.1298,3.1286,3.126,3.1348,3.1035,3.0545,3.0595,3.0256,2.988,3.0382,3.0206,2.988,3.0382,3.0193,2.9792,2.9792,2.9792,2.9792,2.9792,2.9792,2.9792,2.9792,2.9792,2.9792,2.9792,2.9792,2.9792,2.9792,2.9792,2.9792,2.9792,2.9792,2.9792,2.9792,2.9792,2.9817,2.9867,2.9829,2.9817,2.9867,2.9829,2.9792,2.9792,2.9792,2.9792,2.9792,2.9792,2.9792,2.9792,2.9792,2.9792,2.9792,3.1447,3.2032,3.1549,3.3182,3.3757,3.3398,3.3348,3.3275,2.8398,2.9202,3.0493,3.2647,3.5239,3.7429,3.8003,3.8782,3.9388,3.9388,3.9388,3.9388,3.9388,3.9388,3.9388,3.9388,3.9388,3.9388,3.9388,3.9388,3.9388,3.9388,3.9177,3.8745,3.7866,3.7396,3.645,3.4828,3.4511,3.3995,3.3154,3.2641,3.2403,3.2403,3.1976,3.175,3.175,3.175,3.1486,3.0959,3.0959,3.067,3.0156,3.0583,3.0545,3.0131,3.0131,3.0131,3.0131,3.0131,3.0131,3.0181,3.062,3.052,3.0244,3.1085,3.0783,3.003,3.047,3.0256,2.9817,2.993,2.9892,2.9817,2.993,2.988,2.9792,2.9792,2.9792,2.9792,2.9792,2.9792,2.9792,2.9792,2.9792,2.9792,2.9792,2.9792,2.9792,2.9792,2.9792,2.9792,2.9792,2.9792,2.9792,2.9792,2.9792,2.9942,3.0382,3.0068,2.9955,3.0394,3.0043,2.9792,2.9792,2.9792,2.9792,2.9792,2.9792,2.9792,2.9792,2.9792,2.9792,2.9792,3.1785,3.2777,3.2673,3.4278,3.5215,3.5534,3.5087,3.4701,2.8637,2.9716,3.1088,3.3289,3.5087,3.6568,3.7563,3.8234,3.8782,3.9301,3.9388,3.9388,3.9388,3.9388,3.9388,3.9388,3.9388,3.9388,3.9388,3.9388,3.9388,3.9388,3.9388,3.9177,3.862,3.8107,3.7357,3.6292,3.4982,3.4168,3.3898,3.2545,3.1938,3.2202,3.1675,3.1386,3.1386,3.1386,3.1135,3.062,3.062,3.0331,2.9804,3.0093,3.0068,2.9792,2.9792,2.9792,2.9792,2.9792,2.9792,2.9817,3.0105,3.0043,2.9867,3.0419,3.0269,2.9829,3.0118,3.003,2.9792,2.9792,2.9792,2.9792,2.9792,2.9792,2.9792,2.9792,2.9792,2.9792,2.9792,2.9792,2.9792,2.9792,2.9792,2.9792,2.9792,2.9792,2.9792,2.9792,2.9792,2.9792,2.9792,2.9792,2.9792,2.9792,3.0018,3.0294,3.0583,3.0583,3.067,3.0947,3.0733,3.0457,3.0206,3.0181,3.0068,2.9817,2.9792,2.9792,2.9792,3.0043,3.0276,3.0457,3.2648,3.3723,3.3671,3.561,3.6441,3.6184,3.5894,3.5382,2.8731,3.0301,3.1871,3.3775,3.4474,3.5142,3.688,3.7396,3.7829,3.8892,3.9265,3.9388,3.9388,3.9388,3.9388,3.9388,3.9388,3.9388,3.9388,3.932,3.929,3.9373,3.932,3.9254,3.9373,3.8583,3.7951,3.7633,3.5551,3.4326,3.4388,3.254,3.1653,3.1926,3.1399,3.111,3.111,3.111,3.0896,3.047,3.047,3.0231,2.9792,2.9792,2.9792,2.9792,2.9792,2.9792,2.9792,2.9792,2.9792,2.9792,2.9792,2.9792,2.9792,2.9792,2.9792,2.9792,2.9792,2.9792,2.9792,2.9792,2.9792,2.9792,2.9792,2.9792,2.9792,2.9792,2.9792,2.9792,2.9792,2.9792,2.9792,2.9792,2.9792,2.9792,2.9792,2.9792,2.9792,2.9792,2.9792,2.9792,2.9792,2.9792,2.9792,2.9792,3.0269,3.0645,3.0733,3.1122,3.1424,3.1524,3.1449,3.1223,3.0783,3.0758,3.0557,3.0093,3.0068,3.0068,3.0068,3.0507,3.0968,3.1483,3.3619,3.4784,3.4868,3.7028,3.7625,3.676,3.676,3.6225,2.68,2.9155,3.1578,3.2319,3.3607,3.4787,3.5061,3.5802,3.6735,3.7791,3.8745,3.9388,3.9388,3.9388,3.9388,3.9388,3.9388,3.9388,3.9388,3.8901,3.8751,3.9313,3.8901,3.8766,3.9328,3.9265,3.8583,3.7059,3.6619,3.5412,3.3159,3.2319,3.1578,3.0821,3.0294,3.0005,3.0005,3.0005,2.9967,2.9905,2.9905,2.9867,2.9792,2.9792,2.9792,2.9792,2.9792,2.9792,2.9792,2.9792,2.9792,2.9792,2.9792,2.9792,2.9792,2.9792,2.9792,2.9792,2.9792,2.9792,2.9792,2.9792,2.9792,2.9792,2.9792,2.9792,2.9792,2.9792,2.9792,2.9792,2.9792,2.9792,2.9792,2.9792,2.9792,2.9792,2.9792,2.9792,2.9792,2.9792,2.9792,2.9792,2.9792,2.9792,2.9792,2.9792,3.0269,3.0783,3.1223,3.1348,3.1574,3.2051,3.1675,3.1361,3.1298,3.1286,3.1248,3.1185,3.1185,3.1185,3.1185,3.1248,3.1694,3.2554,3.4374,3.5727,3.6653,3.8355,3.9104,3.8965,3.8965,3.8383,2.6954,2.9003,3.0771,3.1926,3.2755,3.354,3.4474,3.5047,3.5628,3.6696,3.7738,3.8708,3.9301,3.9388,3.9388,3.9388,3.9388,3.9388,3.9388,3.8826,3.8497,3.8796,3.8571,3.8362,3.8302,3.8631,3.8513,3.7744,3.6859,3.5744,3.4312,3.2886,3.1668,3.0608,3.008,2.9792,2.9792,2.9792,2.9792,2.9792,2.9792,2.9792,2.9792,2.9792,2.9792,2.9792,2.9792,2.9792,2.9792,2.9792,2.9792,2.9792,2.9792,2.9792,2.9792,2.9792,2.9792,2.9792,2.9792,2.9792,2.9792,2.9792,2.9792,2.9792,2.9792,2.9792,2.9792,2.9792,2.9792,2.9792,2.9792,2.9792,2.9792,2.9792,2.9792,2.9792,2.9792,2.9792,2.988,3.0193,3.0005,2.9892,3.0206,2.9993,2.9792,2.9792,3.0269,3.0809,3.1323,3.1662,3.2064,3.2641,3.2478,3.2202,3.1876,3.1851,3.1725,3.1411,3.1386,3.1386,3.1386,3.1687,3.2632,3.4248,3.5025,3.5877,3.6901,3.8582,3.9388,3.9388,3.9388,3.8819,2.6757,2.8405,2.9607,3.1167,3.1901,3.2525,3.3783,3.4199,3.4581,3.5628,3.6476,3.7434,3.8745,3.9079,3.9215,3.9358,3.9275,3.9215,3.9394,3.8676,3.8197,3.8362,3.8108,3.7778,3.7434,3.7853,3.8138,3.8138,3.7037,3.6115,3.5587,3.3663,3.2077,3.1057,3.0224,2.9792,2.9792,2.9792,2.9792,2.9792,2.9792,2.9792,2.9792,2.9792,2.9792,2.9792,2.9792,2.9792,2.9792,2.9792,2.9792,2.9792,2.9792,2.9792,2.9792,2.9792,2.9792,2.9792,2.9792,2.9792,2.9792,2.9792,2.9792,2.9792,2.9792,2.9792,2.9792,2.9792,2.9792,2.9792,2.9792,2.9792,2.9792,2.9792,2.9792,2.9792,2.9792,2.9792,2.9917,3.0331,3.0068,2.993,3.0331,3.0068,2.9792,2.9792,3.0369,3.0947,3.1336,3.2001,3.2604,3.3031,3.3124,3.2905,3.2466,3.2428,3.2252,3.1851,3.1813,3.1813,3.1813,3.2215,3.3307,3.5186,3.546,3.6216,3.7441,3.8779,3.9388,3.9388,3.9388,3.898,2.5217,2.6761,2.7992,2.956,3.1072,3.2215,3.2323,3.2764,3.3471,3.4553,3.4828,3.5494,3.751,3.8179,3.8661,3.932,3.8871,3.8676,3.9334,3.8287,3.7689,3.8317,3.7315,3.6806,3.736,3.7434,3.7464,3.7464,3.7385,3.6941,3.6028,3.4399,3.3077,3.2154,3.0625,2.9792,2.9792,2.9792,2.9792,2.9792,2.9792,2.9792,2.9792,2.9792,2.9792,2.9792,2.9792,2.9792,2.9792,2.9792,2.9792,2.9792,2.9792,2.9792,2.9792,2.9792,2.9792,2.9792,2.9792,2.9792,2.9792,2.9792,2.9792,2.9792,2.9792,2.9792,2.9792,2.9792,2.9792,2.9792,2.9792,2.9792,2.9792,2.9792,2.9792,2.9792,2.9792,2.9792,2.9804,2.9829,2.9817,2.9804,2.9829,2.9817,2.9792,2.9792,3.0683,3.1361,3.1386,3.2353,3.3086,3.3124,3.3124,3.3111,3.3074,3.3031,3.3061,3.2993,3.2993,3.2993,3.2993,3.3061,3.359,3.4693,3.5654,3.7195,3.9256,3.9358,3.9388,3.9388,3.9388,3.9373,2.359,2.5156,2.6714,2.7999,2.95,3.0746,3.111,3.1876,3.2542,3.2564,3.34,3.4446,3.544,3.6573,3.7695,3.86,3.8556,3.8482,3.8721,3.8332,3.8123,3.8362,3.7988,3.7629,3.7419,3.7793,3.7853,3.7434,3.7404,3.6803,3.5429,3.4233,3.296,3.1585,3.042,2.9792,2.9792,2.9792,2.9792,2.9792,2.9792,2.9792,2.9792,2.9792,2.9792,2.9792,2.9792,2.9792,2.9792,2.9792,2.9792,2.9792,2.9792,2.9792,2.9792,2.9792,2.9792,2.9792,2.9792,2.9792,2.9792,2.9792,2.9792,2.9792,2.9792,2.9792,2.9792,2.9792,2.9792,2.9792,2.9792,3.056,3.1613,3.2642,3.2887,3.2887,3.2887,3.1526,3.0419,3.0746,3.0545,3.0319,3.0319,3.0319,3.0319,3.0319,3.0934,3.1524,3.1876,3.2265,3.2667,3.3074,3.3124,3.3124,3.3124,3.3124,3.3124,3.3124,3.3755,3.4108,3.4108,3.4774,3.5588,3.6685,3.7021,3.7625,3.8383,3.9068,3.9388,3.9388,3.9388,3.9388,2.2415,2.3704,2.52,2.6797,2.811,2.9291,3.0365,3.116,3.1625,3.1436,3.225,3.3211,3.3801,3.5073,3.6517,3.8121,3.8392,3.8467,3.8691,3.8542,3.8392,3.8392,3.8197,3.7883,3.7449,3.7808,3.7973,3.7749,3.7539,3.701,3.6204,3.4825,3.3192,3.1267,3.0279,2.9792,2.9792,2.9792,2.9792,2.9792,2.9792,2.9792,2.9792,2.9792,2.9792,2.9792,2.9792,2.9792,2.9792,2.9792,2.9792,2.9792,2.9792,2.9792,2.9792,2.9792,2.9792,2.9792,2.9792,2.9792,2.9792,2.9792,2.9792,2.9792,2.9792,2.9792,2.9792,2.9792,2.993,3.0133,3.0496,3.1793,3.3287,3.4361,3.4594,3.4649,3.482,3.3035,3.1519,3.1864,3.1339,3.0871,3.0871,3.0871,3.0871,3.0871,3.1323,3.18,3.2164,3.239,3.2654,3.3074,3.3124,3.3124,3.3124,3.3124,3.324,3.3598,3.4317,3.4705,3.4705,3.5668,3.6526,3.7266,3.7625,3.7994,3.8345,3.9068,3.9388,3.9388,3.9388,3.9017,0.0,0.0,0.0,2.5847,2.6959,2.7963,2.998,3.0493,3.0668,3.121,3.1336,3.1688,3.2738,3.3758,3.5268,3.7911,3.8377,3.8652,3.9326,3.8897,3.8477,3.8492,3.7888,3.7499,3.7464,3.7464,3.7719,3.8347,3.7778,3.7689,3.8302,3.6204,3.3825,3.1267,3.0317,2.983,2.9792,2.9792,2.9792,2.9792,2.9792,2.9792,2.9792,2.9792,2.9792,2.9792,2.9792,2.9792,2.9792,2.9792,2.9792,2.9792,2.9792,2.9792,2.9792,2.9792,2.9792,2.9792,2.9792,2.9792,2.9792,2.9792,2.9792,2.9792,2.9792,2.9792,2.9792,2.9817,3.0206,3.0925,3.2053,3.3519,3.4673,3.4724,3.4724,3.4891,3.5398,3.4273,3.3105,3.3053,3.2182,3.1452,3.1399,3.1399,3.1411,3.1386,3.1876,3.2227,3.2256,3.2759,3.3154,3.3154,3.3154,3.3154,3.3124,3.3154,3.3628,3.4622,3.4746,3.4787,3.4746,3.5708,3.6251,3.6251,3.7266,3.8345,3.9388,3.9388,3.9388,3.9388,3.9373,3.8204,2.0934,0.0,0.0,0.0,0.0,0.0,2.6825,2.7779,2.858,2.9424,2.9942,3.0519,3.153,3.3254,3.5008,3.6446,3.8161,3.9425,3.9576,4.0411,4.0765,4.0139,3.9883,3.9551,3.8927,3.8871,3.8736,3.8407,3.7778,3.73,3.703,3.5278,3.334,3.1254,3.0932,3.0482,2.9792,2.9792,2.9792,2.9792,2.9792,2.9792,2.9792,2.9792,2.9792,2.9792,2.9792,2.9792,2.9792,2.9792,2.9792,2.9792,2.9792,2.9792,2.9792,2.9792,2.9792,2.9792,2.9792,2.9792,2.9792,2.9792,2.9792,2.9792,2.9792,2.9792,2.988,3.0281,3.1047,3.2352,3.4999,3.6012,3.6638,3.7791,3.8055,3.8099,3.8238,3.7313,3.5889,3.3966,3.3342,3.2781,3.1612,3.1725,3.1851,3.1449,3.2215,3.2963,3.3305,3.3897,3.4275,3.4275,3.4925,3.4719,3.324,3.4485,3.5156,3.4746,3.6094,3.6593,3.5814,3.6788,3.7343,3.7343,3.7663,3.8345,3.9388,3.9388,3.9388,3.9388,3.8583,3.7112,2.0605,2.1001,2.1568,2.2203,0.0,0.0,2.5401,2.6132,2.685,2.8285,2.8846,2.9406,3.0431,3.2248,3.3854,3.4599,3.7205,3.9346,4.0006,4.0896,4.1412,4.1247,4.0912,4.05,3.999,3.961,3.9245,3.8856,3.8197,3.7419,3.6537,3.4927,3.331,3.1815,3.1389,3.0758,2.9792,2.9792,2.9792,2.9792,2.9792,2.9792,2.9792,2.9792,2.9792,2.9792,2.9792,2.9792,2.9792,2.9792,2.9792,2.9792,2.9792,2.9792,2.9792,2.9792,2.9792,2.9792,2.9792,2.9792,2.9792,2.9792,2.9792,2.9792,2.9792,2.9955,3.0206,3.052,3.2033,3.411,3.6673,3.7681,3.8238,3.9175,3.9388,3.9388,3.9388,3.8907,3.7751,3.5285,3.4473,3.3759,3.2348,3.2365,3.2466,3.2139,3.3051,3.3866,3.4148,3.4834,3.5319,3.5319,3.5854,3.5694,3.4485,3.5494,3.6132,3.6001,3.671,3.6852,3.6251,3.6813,3.6958,3.6515,3.6905,3.7458,3.8092,3.8965,3.9177,3.8708,3.7204,3.5855,2.0615,2.0605,2.0917,2.2302,2.2238,0.0,2.4829,2.4993,2.525,2.7265,2.7676,2.8028,2.9218,3.0752,3.2038,3.2643,3.5628,3.8561,4.0384,4.0829,4.128,4.2062,4.1478,4.0912,4.0724,3.999,3.9517,3.9424,3.8781,3.7823,3.6552,3.5102,3.3811,3.2784,3.1852,3.0895,2.996,2.9856,2.9792,2.9792,2.9792,2.9792,2.9792,2.9792,2.9792,2.9792,2.9792,2.9792,2.9792,2.9792,2.9792,2.9792,2.9792,2.9792,2.9792,2.9792,2.9869,2.9934,2.983,2.9934,3.0075,2.9869,2.9934,3.0075,2.9856,3.0247,3.0819,3.1052,3.3328,3.6039,3.7571,3.8708,3.9388,3.9388,3.9388,3.9388,3.9388,3.9388,3.8819,3.676,3.5547,3.4498,3.3313,3.3124,3.3142,3.3152,3.4027,3.4761,3.4927,3.5787,3.6369,3.6369,3.6487,3.6448,3.6237,3.6408,3.6891,3.7753,3.7021,3.6448,3.6198,3.6198,3.5734,3.4705,3.5708,3.6198,3.6198,3.813,3.8509,3.7396,3.5574,3.4622,2.0703,2.0605,2.0664,2.0966,2.0965,0.0,2.245,2.2668,2.3058,2.4709,2.5024,2.5493,2.6954,2.8587,2.9988,3.0871,3.3436,3.6519,3.9967,4.1805,4.2847,4.3017,4.2878,4.2221,4.0844,4.0554,4.015,3.9445,3.8781,3.7823,3.6552,3.6209,3.5301,3.3788,3.282,3.1888,3.0932,3.0177,2.9792,2.9792,2.9792,2.9792,2.9792,2.9792,2.9792,2.9792,2.9792,2.9792,2.9792,2.9792,2.9792,2.9792,2.9792,2.9792,2.9792,2.9792,3.0279,3.0833,3.0075,3.0784,3.1792,3.0292,3.0809,3.1756,3.0254,3.0701,3.2095,3.3968,3.5868,3.7595,3.8789,3.9228,3.9388,3.9388,3.9388,3.9388,3.9388,3.9388,3.9017,3.7753,3.6618,3.5305,3.3428,3.3124,3.3233,3.3623,3.4237,3.513,3.6396,3.7082,3.751,3.751,3.8256,3.8092,3.6369,3.7762,3.8494,3.7829,3.842,3.8003,3.6277,3.6198,3.5734,3.4705,3.5708,3.6198,3.6198,3.6643,3.6304,3.5305,3.491,3.4233,2.0723,2.0605,2.0605,2.0605,2.0605,0.0,0.0,2.1193,2.1233,2.2801,2.3082,2.3488,2.4798,2.6215,2.7472,2.8402,3.0623,3.3234,3.6115,3.9226,4.1563,4.2536,4.2645,4.2316,4.1429,4.0946,4.0343,3.9481,3.8781,3.7973,3.7,3.6656,3.5733,3.4041,3.3518,3.2855,3.1924,3.1439,3.1206,3.1206,3.0733,3.0482,3.0482,2.9998,2.9792,2.9792,2.9792,2.9792,2.9792,2.9792,2.9792,2.9792,2.9792,2.9792,2.9792,2.9792,3.0381,3.1143,3.0658,3.1402,3.2464,3.1513,3.1829,3.2429,3.1476,3.2126,3.3569,3.5308,3.6757,3.8032,3.9104,3.9388,3.9388,3.9388,3.9388,3.9388,3.9388,3.9388,3.9068,3.7994,3.7381,3.6344,3.4275,3.3911,3.3975,3.4214,3.5371,3.6535,3.7284,3.8119,3.8583,3.8583,3.9068,3.8965,3.789,3.8767,3.9177,3.862,3.8583,3.789,3.629,3.5694,3.4966,3.3911,3.4415,3.4637,3.4637,3.4637,3.465,3.4705,3.415,3.3598,2.0752,2.0605,2.0605,2.0605,2.0605,2.0703,0.0,0.0,0.0,2.1091,2.119,2.1405,2.2677,2.3655,2.4647,2.5806,2.7734,2.9693,3.1344,3.4877,3.8302,4.102,4.147,4.1533,4.1565,4.0776,3.9997,3.943,3.8781,3.8108,3.7449,3.6941,3.5933,3.4341,3.4095,3.3636,3.289,3.2713,3.2593,3.2593,3.1815,3.1462,3.1426,3.0495,3.0075,3.0075,2.9869,2.9792,2.9792,2.9792,2.9792,2.9792,2.9792,2.9792,2.983,2.9998,3.0658,3.1462,3.1462,3.2213,3.3101,3.2713,3.2593,3.2621,3.2731,3.3559,3.4757,3.5833,3.7021,3.8119,3.8984,3.932,3.9388,3.9388,3.9388,3.9388,3.9388,3.9388,3.9068,3.7994,3.7791,3.719,3.5292,3.4979,3.5061,3.5264,3.6724,3.7866,3.8069,3.887,3.9388,3.9388,3.9388,3.9388,3.9388,3.9388,3.9388,3.9388,3.8383,3.7305,3.6237,3.5047,3.3995,3.3124,3.3124,3.3124,3.3124,3.3124,3.3556,3.4345,3.3513,3.3124,2.083,2.0605,2.0605,2.0605,2.0605,2.0615,2.0674,0.0,1.9118,1.9274,0.0,1.8437,2.0411,0.0,0.0,2.3556,2.5208,2.6653,2.7837,2.9585,3.2813,3.834,3.9513,3.9918,3.9959,3.9181,3.8857,3.9364,3.8781,3.8108,3.7449,3.7345,3.6679,3.5356,3.4461,3.3959,3.3842,3.3031,3.2593,3.2593,3.25,3.2464,3.2429,3.1462,3.1044,3.1007,3.0177,2.9792,2.9792,2.9792,2.9792,2.9792,2.9792,2.9792,2.9895,3.0733,3.1646,3.2464,3.2464,3.365,3.4887,3.315,3.2593,3.2704,3.3156,3.4084,3.5081,3.5726,3.7083,3.8355,3.8461,3.896,3.9388,3.9388,3.9388,3.9388,3.9388,3.9388,3.9068,3.7994,3.7791,3.742,3.6251,3.6053,3.633,3.7319,3.7639,3.8144,3.9104,3.9301,3.9388,3.9388,3.9388,3.9388,3.9388,3.9388,3.9388,3.9388,3.8383,3.7305,3.6237,3.4332,3.324,3.3124,3.3124,3.3124,3.3124,3.3124,3.3154,3.3283,3.3154,3.3124,2.0772,2.0605,2.0605,2.0605,2.0605,2.0605,2.0605,1.9756,1.8798,1.8149,0.0,0.0,0.0,0.0,0.0,0.0,2.2859,2.4373,2.5043,2.6262,2.9125,3.4645,3.5981,3.7119,3.8724,3.9047,3.9226,3.94,3.8781,3.8272,3.8003,3.7614,3.7,3.6103,3.5292,3.4872,3.4872,3.4476,3.4274,3.4274,3.3685,3.3415,3.338,3.2464,3.1997,3.196,3.1007,3.062,3.0558,3.0037,2.9792,2.9792,2.9792,2.9792,2.9895,3.0871,3.1779,3.2664,3.3206,3.4341,3.5359,3.4558,3.4274,3.4345,3.4725,3.556,3.6388,3.6396,3.7659,3.8901,3.8497,3.8601,3.8826,3.8826,3.8527,3.8362,3.8736,3.8316,3.7879,3.7794,3.7305,3.6735,3.629,3.6735,3.7266,3.7753,3.8345,3.8907,3.9337,3.9388,3.9388,3.9388,3.9388,3.9388,3.9388,3.9388,3.9388,3.9388,3.7814,3.6422,3.5359,3.3911,3.3124,3.3124,3.3124,3.3124,3.3124,3.3124,3.3124,3.3124,3.3124,3.3124,2.0723,2.0605,2.0605,2.0605,2.0605,2.0605,2.0605,1.9756,1.8785,1.8076,1.7401,0.0,0.0,0.0,1.9002,1.9466,0.0,2.2709,2.303,2.3753,2.605,3.0791,3.2646,3.4655,3.741,3.8103,3.8607,3.9101,3.8497,3.8197,3.8377,3.7764,3.712,3.6507,3.5848,3.5504,3.5504,3.5504,3.5504,3.5504,3.4758,3.4394,3.4394,3.3429,3.2996,3.2925,3.1997,3.1426,3.1143,3.0444,3.0037,2.9792,2.9792,2.9792,2.9934,3.1156,3.1997,3.2784,3.3993,3.4872,3.5457,3.518,3.5279,3.5502,3.5613,3.6347,3.7103,3.6819,3.7735,3.8706,3.8048,3.7988,3.8167,3.8347,3.8018,3.7739,3.7955,3.739,3.6831,3.6721,3.6328,3.594,3.5787,3.6905,3.7791,3.7791,3.8708,3.9388,3.9388,3.9388,3.9388,3.9388,3.9388,3.9388,3.9388,3.9388,3.9141,3.8568,3.6813,3.5319,3.4304,3.3513,3.3124,3.3124,3.3124,3.3124,3.3124,3.3124,3.3124,3.3124,3.3124,3.3124,2.0723,2.0605,2.0605,2.0605,2.0605,2.0605,2.0605,1.9756,1.9105,1.9444,1.772,1.6556,1.8059,1.8382,1.865,1.9309,2.0816,0.0,0.0,2.1967,2.3338,2.6943,3.0088,3.3057,3.5806,3.5522,3.6047,3.8282,3.7808,3.7719,3.8362,3.7764,3.712,3.6507,3.5848,3.5504,3.5504,3.5504,3.5504,3.5504,3.5472,3.5457,3.5439,3.4394,3.3959,3.391,3.2961,3.2033,3.1217,3.118,3.062,2.9792,2.9792,2.9792,2.9998,3.1865,3.2558,3.2855,3.4787,3.5472,3.5359,3.4361,3.4725,3.5446,3.5131,3.5707,3.6522,3.6503,3.6967,3.733,3.6716,3.6985,3.7599,3.8242,3.8377,3.81,3.7237,3.7003,3.6381,3.4338,3.4733,3.529,3.4845,3.645,3.7791,3.7791,3.8708,3.9388,3.9388,3.9388,3.9388,3.9388,3.9388,3.9388,3.9388,3.9388,3.8494,3.6434,3.5319,3.4275,3.3197,3.3124,3.3124,3.3124,3.3124,3.3124,3.3124,3.3124,3.3124,3.3124,3.3124,3.3124,2.0644,2.0605,2.0605,2.0605,2.0605,2.0605,2.0605,2.0323,1.9957,1.9656,1.895,1.8439,1.8521,1.9093,1.9687,1.9898,2.1046,2.1787,0.0,2.1455,2.2362,2.4912,2.8378,3.1032,3.2256,3.396,3.5687,3.7353,3.7416,3.7898,3.9005,3.8018,3.7315,3.7105,3.6058,3.5504,3.5504,3.5504,3.5504,3.5504,3.5504,3.5504,3.5504,3.5133,3.4986,3.4953,3.3959,3.2996,3.2069,3.1462,3.0658,2.9792,2.9792,2.9792,2.9934,3.1217,3.1669,3.196,3.3856,3.4953,3.5424,3.51,3.5528,3.6234,3.6511,3.7134,3.7749,3.7749,3.7898,3.8003,3.7808,3.7584,3.7584,3.8227,3.8063,3.7595,3.6997,3.6329,3.5582,3.4606,3.414,3.3846,3.3687,3.4828,3.6213,3.7601,3.8107,3.8583,3.9301,3.9388,3.9388,3.9388,3.9388,3.9388,3.9388,3.8745,3.7434,3.5319,3.4897,3.4233,3.3154,3.3124,3.3124,3.3124,3.3797,3.3797,3.3124,3.4485,3.4802,3.4191,3.4843,3.4402,2.0605,2.0605,2.0605,2.0605,2.0605,2.0644,2.0762,2.0801,2.0759,2.0664,2.0301,1.9907,1.9592,2.0147,2.0533,2.0397,2.1348,2.1904,0.0,2.1453,2.2073,2.3237,2.6382,2.8887,3.0031,3.2581,3.4832,3.6519,3.7128,3.8003,3.9313,3.8362,3.7659,3.7419,3.6402,3.5744,3.5504,3.5504,3.5504,3.5504,3.5504,3.5504,3.5504,3.5504,3.5504,3.5472,3.4806,3.3993,3.3031,3.2069,3.1156,3.0279,2.9934,2.9792,2.9895,3.0871,3.1609,3.2393,3.3602,3.4658,3.5504,3.5504,3.5953,3.6596,3.7225,3.7868,3.8392,3.8392,3.8392,3.8347,3.8108,3.7719,3.7466,3.776,3.7491,3.6856,3.5723,3.5099,3.4537,3.3692,3.311,3.283,3.3043,3.367,3.4705,3.645,3.6996,3.7496,3.8167,3.8242,3.8242,3.8242,3.8242,3.8242,3.8242,3.7319,3.6134,3.4787,3.4345,3.3839,3.3111,3.3124,3.3283,3.367,3.4345,3.454,3.422,3.5534,3.5854,3.5238,3.5894,3.5494]}]]